<?xml version="1.0" encoding="UTF-8" standalone="no" ?>
<gpx xmlns="http://www.topografix.com/GPX/1/1" xmlns:xsi="http://www.w3.org/2001/XMLSchema-instance" xsi:schemaLocation="http://www.topografix.com/GPX/1/1 http://www.topografix.com/GPX/1/1/gpx.xsd" version="1.1" creator="VisuGPX - https://www.visugpx.com">
  <metadata>
    <name>2022-10-16 12:39:40 courbouzon</name>
  </metadata>
  <trk>
    <name><![CDATA[2022-10-16 12:39:40 courbouzon]]></name>
    <trkseg>
      <trkpt lat="46.65362" lon="5.52897">
        <ele>263.6</ele>
        <time>2022-10-16T07:05:00Z</time>
      </trkpt>
      <trkpt lat="46.65362" lon="5.52897">
        <ele>263.6</ele>
        <time>2022-10-16T07:05:01Z</time>
      </trkpt>
      <trkpt lat="46.65362" lon="5.52897">
        <ele>254.82</ele>
        <time>2022-10-16T07:05:10Z</time>
      </trkpt>
      <trkpt lat="46.65362" lon="5.52897">
        <ele>254.83</ele>
        <time>2022-10-16T07:05:11Z</time>
      </trkpt>
      <trkpt lat="46.65362" lon="5.52897">
        <ele>269.74</ele>
        <time>2022-10-16T07:05:12Z</time>
      </trkpt>
      <trkpt lat="46.65362" lon="5.52897">
        <ele>269.74</ele>
        <time>2022-10-16T07:05:13Z</time>
      </trkpt>
      <trkpt lat="46.65362" lon="5.52897">
        <ele>266.49</ele>
        <time>2022-10-16T07:05:14Z</time>
      </trkpt>
      <trkpt lat="46.65362" lon="5.52897">
        <ele>262.43</ele>
        <time>2022-10-16T07:05:16Z</time>
      </trkpt>
      <trkpt lat="46.65362" lon="5.52897">
        <ele>262.43</ele>
        <time>2022-10-16T07:05:17Z</time>
      </trkpt>
      <trkpt lat="46.65362" lon="5.52897">
        <ele>264.74</ele>
        <time>2022-10-16T07:05:19Z</time>
      </trkpt>
      <trkpt lat="46.65362" lon="5.52898">
        <ele>264.68</ele>
        <time>2022-10-16T07:05:45Z</time>
      </trkpt>
      <trkpt lat="46.65365" lon="5.52903">
        <ele>264.69</ele>
        <time>2022-10-16T07:05:49Z</time>
      </trkpt>
      <trkpt lat="46.65359" lon="5.52925">
        <ele>262.36</ele>
        <time>2022-10-16T07:06:06Z</time>
      </trkpt>
      <trkpt lat="46.65353" lon="5.52949">
        <ele>262.29</ele>
        <time>2022-10-16T07:06:21Z</time>
      </trkpt>
      <trkpt lat="46.65352" lon="5.5296">
        <ele>262.29</ele>
        <time>2022-10-16T07:06:28Z</time>
      </trkpt>
      <trkpt lat="46.65361" lon="5.52963">
        <ele>262.24</ele>
        <time>2022-10-16T07:06:36Z</time>
      </trkpt>
      <trkpt lat="46.65383" lon="5.52964">
        <ele>261.14</ele>
        <time>2022-10-16T07:06:52Z</time>
      </trkpt>
      <trkpt lat="46.65402" lon="5.52966">
        <ele>261.11</ele>
        <time>2022-10-16T07:07:05Z</time>
      </trkpt>
      <trkpt lat="46.65425" lon="5.5297">
        <ele>261.14</ele>
        <time>2022-10-16T07:07:20Z</time>
      </trkpt>
      <trkpt lat="46.65446" lon="5.5298">
        <ele>263.44</ele>
        <time>2022-10-16T07:07:35Z</time>
      </trkpt>
      <trkpt lat="46.65469" lon="5.53009">
        <ele>264.23</ele>
        <time>2022-10-16T07:07:59Z</time>
      </trkpt>
      <trkpt lat="46.6548" lon="5.53031">
        <ele>264.93</ele>
        <time>2022-10-16T07:08:14Z</time>
      </trkpt>
      <trkpt lat="46.65485" lon="5.5304">
        <ele>267.81</ele>
        <time>2022-10-16T07:08:20Z</time>
      </trkpt>
      <trkpt lat="46.65492" lon="5.53053">
        <ele>265.48</ele>
        <time>2022-10-16T07:08:29Z</time>
      </trkpt>
      <trkpt lat="46.65507" lon="5.53074">
        <ele>265.51</ele>
        <time>2022-10-16T07:08:45Z</time>
      </trkpt>
      <trkpt lat="46.65523" lon="5.53058">
        <ele>265.53</ele>
        <time>2022-10-16T07:09:00Z</time>
      </trkpt>
      <trkpt lat="46.65527" lon="5.5305">
        <ele>267.86</ele>
        <time>2022-10-16T07:09:05Z</time>
      </trkpt>
      <trkpt lat="46.65544" lon="5.53018">
        <ele>267.77</ele>
        <time>2022-10-16T07:09:24Z</time>
      </trkpt>
      <trkpt lat="46.65559" lon="5.52992">
        <ele>267.72</ele>
        <time>2022-10-16T07:09:40Z</time>
      </trkpt>
      <trkpt lat="46.65574" lon="5.52978">
        <ele>267.71</ele>
        <time>2022-10-16T07:09:51Z</time>
      </trkpt>
      <trkpt lat="46.65593" lon="5.52966">
        <ele>267.67</ele>
        <time>2022-10-16T07:10:05Z</time>
      </trkpt>
      <trkpt lat="46.65594" lon="5.52966">
        <ele>267.66</ele>
        <time>2022-10-16T07:10:06Z</time>
      </trkpt>
      <trkpt lat="46.65595" lon="5.52965">
        <ele>267.68</ele>
        <time>2022-10-16T07:10:07Z</time>
      </trkpt>
      <trkpt lat="46.65609" lon="5.52964">
        <ele>267.68</ele>
        <time>2022-10-16T07:10:16Z</time>
      </trkpt>
      <trkpt lat="46.6561" lon="5.52963">
        <ele>267.68</ele>
        <time>2022-10-16T07:10:17Z</time>
      </trkpt>
      <trkpt lat="46.65612" lon="5.52962">
        <ele>267.67</ele>
        <time>2022-10-16T07:10:18Z</time>
      </trkpt>
      <trkpt lat="46.65634" lon="5.5296">
        <ele>267.72</ele>
        <time>2022-10-16T07:10:32Z</time>
      </trkpt>
      <trkpt lat="46.65667" lon="5.52958">
        <ele>267.68</ele>
        <time>2022-10-16T07:10:55Z</time>
      </trkpt>
      <trkpt lat="46.65675" lon="5.52957">
        <ele>263.45</ele>
        <time>2022-10-16T07:11:01Z</time>
      </trkpt>
      <trkpt lat="46.65677" lon="5.52956">
        <ele>266.24</ele>
        <time>2022-10-16T07:11:02Z</time>
      </trkpt>
      <trkpt lat="46.65709" lon="5.52945">
        <ele>266.22</ele>
        <time>2022-10-16T07:11:27Z</time>
      </trkpt>
      <trkpt lat="46.65735" lon="5.52935">
        <ele>266.25</ele>
        <time>2022-10-16T07:11:47Z</time>
      </trkpt>
      <trkpt lat="46.65758" lon="5.52922">
        <ele>267.03</ele>
        <time>2022-10-16T07:12:05Z</time>
      </trkpt>
      <trkpt lat="46.65781" lon="5.52909">
        <ele>266.96</ele>
        <time>2022-10-16T07:12:22Z</time>
      </trkpt>
      <trkpt lat="46.65801" lon="5.52901">
        <ele>266.94</ele>
        <time>2022-10-16T07:12:35Z</time>
      </trkpt>
      <trkpt lat="46.65823" lon="5.52892">
        <ele>266.89</ele>
        <time>2022-10-16T07:12:50Z</time>
      </trkpt>
      <trkpt lat="46.65829" lon="5.52888">
        <ele>266.88</ele>
        <time>2022-10-16T07:12:55Z</time>
      </trkpt>
      <trkpt lat="46.6583" lon="5.52888">
        <ele>266.87</ele>
        <time>2022-10-16T07:12:56Z</time>
      </trkpt>
      <trkpt lat="46.65832" lon="5.52887">
        <ele>266.87</ele>
        <time>2022-10-16T07:12:57Z</time>
      </trkpt>
      <trkpt lat="46.65833" lon="5.52887">
        <ele>266.87</ele>
        <time>2022-10-16T07:12:58Z</time>
      </trkpt>
      <trkpt lat="46.65835" lon="5.52886">
        <ele>266.87</ele>
        <time>2022-10-16T07:12:59Z</time>
      </trkpt>
      <trkpt lat="46.65837" lon="5.52886">
        <ele>266.88</ele>
        <time>2022-10-16T07:13:00Z</time>
      </trkpt>
      <trkpt lat="46.65855" lon="5.52881">
        <ele>266.83</ele>
        <time>2022-10-16T07:13:13Z</time>
      </trkpt>
      <trkpt lat="46.65862" lon="5.52878">
        <ele>266.79</ele>
        <time>2022-10-16T07:13:19Z</time>
      </trkpt>
      <trkpt lat="46.65872" lon="5.52879">
        <ele>263.65</ele>
        <time>2022-10-16T07:13:27Z</time>
      </trkpt>
      <trkpt lat="46.65873" lon="5.52879">
        <ele>263.65</ele>
        <time>2022-10-16T07:13:28Z</time>
      </trkpt>
      <trkpt lat="46.65888" lon="5.52883">
        <ele>262.68</ele>
        <time>2022-10-16T07:13:43Z</time>
      </trkpt>
      <trkpt lat="46.65891" lon="5.5288">
        <ele>262.66</ele>
        <time>2022-10-16T07:14:10Z</time>
      </trkpt>
      <trkpt lat="46.65903" lon="5.52867">
        <ele>262.61</ele>
        <time>2022-10-16T07:14:21Z</time>
      </trkpt>
      <trkpt lat="46.65914" lon="5.52854">
        <ele>262.61</ele>
        <time>2022-10-16T07:14:31Z</time>
      </trkpt>
      <trkpt lat="46.65925" lon="5.52843">
        <ele>264.98</ele>
        <time>2022-10-16T07:14:40Z</time>
      </trkpt>
      <trkpt lat="46.65946" lon="5.52825">
        <ele>264.88</ele>
        <time>2022-10-16T07:14:56Z</time>
      </trkpt>
      <trkpt lat="46.65961" lon="5.5281">
        <ele>264.82</ele>
        <time>2022-10-16T07:15:09Z</time>
      </trkpt>
      <trkpt lat="46.65982" lon="5.5279">
        <ele>264.74</ele>
        <time>2022-10-16T07:15:26Z</time>
      </trkpt>
      <trkpt lat="46.65992" lon="5.52785">
        <ele>264.74</ele>
        <time>2022-10-16T07:15:32Z</time>
      </trkpt>
      <trkpt lat="46.65993" lon="5.52784">
        <ele>264.74</ele>
        <time>2022-10-16T07:15:33Z</time>
      </trkpt>
      <trkpt lat="46.65994" lon="5.52783">
        <ele>264.74</ele>
        <time>2022-10-16T07:15:34Z</time>
      </trkpt>
      <trkpt lat="46.65995" lon="5.52782">
        <ele>264.74</ele>
        <time>2022-10-16T07:15:35Z</time>
      </trkpt>
      <trkpt lat="46.65996" lon="5.52781">
        <ele>264.74</ele>
        <time>2022-10-16T07:15:36Z</time>
      </trkpt>
      <trkpt lat="46.65998" lon="5.5278">
        <ele>264.73</ele>
        <time>2022-10-16T07:15:37Z</time>
      </trkpt>
      <trkpt lat="46.66018" lon="5.52764">
        <ele>264.69</ele>
        <time>2022-10-16T07:15:51Z</time>
      </trkpt>
      <trkpt lat="46.66036" lon="5.52744">
        <ele>264.66</ele>
        <time>2022-10-16T07:16:06Z</time>
      </trkpt>
      <trkpt lat="46.66056" lon="5.52723">
        <ele>264.6</ele>
        <time>2022-10-16T07:16:22Z</time>
      </trkpt>
      <trkpt lat="46.66072" lon="5.52701">
        <ele>264.53</ele>
        <time>2022-10-16T07:16:37Z</time>
      </trkpt>
      <trkpt lat="46.66086" lon="5.52681">
        <ele>265.22</ele>
        <time>2022-10-16T07:16:51Z</time>
      </trkpt>
      <trkpt lat="46.66095" lon="5.52668">
        <ele>265.17</ele>
        <time>2022-10-16T07:16:59Z</time>
      </trkpt>
      <trkpt lat="46.66098" lon="5.5266">
        <ele>265.15</ele>
        <time>2022-10-16T07:17:03Z</time>
      </trkpt>
      <trkpt lat="46.66102" lon="5.52635">
        <ele>265.02</ele>
        <time>2022-10-16T07:17:16Z</time>
      </trkpt>
      <trkpt lat="46.66103" lon="5.52628">
        <ele>264.99</ele>
        <time>2022-10-16T07:17:20Z</time>
      </trkpt>
      <trkpt lat="46.66108" lon="5.52605">
        <ele>264.92</ele>
        <time>2022-10-16T07:17:32Z</time>
      </trkpt>
      <trkpt lat="46.66115" lon="5.52568">
        <ele>264.85</ele>
        <time>2022-10-16T07:17:48Z</time>
      </trkpt>
      <trkpt lat="46.66121" lon="5.52541">
        <ele>264.79</ele>
        <time>2022-10-16T07:18:01Z</time>
      </trkpt>
      <trkpt lat="46.66123" lon="5.52535">
        <ele>262.48</ele>
        <time>2022-10-16T07:18:04Z</time>
      </trkpt>
      <trkpt lat="46.6613" lon="5.52504">
        <ele>261.59</ele>
        <time>2022-10-16T07:18:18Z</time>
      </trkpt>
      <trkpt lat="46.66135" lon="5.52471">
        <ele>260.6</ele>
        <time>2022-10-16T07:18:34Z</time>
      </trkpt>
      <trkpt lat="46.66141" lon="5.52431">
        <ele>258.78</ele>
        <time>2022-10-16T07:18:53Z</time>
      </trkpt>
      <trkpt lat="46.66145" lon="5.52403">
        <ele>257.9</ele>
        <time>2022-10-16T07:19:06Z</time>
      </trkpt>
      <trkpt lat="46.66146" lon="5.52374">
        <ele>256.8</ele>
        <time>2022-10-16T07:19:18Z</time>
      </trkpt>
      <trkpt lat="46.66145" lon="5.52373">
        <ele>256.8</ele>
        <time>2022-10-16T07:19:19Z</time>
      </trkpt>
      <trkpt lat="46.66144" lon="5.52371">
        <ele>256.01</ele>
        <time>2022-10-16T07:19:20Z</time>
      </trkpt>
      <trkpt lat="46.66143" lon="5.5237">
        <ele>256</ele>
        <time>2022-10-16T07:19:21Z</time>
      </trkpt>
      <trkpt lat="46.66142" lon="5.52369">
        <ele>256</ele>
        <time>2022-10-16T07:19:22Z</time>
      </trkpt>
      <trkpt lat="46.6614" lon="5.52367">
        <ele>255.98</ele>
        <time>2022-10-16T07:19:23Z</time>
      </trkpt>
      <trkpt lat="46.66139" lon="5.52366">
        <ele>255.98</ele>
        <time>2022-10-16T07:19:24Z</time>
      </trkpt>
      <trkpt lat="46.66137" lon="5.52365">
        <ele>255.14</ele>
        <time>2022-10-16T07:19:25Z</time>
      </trkpt>
      <trkpt lat="46.66136" lon="5.52364">
        <ele>255.14</ele>
        <time>2022-10-16T07:19:26Z</time>
      </trkpt>
      <trkpt lat="46.66134" lon="5.52364">
        <ele>255.13</ele>
        <time>2022-10-16T07:19:27Z</time>
      </trkpt>
      <trkpt lat="46.66133" lon="5.52363">
        <ele>255.12</ele>
        <time>2022-10-16T07:19:28Z</time>
      </trkpt>
      <trkpt lat="46.66131" lon="5.52363">
        <ele>255.1</ele>
        <time>2022-10-16T07:19:29Z</time>
      </trkpt>
      <trkpt lat="46.66129" lon="5.52362">
        <ele>254.33</ele>
        <time>2022-10-16T07:19:30Z</time>
      </trkpt>
      <trkpt lat="46.66128" lon="5.52362">
        <ele>254.33</ele>
        <time>2022-10-16T07:19:31Z</time>
      </trkpt>
      <trkpt lat="46.66111" lon="5.52356">
        <ele>252.7</ele>
        <time>2022-10-16T07:19:44Z</time>
      </trkpt>
      <trkpt lat="46.66105" lon="5.52354">
        <ele>252.69</ele>
        <time>2022-10-16T07:19:48Z</time>
      </trkpt>
      <trkpt lat="46.66096" lon="5.5235">
        <ele>251.78</ele>
        <time>2022-10-16T07:19:57Z</time>
      </trkpt>
      <trkpt lat="46.66086" lon="5.52346">
        <ele>250.98</ele>
        <time>2022-10-16T07:20:03Z</time>
      </trkpt>
      <trkpt lat="46.66085" lon="5.52344">
        <ele>250.98</ele>
        <time>2022-10-16T07:20:04Z</time>
      </trkpt>
      <trkpt lat="46.66083" lon="5.52344">
        <ele>250.97</ele>
        <time>2022-10-16T07:20:05Z</time>
      </trkpt>
      <trkpt lat="46.66082" lon="5.52343">
        <ele>250.96</ele>
        <time>2022-10-16T07:20:06Z</time>
      </trkpt>
      <trkpt lat="46.66081" lon="5.52342">
        <ele>250.95</ele>
        <time>2022-10-16T07:20:07Z</time>
      </trkpt>
      <trkpt lat="46.66079" lon="5.52341">
        <ele>250.94</ele>
        <time>2022-10-16T07:20:08Z</time>
      </trkpt>
      <trkpt lat="46.66077" lon="5.52341">
        <ele>250.93</ele>
        <time>2022-10-16T07:20:09Z</time>
      </trkpt>
      <trkpt lat="46.66073" lon="5.52342">
        <ele>250.89</ele>
        <time>2022-10-16T07:20:12Z</time>
      </trkpt>
      <trkpt lat="46.66069" lon="5.52342">
        <ele>250.86</ele>
        <time>2022-10-16T07:20:15Z</time>
      </trkpt>
      <trkpt lat="46.66067" lon="5.52342">
        <ele>250.84</ele>
        <time>2022-10-16T07:20:16Z</time>
      </trkpt>
      <trkpt lat="46.66065" lon="5.52341">
        <ele>250.82</ele>
        <time>2022-10-16T07:20:17Z</time>
      </trkpt>
      <trkpt lat="46.66064" lon="5.52341">
        <ele>250.82</ele>
        <time>2022-10-16T07:20:18Z</time>
      </trkpt>
      <trkpt lat="46.66062" lon="5.5234">
        <ele>250.81</ele>
        <time>2022-10-16T07:20:19Z</time>
      </trkpt>
      <trkpt lat="46.66051" lon="5.52337">
        <ele>249.9</ele>
        <time>2022-10-16T07:20:28Z</time>
      </trkpt>
      <trkpt lat="46.66049" lon="5.52335">
        <ele>249.08</ele>
        <time>2022-10-16T07:20:30Z</time>
      </trkpt>
      <trkpt lat="46.66047" lon="5.52334">
        <ele>249.07</ele>
        <time>2022-10-16T07:20:31Z</time>
      </trkpt>
      <trkpt lat="46.66046" lon="5.52333">
        <ele>249.06</ele>
        <time>2022-10-16T07:20:32Z</time>
      </trkpt>
      <trkpt lat="46.66045" lon="5.52331">
        <ele>249.04</ele>
        <time>2022-10-16T07:20:33Z</time>
      </trkpt>
      <trkpt lat="46.66045" lon="5.5233">
        <ele>249.03</ele>
        <time>2022-10-16T07:20:34Z</time>
      </trkpt>
      <trkpt lat="46.66045" lon="5.52328">
        <ele>249.02</ele>
        <time>2022-10-16T07:20:35Z</time>
      </trkpt>
      <trkpt lat="46.66046" lon="5.52326">
        <ele>249.01</ele>
        <time>2022-10-16T07:20:36Z</time>
      </trkpt>
      <trkpt lat="46.66049" lon="5.52319">
        <ele>248.94</ele>
        <time>2022-10-16T07:20:42Z</time>
      </trkpt>
      <trkpt lat="46.66049" lon="5.52317">
        <ele>248.93</ele>
        <time>2022-10-16T07:20:43Z</time>
      </trkpt>
      <trkpt lat="46.66048" lon="5.52316">
        <ele>248.92</ele>
        <time>2022-10-16T07:20:44Z</time>
      </trkpt>
      <trkpt lat="46.66051" lon="5.52309">
        <ele>248.86</ele>
        <time>2022-10-16T07:20:49Z</time>
      </trkpt>
      <trkpt lat="46.66052" lon="5.52307">
        <ele>248.84</ele>
        <time>2022-10-16T07:20:50Z</time>
      </trkpt>
      <trkpt lat="46.66052" lon="5.52304">
        <ele>248.83</ele>
        <time>2022-10-16T07:20:51Z</time>
      </trkpt>
      <trkpt lat="46.66056" lon="5.52295">
        <ele>248.75</ele>
        <time>2022-10-16T07:20:56Z</time>
      </trkpt>
      <trkpt lat="46.66068" lon="5.52277">
        <ele>248.53</ele>
        <time>2022-10-16T07:21:11Z</time>
      </trkpt>
      <trkpt lat="46.66075" lon="5.52282">
        <ele>248.48</ele>
        <time>2022-10-16T07:21:16Z</time>
      </trkpt>
      <trkpt lat="46.66087" lon="5.5229">
        <ele>248.36</ele>
        <time>2022-10-16T07:21:27Z</time>
      </trkpt>
      <trkpt lat="46.66102" lon="5.523">
        <ele>248.24</ele>
        <time>2022-10-16T07:21:41Z</time>
      </trkpt>
      <trkpt lat="46.66119" lon="5.5231">
        <ele>248.1</ele>
        <time>2022-10-16T07:21:56Z</time>
      </trkpt>
      <trkpt lat="46.66133" lon="5.52311">
        <ele>250.29</ele>
        <time>2022-10-16T07:22:06Z</time>
      </trkpt>
      <trkpt lat="46.66138" lon="5.52313">
        <ele>250.27</ele>
        <time>2022-10-16T07:22:10Z</time>
      </trkpt>
      <trkpt lat="46.66152" lon="5.52323">
        <ele>251.81</ele>
        <time>2022-10-16T07:22:21Z</time>
      </trkpt>
      <trkpt lat="46.66158" lon="5.52331">
        <ele>251.72</ele>
        <time>2022-10-16T07:22:35Z</time>
      </trkpt>
      <trkpt lat="46.66157" lon="5.52331">
        <ele>252.41</ele>
        <time>2022-10-16T07:22:52Z</time>
      </trkpt>
      <trkpt lat="46.66158" lon="5.52324">
        <ele>252.35</ele>
        <time>2022-10-16T07:23:07Z</time>
      </trkpt>
      <trkpt lat="46.66159" lon="5.52313">
        <ele>252.33</ele>
        <time>2022-10-16T07:23:13Z</time>
      </trkpt>
      <trkpt lat="46.66164" lon="5.5228">
        <ele>249.97</ele>
        <time>2022-10-16T07:23:31Z</time>
      </trkpt>
      <trkpt lat="46.66164" lon="5.52278">
        <ele>249.96</ele>
        <time>2022-10-16T07:23:32Z</time>
      </trkpt>
      <trkpt lat="46.66168" lon="5.52248">
        <ele>249.92</ele>
        <time>2022-10-16T07:23:47Z</time>
      </trkpt>
      <trkpt lat="46.6617" lon="5.5222">
        <ele>249.09</ele>
        <time>2022-10-16T07:24:01Z</time>
      </trkpt>
      <trkpt lat="46.6617" lon="5.52194">
        <ele>249.08</ele>
        <time>2022-10-16T07:24:12Z</time>
      </trkpt>
      <trkpt lat="46.66175" lon="5.52164">
        <ele>249.06</ele>
        <time>2022-10-16T07:24:27Z</time>
      </trkpt>
      <trkpt lat="46.66176" lon="5.52135">
        <ele>249.04</ele>
        <time>2022-10-16T07:24:39Z</time>
      </trkpt>
      <trkpt lat="46.66186" lon="5.52108">
        <ele>249.01</ele>
        <time>2022-10-16T07:24:54Z</time>
      </trkpt>
      <trkpt lat="46.66189" lon="5.52101">
        <ele>249</ele>
        <time>2022-10-16T07:24:59Z</time>
      </trkpt>
      <trkpt lat="46.6619" lon="5.52099">
        <ele>249</ele>
        <time>2022-10-16T07:25:00Z</time>
      </trkpt>
      <trkpt lat="46.66192" lon="5.52098">
        <ele>249</ele>
        <time>2022-10-16T07:25:01Z</time>
      </trkpt>
      <trkpt lat="46.66193" lon="5.52097">
        <ele>249</ele>
        <time>2022-10-16T07:25:02Z</time>
      </trkpt>
      <trkpt lat="46.66195" lon="5.52096">
        <ele>248.99</ele>
        <time>2022-10-16T07:25:03Z</time>
      </trkpt>
      <trkpt lat="46.66196" lon="5.52094">
        <ele>248.99</ele>
        <time>2022-10-16T07:25:04Z</time>
      </trkpt>
      <trkpt lat="46.66196" lon="5.52093">
        <ele>248.99</ele>
        <time>2022-10-16T07:25:05Z</time>
      </trkpt>
      <trkpt lat="46.66197" lon="5.52091">
        <ele>248.99</ele>
        <time>2022-10-16T07:25:06Z</time>
      </trkpt>
      <trkpt lat="46.66202" lon="5.52078">
        <ele>248.98</ele>
        <time>2022-10-16T07:25:14Z</time>
      </trkpt>
      <trkpt lat="46.66202" lon="5.52076">
        <ele>248.98</ele>
        <time>2022-10-16T07:25:15Z</time>
      </trkpt>
      <trkpt lat="46.66203" lon="5.52075">
        <ele>248.99</ele>
        <time>2022-10-16T07:25:16Z</time>
      </trkpt>
      <trkpt lat="46.66204" lon="5.52073">
        <ele>248.98</ele>
        <time>2022-10-16T07:25:17Z</time>
      </trkpt>
      <trkpt lat="46.66205" lon="5.52071">
        <ele>248.99</ele>
        <time>2022-10-16T07:25:18Z</time>
      </trkpt>
      <trkpt lat="46.66208" lon="5.52066">
        <ele>248.98</ele>
        <time>2022-10-16T07:25:22Z</time>
      </trkpt>
      <trkpt lat="46.66207" lon="5.52062">
        <ele>248.98</ele>
        <time>2022-10-16T07:25:24Z</time>
      </trkpt>
      <trkpt lat="46.662" lon="5.52045">
        <ele>248.16</ele>
        <time>2022-10-16T07:25:35Z</time>
      </trkpt>
      <trkpt lat="46.662" lon="5.52033">
        <ele>247.23</ele>
        <time>2022-10-16T07:25:45Z</time>
      </trkpt>
      <trkpt lat="46.662" lon="5.52032">
        <ele>247.23</ele>
        <time>2022-10-16T07:25:46Z</time>
      </trkpt>
      <trkpt lat="46.66193" lon="5.5202">
        <ele>247.2</ele>
        <time>2022-10-16T07:25:56Z</time>
      </trkpt>
      <trkpt lat="46.6619" lon="5.52015">
        <ele>247.2</ele>
        <time>2022-10-16T07:25:58Z</time>
      </trkpt>
      <trkpt lat="46.66189" lon="5.52013">
        <ele>247.2</ele>
        <time>2022-10-16T07:25:59Z</time>
      </trkpt>
      <trkpt lat="46.66188" lon="5.52011">
        <ele>247.19</ele>
        <time>2022-10-16T07:26:00Z</time>
      </trkpt>
      <trkpt lat="46.66187" lon="5.52009">
        <ele>247.18</ele>
        <time>2022-10-16T07:26:01Z</time>
      </trkpt>
      <trkpt lat="46.66176" lon="5.51988">
        <ele>247.11</ele>
        <time>2022-10-16T07:26:13Z</time>
      </trkpt>
      <trkpt lat="46.66172" lon="5.51983">
        <ele>247.08</ele>
        <time>2022-10-16T07:26:17Z</time>
      </trkpt>
      <trkpt lat="46.66158" lon="5.51975">
        <ele>246.99</ele>
        <time>2022-10-16T07:26:28Z</time>
      </trkpt>
      <trkpt lat="46.66148" lon="5.51972">
        <ele>246.94</ele>
        <time>2022-10-16T07:26:34Z</time>
      </trkpt>
      <trkpt lat="46.66147" lon="5.51972">
        <ele>246.93</ele>
        <time>2022-10-16T07:26:35Z</time>
      </trkpt>
      <trkpt lat="46.66145" lon="5.51973">
        <ele>246.92</ele>
        <time>2022-10-16T07:26:36Z</time>
      </trkpt>
      <trkpt lat="46.66126" lon="5.51978">
        <ele>246.84</ele>
        <time>2022-10-16T07:26:47Z</time>
      </trkpt>
      <trkpt lat="46.66114" lon="5.51989">
        <ele>246.79</ele>
        <time>2022-10-16T07:26:57Z</time>
      </trkpt>
      <trkpt lat="46.66098" lon="5.52007">
        <ele>246.75</ele>
        <time>2022-10-16T07:27:10Z</time>
      </trkpt>
      <trkpt lat="46.66084" lon="5.52021">
        <ele>246.72</ele>
        <time>2022-10-16T07:27:20Z</time>
      </trkpt>
      <trkpt lat="46.66082" lon="5.52025">
        <ele>246.71</ele>
        <time>2022-10-16T07:27:24Z</time>
      </trkpt>
      <trkpt lat="46.66081" lon="5.52027">
        <ele>246.71</ele>
        <time>2022-10-16T07:27:25Z</time>
      </trkpt>
      <trkpt lat="46.6608" lon="5.52028">
        <ele>246.71</ele>
        <time>2022-10-16T07:27:26Z</time>
      </trkpt>
      <trkpt lat="46.66065" lon="5.52044">
        <ele>246.69</ele>
        <time>2022-10-16T07:27:38Z</time>
      </trkpt>
      <trkpt lat="46.66054" lon="5.52058">
        <ele>246.67</ele>
        <time>2022-10-16T07:27:48Z</time>
      </trkpt>
      <trkpt lat="46.66044" lon="5.52076">
        <ele>246.66</ele>
        <time>2022-10-16T07:27:59Z</time>
      </trkpt>
      <trkpt lat="46.66043" lon="5.52077">
        <ele>246.66</ele>
        <time>2022-10-16T07:28:00Z</time>
      </trkpt>
      <trkpt lat="46.6604" lon="5.52081">
        <ele>246.66</ele>
        <time>2022-10-16T07:28:04Z</time>
      </trkpt>
      <trkpt lat="46.66039" lon="5.52082">
        <ele>246.66</ele>
        <time>2022-10-16T07:28:05Z</time>
      </trkpt>
      <trkpt lat="46.66038" lon="5.52084">
        <ele>246.66</ele>
        <time>2022-10-16T07:28:06Z</time>
      </trkpt>
      <trkpt lat="46.66037" lon="5.52085">
        <ele>246.65</ele>
        <time>2022-10-16T07:28:07Z</time>
      </trkpt>
      <trkpt lat="46.66035" lon="5.52086">
        <ele>246.65</ele>
        <time>2022-10-16T07:28:08Z</time>
      </trkpt>
      <trkpt lat="46.66033" lon="5.52087">
        <ele>246.65</ele>
        <time>2022-10-16T07:28:09Z</time>
      </trkpt>
      <trkpt lat="46.66032" lon="5.52086">
        <ele>246.65</ele>
        <time>2022-10-16T07:28:10Z</time>
      </trkpt>
      <trkpt lat="46.6603" lon="5.52086">
        <ele>246.64</ele>
        <time>2022-10-16T07:28:11Z</time>
      </trkpt>
      <trkpt lat="46.66028" lon="5.52085">
        <ele>246.64</ele>
        <time>2022-10-16T07:28:12Z</time>
      </trkpt>
      <trkpt lat="46.66026" lon="5.52085">
        <ele>246.63</ele>
        <time>2022-10-16T07:28:13Z</time>
      </trkpt>
      <trkpt lat="46.66025" lon="5.52086">
        <ele>246.63</ele>
        <time>2022-10-16T07:28:14Z</time>
      </trkpt>
      <trkpt lat="46.66023" lon="5.52087">
        <ele>246.63</ele>
        <time>2022-10-16T07:28:15Z</time>
      </trkpt>
      <trkpt lat="46.66012" lon="5.52091">
        <ele>246.59</ele>
        <time>2022-10-16T07:28:22Z</time>
      </trkpt>
      <trkpt lat="46.6601" lon="5.52091">
        <ele>246.59</ele>
        <time>2022-10-16T07:28:23Z</time>
      </trkpt>
      <trkpt lat="46.65995" lon="5.52094">
        <ele>248.8</ele>
        <time>2022-10-16T07:28:32Z</time>
      </trkpt>
      <trkpt lat="46.65981" lon="5.52095">
        <ele>249.58</ele>
        <time>2022-10-16T07:28:42Z</time>
      </trkpt>
      <trkpt lat="46.6598" lon="5.52095">
        <ele>249.56</ele>
        <time>2022-10-16T07:28:43Z</time>
      </trkpt>
      <trkpt lat="46.65978" lon="5.52096">
        <ele>249.57</ele>
        <time>2022-10-16T07:28:44Z</time>
      </trkpt>
      <trkpt lat="46.65977" lon="5.52096">
        <ele>249.57</ele>
        <time>2022-10-16T07:28:45Z</time>
      </trkpt>
      <trkpt lat="46.65975" lon="5.52097">
        <ele>249.57</ele>
        <time>2022-10-16T07:28:46Z</time>
      </trkpt>
      <trkpt lat="46.65974" lon="5.52097">
        <ele>249.57</ele>
        <time>2022-10-16T07:28:47Z</time>
      </trkpt>
      <trkpt lat="46.65973" lon="5.52097">
        <ele>249.56</ele>
        <time>2022-10-16T07:28:48Z</time>
      </trkpt>
      <trkpt lat="46.65972" lon="5.52097">
        <ele>249.55</ele>
        <time>2022-10-16T07:28:49Z</time>
      </trkpt>
      <trkpt lat="46.65961" lon="5.52095">
        <ele>250.28</ele>
        <time>2022-10-16T07:28:59Z</time>
      </trkpt>
      <trkpt lat="46.65959" lon="5.52093">
        <ele>250.28</ele>
        <time>2022-10-16T07:29:00Z</time>
      </trkpt>
      <trkpt lat="46.65958" lon="5.52092">
        <ele>251.05</ele>
        <time>2022-10-16T07:29:01Z</time>
      </trkpt>
      <trkpt lat="46.65945" lon="5.52082">
        <ele>251.88</ele>
        <time>2022-10-16T07:29:12Z</time>
      </trkpt>
      <trkpt lat="46.65937" lon="5.52077">
        <ele>252.76</ele>
        <time>2022-10-16T07:29:19Z</time>
      </trkpt>
      <trkpt lat="46.65921" lon="5.52056">
        <ele>253.54</ele>
        <time>2022-10-16T07:29:33Z</time>
      </trkpt>
      <trkpt lat="46.65919" lon="5.52056">
        <ele>254.37</ele>
        <time>2022-10-16T07:29:34Z</time>
      </trkpt>
      <trkpt lat="46.65898" lon="5.52059">
        <ele>255.15</ele>
        <time>2022-10-16T07:29:47Z</time>
      </trkpt>
      <trkpt lat="46.65877" lon="5.52063">
        <ele>256.75</ele>
        <time>2022-10-16T07:30:01Z</time>
      </trkpt>
      <trkpt lat="46.65872" lon="5.52066">
        <ele>256.72</ele>
        <time>2022-10-16T07:30:07Z</time>
      </trkpt>
      <trkpt lat="46.65871" lon="5.52068">
        <ele>256.72</ele>
        <time>2022-10-16T07:30:08Z</time>
      </trkpt>
      <trkpt lat="46.65857" lon="5.5208">
        <ele>256.68</ele>
        <time>2022-10-16T07:30:19Z</time>
      </trkpt>
      <trkpt lat="46.65855" lon="5.52081">
        <ele>256.68</ele>
        <time>2022-10-16T07:30:20Z</time>
      </trkpt>
      <trkpt lat="46.65842" lon="5.52089">
        <ele>257.47</ele>
        <time>2022-10-16T07:30:29Z</time>
      </trkpt>
      <trkpt lat="46.6584" lon="5.52088">
        <ele>257.47</ele>
        <time>2022-10-16T07:30:30Z</time>
      </trkpt>
      <trkpt lat="46.65839" lon="5.52087">
        <ele>257.47</ele>
        <time>2022-10-16T07:30:31Z</time>
      </trkpt>
      <trkpt lat="46.65838" lon="5.52086">
        <ele>257.47</ele>
        <time>2022-10-16T07:30:32Z</time>
      </trkpt>
      <trkpt lat="46.65837" lon="5.52085">
        <ele>257.46</ele>
        <time>2022-10-16T07:30:33Z</time>
      </trkpt>
      <trkpt lat="46.65836" lon="5.52083">
        <ele>257.46</ele>
        <time>2022-10-16T07:30:34Z</time>
      </trkpt>
      <trkpt lat="46.65835" lon="5.52082">
        <ele>257.46</ele>
        <time>2022-10-16T07:30:35Z</time>
      </trkpt>
      <trkpt lat="46.65834" lon="5.52081">
        <ele>257.46</ele>
        <time>2022-10-16T07:30:36Z</time>
      </trkpt>
      <trkpt lat="46.65822" lon="5.52055">
        <ele>258.98</ele>
        <time>2022-10-16T07:30:53Z</time>
      </trkpt>
      <trkpt lat="46.65815" lon="5.52043">
        <ele>259.75</ele>
        <time>2022-10-16T07:31:01Z</time>
      </trkpt>
      <trkpt lat="46.65814" lon="5.52041">
        <ele>259.74</ele>
        <time>2022-10-16T07:31:02Z</time>
      </trkpt>
      <trkpt lat="46.65813" lon="5.52039">
        <ele>259.74</ele>
        <time>2022-10-16T07:31:03Z</time>
      </trkpt>
      <trkpt lat="46.65812" lon="5.52038">
        <ele>259.73</ele>
        <time>2022-10-16T07:31:04Z</time>
      </trkpt>
      <trkpt lat="46.6581" lon="5.52036">
        <ele>260.52</ele>
        <time>2022-10-16T07:31:05Z</time>
      </trkpt>
      <trkpt lat="46.65809" lon="5.52034">
        <ele>260.51</ele>
        <time>2022-10-16T07:31:06Z</time>
      </trkpt>
      <trkpt lat="46.65803" lon="5.52022">
        <ele>261.33</ele>
        <time>2022-10-16T07:31:18Z</time>
      </trkpt>
      <trkpt lat="46.65802" lon="5.52021">
        <ele>261.32</ele>
        <time>2022-10-16T07:31:19Z</time>
      </trkpt>
      <trkpt lat="46.65801" lon="5.52019">
        <ele>261.31</ele>
        <time>2022-10-16T07:31:20Z</time>
      </trkpt>
      <trkpt lat="46.65799" lon="5.52018">
        <ele>261.31</ele>
        <time>2022-10-16T07:31:21Z</time>
      </trkpt>
      <trkpt lat="46.65781" lon="5.52">
        <ele>262.8</ele>
        <time>2022-10-16T07:31:33Z</time>
      </trkpt>
      <trkpt lat="46.6578" lon="5.51998">
        <ele>262.78</ele>
        <time>2022-10-16T07:31:35Z</time>
      </trkpt>
      <trkpt lat="46.65779" lon="5.51998">
        <ele>262.76</ele>
        <time>2022-10-16T07:31:36Z</time>
      </trkpt>
      <trkpt lat="46.65772" lon="5.51999">
        <ele>264.48</ele>
        <time>2022-10-16T07:31:45Z</time>
      </trkpt>
      <trkpt lat="46.65761" lon="5.51995">
        <ele>265.17</ele>
        <time>2022-10-16T07:31:59Z</time>
      </trkpt>
      <trkpt lat="46.65754" lon="5.51991">
        <ele>265.9</ele>
        <time>2022-10-16T07:32:05Z</time>
      </trkpt>
      <trkpt lat="46.65752" lon="5.51991">
        <ele>265.89</ele>
        <time>2022-10-16T07:32:06Z</time>
      </trkpt>
      <trkpt lat="46.6575" lon="5.51991">
        <ele>265.88</ele>
        <time>2022-10-16T07:32:07Z</time>
      </trkpt>
      <trkpt lat="46.6574" lon="5.51988">
        <ele>266.7</ele>
        <time>2022-10-16T07:32:15Z</time>
      </trkpt>
      <trkpt lat="46.65739" lon="5.51989">
        <ele>266.7</ele>
        <time>2022-10-16T07:32:16Z</time>
      </trkpt>
      <trkpt lat="46.65738" lon="5.51989">
        <ele>266.69</ele>
        <time>2022-10-16T07:32:17Z</time>
      </trkpt>
      <trkpt lat="46.65732" lon="5.51989">
        <ele>266.64</ele>
        <time>2022-10-16T07:32:22Z</time>
      </trkpt>
      <trkpt lat="46.6573" lon="5.51989">
        <ele>266.64</ele>
        <time>2022-10-16T07:32:23Z</time>
      </trkpt>
      <trkpt lat="46.6571" lon="5.51971">
        <ele>267.33</ele>
        <time>2022-10-16T07:32:34Z</time>
      </trkpt>
      <trkpt lat="46.65698" lon="5.51955">
        <ele>268.87</ele>
        <time>2022-10-16T07:32:44Z</time>
      </trkpt>
      <trkpt lat="46.65697" lon="5.51954">
        <ele>268.87</ele>
        <time>2022-10-16T07:32:45Z</time>
      </trkpt>
      <trkpt lat="46.65695" lon="5.51953">
        <ele>268.85</ele>
        <time>2022-10-16T07:32:46Z</time>
      </trkpt>
      <trkpt lat="46.65694" lon="5.51952">
        <ele>268.85</ele>
        <time>2022-10-16T07:32:47Z</time>
      </trkpt>
      <trkpt lat="46.65693" lon="5.51951">
        <ele>268.84</ele>
        <time>2022-10-16T07:32:48Z</time>
      </trkpt>
      <trkpt lat="46.65692" lon="5.5195">
        <ele>268.82</ele>
        <time>2022-10-16T07:32:49Z</time>
      </trkpt>
      <trkpt lat="46.65684" lon="5.51947">
        <ele>271.32</ele>
        <time>2022-10-16T07:33:02Z</time>
      </trkpt>
      <trkpt lat="46.65668" lon="5.51951">
        <ele>274.47</ele>
        <time>2022-10-16T07:33:20Z</time>
      </trkpt>
      <trkpt lat="46.65647" lon="5.51952">
        <ele>277.09</ele>
        <time>2022-10-16T07:33:39Z</time>
      </trkpt>
      <trkpt lat="46.65629" lon="5.51954">
        <ele>278.01</ele>
        <time>2022-10-16T07:33:51Z</time>
      </trkpt>
      <trkpt lat="46.65625" lon="5.51953">
        <ele>278.86</ele>
        <time>2022-10-16T07:33:54Z</time>
      </trkpt>
      <trkpt lat="46.65609" lon="5.51963">
        <ele>282.32</ele>
        <time>2022-10-16T07:34:10Z</time>
      </trkpt>
      <trkpt lat="46.65595" lon="5.51973">
        <ele>285.96</ele>
        <time>2022-10-16T07:34:29Z</time>
      </trkpt>
      <trkpt lat="46.65594" lon="5.51974">
        <ele>286.14</ele>
        <time>2022-10-16T07:34:30Z</time>
      </trkpt>
      <trkpt lat="46.65588" lon="5.51991">
        <ele>289.64</ele>
        <time>2022-10-16T07:34:47Z</time>
      </trkpt>
      <trkpt lat="46.65581" lon="5.52001">
        <ele>291.63</ele>
        <time>2022-10-16T07:34:57Z</time>
      </trkpt>
      <trkpt lat="46.65573" lon="5.52015">
        <ele>294.64</ele>
        <time>2022-10-16T07:35:08Z</time>
      </trkpt>
      <trkpt lat="46.6557" lon="5.52019">
        <ele>295.89</ele>
        <time>2022-10-16T07:35:12Z</time>
      </trkpt>
      <trkpt lat="46.65563" lon="5.52027">
        <ele>298.47</ele>
        <time>2022-10-16T07:35:22Z</time>
      </trkpt>
      <trkpt lat="46.65553" lon="5.52036">
        <ele>302.02</ele>
        <time>2022-10-16T07:35:35Z</time>
      </trkpt>
      <trkpt lat="46.65538" lon="5.52038">
        <ele>305.39</ele>
        <time>2022-10-16T07:35:55Z</time>
      </trkpt>
      <trkpt lat="46.65529" lon="5.52052">
        <ele>308.76</ele>
        <time>2022-10-16T07:36:10Z</time>
      </trkpt>
      <trkpt lat="46.65519" lon="5.52065">
        <ele>312.04</ele>
        <time>2022-10-16T07:36:27Z</time>
      </trkpt>
      <trkpt lat="46.65504" lon="5.5208">
        <ele>314.56</ele>
        <time>2022-10-16T07:36:45Z</time>
      </trkpt>
      <trkpt lat="46.65494" lon="5.521">
        <ele>318.06</ele>
        <time>2022-10-16T07:37:01Z</time>
      </trkpt>
      <trkpt lat="46.65489" lon="5.52112">
        <ele>319.56</ele>
        <time>2022-10-16T07:37:09Z</time>
      </trkpt>
      <trkpt lat="46.65482" lon="5.52114">
        <ele>320.64</ele>
        <time>2022-10-16T07:37:15Z</time>
      </trkpt>
      <trkpt lat="46.65476" lon="5.52114">
        <ele>321.53</ele>
        <time>2022-10-16T07:37:19Z</time>
      </trkpt>
      <trkpt lat="46.65448" lon="5.52113">
        <ele>325.26</ele>
        <time>2022-10-16T07:37:36Z</time>
      </trkpt>
      <trkpt lat="46.65433" lon="5.52109">
        <ele>326.04</ele>
        <time>2022-10-16T07:37:46Z</time>
      </trkpt>
      <trkpt lat="46.65428" lon="5.52107">
        <ele>326.95</ele>
        <time>2022-10-16T07:37:50Z</time>
      </trkpt>
      <trkpt lat="46.65411" lon="5.52101">
        <ele>327.92</ele>
        <time>2022-10-16T07:38:04Z</time>
      </trkpt>
      <trkpt lat="46.65395" lon="5.52092">
        <ele>328.79</ele>
        <time>2022-10-16T07:38:17Z</time>
      </trkpt>
      <trkpt lat="46.65378" lon="5.52084">
        <ele>328.82</ele>
        <time>2022-10-16T07:38:30Z</time>
      </trkpt>
      <trkpt lat="46.65376" lon="5.52083">
        <ele>328.82</ele>
        <time>2022-10-16T07:38:31Z</time>
      </trkpt>
      <trkpt lat="46.65358" lon="5.5208">
        <ele>331.44</ele>
        <time>2022-10-16T07:38:44Z</time>
      </trkpt>
      <trkpt lat="46.65356" lon="5.5208">
        <ele>331.52</ele>
        <time>2022-10-16T07:38:46Z</time>
      </trkpt>
      <trkpt lat="46.65352" lon="5.52081">
        <ele>332.35</ele>
        <time>2022-10-16T07:38:49Z</time>
      </trkpt>
      <trkpt lat="46.6533" lon="5.52086">
        <ele>334.74</ele>
        <time>2022-10-16T07:39:05Z</time>
      </trkpt>
      <trkpt lat="46.65312" lon="5.5209">
        <ele>337.47</ele>
        <time>2022-10-16T07:39:20Z</time>
      </trkpt>
      <trkpt lat="46.65302" lon="5.52092">
        <ele>337.37</ele>
        <time>2022-10-16T07:39:29Z</time>
      </trkpt>
      <trkpt lat="46.65285" lon="5.52101">
        <ele>339.78</ele>
        <time>2022-10-16T07:39:42Z</time>
      </trkpt>
      <trkpt lat="46.65266" lon="5.52105">
        <ele>340.51</ele>
        <time>2022-10-16T07:39:57Z</time>
      </trkpt>
      <trkpt lat="46.65261" lon="5.52106">
        <ele>340.48</ele>
        <time>2022-10-16T07:40:00Z</time>
      </trkpt>
      <trkpt lat="46.65247" lon="5.52109">
        <ele>341.35</ele>
        <time>2022-10-16T07:40:11Z</time>
      </trkpt>
      <trkpt lat="46.65229" lon="5.52114">
        <ele>343.05</ele>
        <time>2022-10-16T07:40:24Z</time>
      </trkpt>
      <trkpt lat="46.65222" lon="5.52113">
        <ele>343.04</ele>
        <time>2022-10-16T07:40:28Z</time>
      </trkpt>
      <trkpt lat="46.65205" lon="5.52116">
        <ele>344.74</ele>
        <time>2022-10-16T07:40:42Z</time>
      </trkpt>
      <trkpt lat="46.65194" lon="5.5212">
        <ele>345.62</ele>
        <time>2022-10-16T07:40:53Z</time>
      </trkpt>
      <trkpt lat="46.65174" lon="5.52118">
        <ele>347.4</ele>
        <time>2022-10-16T07:41:06Z</time>
      </trkpt>
      <trkpt lat="46.6517" lon="5.52119">
        <ele>347.47</ele>
        <time>2022-10-16T07:41:09Z</time>
      </trkpt>
      <trkpt lat="46.65157" lon="5.52122">
        <ele>348.26</ele>
        <time>2022-10-16T07:41:19Z</time>
      </trkpt>
      <trkpt lat="46.6514" lon="5.52129">
        <ele>350.03</ele>
        <time>2022-10-16T07:41:31Z</time>
      </trkpt>
      <trkpt lat="46.65125" lon="5.52128">
        <ele>350.94</ele>
        <time>2022-10-16T07:41:43Z</time>
      </trkpt>
      <trkpt lat="46.65118" lon="5.5213">
        <ele>350.92</ele>
        <time>2022-10-16T07:41:49Z</time>
      </trkpt>
      <trkpt lat="46.65107" lon="5.52129">
        <ele>350.92</ele>
        <time>2022-10-16T07:41:58Z</time>
      </trkpt>
      <trkpt lat="46.65103" lon="5.52128">
        <ele>351.76</ele>
        <time>2022-10-16T07:42:01Z</time>
      </trkpt>
      <trkpt lat="46.65083" lon="5.52131">
        <ele>352.97</ele>
        <time>2022-10-16T07:42:14Z</time>
      </trkpt>
      <trkpt lat="46.65061" lon="5.52128">
        <ele>354.62</ele>
        <time>2022-10-16T07:42:28Z</time>
      </trkpt>
      <trkpt lat="46.65049" lon="5.52128">
        <ele>355.43</ele>
        <time>2022-10-16T07:42:38Z</time>
      </trkpt>
      <trkpt lat="46.6503" lon="5.52132">
        <ele>355.42</ele>
        <time>2022-10-16T07:42:50Z</time>
      </trkpt>
      <trkpt lat="46.65014" lon="5.52138">
        <ele>355.45</ele>
        <time>2022-10-16T07:43:04Z</time>
      </trkpt>
      <trkpt lat="46.65001" lon="5.52157">
        <ele>355.51</ele>
        <time>2022-10-16T07:43:18Z</time>
      </trkpt>
      <trkpt lat="46.64975" lon="5.52178">
        <ele>356.43</ele>
        <time>2022-10-16T07:43:34Z</time>
      </trkpt>
      <trkpt lat="46.64974" lon="5.52179">
        <ele>356.42</ele>
        <time>2022-10-16T07:43:35Z</time>
      </trkpt>
      <trkpt lat="46.64964" lon="5.52184">
        <ele>357.16</ele>
        <time>2022-10-16T07:43:48Z</time>
      </trkpt>
      <trkpt lat="46.64939" lon="5.52196">
        <ele>357.14</ele>
        <time>2022-10-16T07:44:02Z</time>
      </trkpt>
      <trkpt lat="46.6493" lon="5.52195">
        <ele>357.19</ele>
        <time>2022-10-16T07:44:09Z</time>
      </trkpt>
      <trkpt lat="46.64929" lon="5.52194">
        <ele>357.18</ele>
        <time>2022-10-16T07:44:10Z</time>
      </trkpt>
      <trkpt lat="46.64927" lon="5.52193">
        <ele>357.18</ele>
        <time>2022-10-16T07:44:11Z</time>
      </trkpt>
      <trkpt lat="46.64906" lon="5.52191">
        <ele>357.24</ele>
        <time>2022-10-16T07:44:25Z</time>
      </trkpt>
      <trkpt lat="46.64883" lon="5.5219">
        <ele>358.01</ele>
        <time>2022-10-16T07:44:42Z</time>
      </trkpt>
      <trkpt lat="46.64858" lon="5.52189">
        <ele>358.08</ele>
        <time>2022-10-16T07:44:59Z</time>
      </trkpt>
      <trkpt lat="46.6485" lon="5.52189">
        <ele>358.04</ele>
        <time>2022-10-16T07:45:05Z</time>
      </trkpt>
      <trkpt lat="46.64849" lon="5.52189">
        <ele>358.04</ele>
        <time>2022-10-16T07:45:06Z</time>
      </trkpt>
      <trkpt lat="46.64824" lon="5.52189">
        <ele>358.07</ele>
        <time>2022-10-16T07:45:22Z</time>
      </trkpt>
      <trkpt lat="46.64822" lon="5.52188">
        <ele>357.99</ele>
        <time>2022-10-16T07:45:24Z</time>
      </trkpt>
      <trkpt lat="46.64821" lon="5.52187">
        <ele>357.99</ele>
        <time>2022-10-16T07:45:25Z</time>
      </trkpt>
      <trkpt lat="46.6482" lon="5.52187">
        <ele>358.04</ele>
        <time>2022-10-16T07:45:26Z</time>
      </trkpt>
      <trkpt lat="46.64818" lon="5.52187">
        <ele>358.09</ele>
        <time>2022-10-16T07:45:27Z</time>
      </trkpt>
      <trkpt lat="46.64816" lon="5.52188">
        <ele>358.09</ele>
        <time>2022-10-16T07:45:28Z</time>
      </trkpt>
      <trkpt lat="46.64815" lon="5.52188">
        <ele>358.92</ele>
        <time>2022-10-16T07:45:29Z</time>
      </trkpt>
      <trkpt lat="46.64813" lon="5.52188">
        <ele>359.74</ele>
        <time>2022-10-16T07:45:30Z</time>
      </trkpt>
      <trkpt lat="46.64811" lon="5.52188">
        <ele>359.76</ele>
        <time>2022-10-16T07:45:31Z</time>
      </trkpt>
      <trkpt lat="46.64801" lon="5.52189">
        <ele>359.71</ele>
        <time>2022-10-16T07:45:38Z</time>
      </trkpt>
      <trkpt lat="46.648" lon="5.52187">
        <ele>359.72</ele>
        <time>2022-10-16T07:45:39Z</time>
      </trkpt>
      <trkpt lat="46.64799" lon="5.52186">
        <ele>359.7</ele>
        <time>2022-10-16T07:45:40Z</time>
      </trkpt>
      <trkpt lat="46.64797" lon="5.52185">
        <ele>359.7</ele>
        <time>2022-10-16T07:45:42Z</time>
      </trkpt>
      <trkpt lat="46.64796" lon="5.52185">
        <ele>359.74</ele>
        <time>2022-10-16T07:45:43Z</time>
      </trkpt>
      <trkpt lat="46.64794" lon="5.52185">
        <ele>359.73</ele>
        <time>2022-10-16T07:45:44Z</time>
      </trkpt>
      <trkpt lat="46.64775" lon="5.52189">
        <ele>359.66</ele>
        <time>2022-10-16T07:45:57Z</time>
      </trkpt>
      <trkpt lat="46.64753" lon="5.5219">
        <ele>359.7</ele>
        <time>2022-10-16T07:46:12Z</time>
      </trkpt>
      <trkpt lat="46.64733" lon="5.52194">
        <ele>361.67</ele>
        <time>2022-10-16T07:46:25Z</time>
      </trkpt>
      <trkpt lat="46.64723" lon="5.52193">
        <ele>361.62</ele>
        <time>2022-10-16T07:46:33Z</time>
      </trkpt>
      <trkpt lat="46.64721" lon="5.52193">
        <ele>361.6</ele>
        <time>2022-10-16T07:46:34Z</time>
      </trkpt>
      <trkpt lat="46.6472" lon="5.52193">
        <ele>359.29</ele>
        <time>2022-10-16T07:46:35Z</time>
      </trkpt>
      <trkpt lat="46.64718" lon="5.52193">
        <ele>359.31</ele>
        <time>2022-10-16T07:46:36Z</time>
      </trkpt>
      <trkpt lat="46.64706" lon="5.52198">
        <ele>359.33</ele>
        <time>2022-10-16T07:46:45Z</time>
      </trkpt>
      <trkpt lat="46.64687" lon="5.52197">
        <ele>359.39</ele>
        <time>2022-10-16T07:46:58Z</time>
      </trkpt>
      <trkpt lat="46.64669" lon="5.52192">
        <ele>359.4</ele>
        <time>2022-10-16T07:47:11Z</time>
      </trkpt>
      <trkpt lat="46.64662" lon="5.52192">
        <ele>359.37</ele>
        <time>2022-10-16T07:47:16Z</time>
      </trkpt>
      <trkpt lat="46.6466" lon="5.52192">
        <ele>359.37</ele>
        <time>2022-10-16T07:47:17Z</time>
      </trkpt>
      <trkpt lat="46.64645" lon="5.52197">
        <ele>358.15</ele>
        <time>2022-10-16T07:47:28Z</time>
      </trkpt>
      <trkpt lat="46.64627" lon="5.522">
        <ele>357.24</ele>
        <time>2022-10-16T07:47:40Z</time>
      </trkpt>
      <trkpt lat="46.64606" lon="5.5221">
        <ele>356.35</ele>
        <time>2022-10-16T07:47:55Z</time>
      </trkpt>
      <trkpt lat="46.64588" lon="5.52212">
        <ele>356.33</ele>
        <time>2022-10-16T07:48:08Z</time>
      </trkpt>
      <trkpt lat="46.64563" lon="5.52216">
        <ele>356.22</ele>
        <time>2022-10-16T07:48:24Z</time>
      </trkpt>
      <trkpt lat="46.64556" lon="5.52217">
        <ele>356.19</ele>
        <time>2022-10-16T07:48:28Z</time>
      </trkpt>
      <trkpt lat="46.64554" lon="5.52217">
        <ele>356.18</ele>
        <time>2022-10-16T07:48:29Z</time>
      </trkpt>
      <trkpt lat="46.64546" lon="5.52218">
        <ele>356.19</ele>
        <time>2022-10-16T07:48:34Z</time>
      </trkpt>
      <trkpt lat="46.64545" lon="5.5222">
        <ele>358.63</ele>
        <time>2022-10-16T07:48:35Z</time>
      </trkpt>
      <trkpt lat="46.64544" lon="5.52221">
        <ele>358.62</ele>
        <time>2022-10-16T07:48:36Z</time>
      </trkpt>
      <trkpt lat="46.64542" lon="5.52222">
        <ele>358.61</ele>
        <time>2022-10-16T07:48:37Z</time>
      </trkpt>
      <trkpt lat="46.6454" lon="5.52223">
        <ele>358.6</ele>
        <time>2022-10-16T07:48:38Z</time>
      </trkpt>
      <trkpt lat="46.64538" lon="5.52224">
        <ele>358.6</ele>
        <time>2022-10-16T07:48:39Z</time>
      </trkpt>
      <trkpt lat="46.64536" lon="5.52226">
        <ele>358.59</ele>
        <time>2022-10-16T07:48:40Z</time>
      </trkpt>
      <trkpt lat="46.64535" lon="5.52226">
        <ele>358.57</ele>
        <time>2022-10-16T07:48:41Z</time>
      </trkpt>
      <trkpt lat="46.64533" lon="5.52227">
        <ele>358.54</ele>
        <time>2022-10-16T07:48:42Z</time>
      </trkpt>
      <trkpt lat="46.64517" lon="5.52237">
        <ele>358.43</ele>
        <time>2022-10-16T07:48:54Z</time>
      </trkpt>
      <trkpt lat="46.64514" lon="5.52239">
        <ele>358.45</ele>
        <time>2022-10-16T07:48:56Z</time>
      </trkpt>
      <trkpt lat="46.64513" lon="5.5224">
        <ele>358.46</ele>
        <time>2022-10-16T07:48:57Z</time>
      </trkpt>
      <trkpt lat="46.64511" lon="5.52241">
        <ele>358.46</ele>
        <time>2022-10-16T07:48:58Z</time>
      </trkpt>
      <trkpt lat="46.64509" lon="5.52242">
        <ele>358.46</ele>
        <time>2022-10-16T07:48:59Z</time>
      </trkpt>
      <trkpt lat="46.64508" lon="5.52243">
        <ele>358.46</ele>
        <time>2022-10-16T07:49:00Z</time>
      </trkpt>
      <trkpt lat="46.64507" lon="5.52244">
        <ele>358.45</ele>
        <time>2022-10-16T07:49:01Z</time>
      </trkpt>
      <trkpt lat="46.64505" lon="5.52244">
        <ele>358.45</ele>
        <time>2022-10-16T07:49:02Z</time>
      </trkpt>
      <trkpt lat="46.64504" lon="5.52245">
        <ele>358.45</ele>
        <time>2022-10-16T07:49:03Z</time>
      </trkpt>
      <trkpt lat="46.64503" lon="5.52245">
        <ele>358.44</ele>
        <time>2022-10-16T07:49:04Z</time>
      </trkpt>
      <trkpt lat="46.64501" lon="5.52246">
        <ele>358.44</ele>
        <time>2022-10-16T07:49:05Z</time>
      </trkpt>
      <trkpt lat="46.645" lon="5.52246">
        <ele>358.45</ele>
        <time>2022-10-16T07:49:06Z</time>
      </trkpt>
      <trkpt lat="46.64498" lon="5.52247">
        <ele>358.45</ele>
        <time>2022-10-16T07:49:07Z</time>
      </trkpt>
      <trkpt lat="46.64497" lon="5.52247">
        <ele>358.46</ele>
        <time>2022-10-16T07:49:08Z</time>
      </trkpt>
      <trkpt lat="46.64496" lon="5.52248">
        <ele>358.49</ele>
        <time>2022-10-16T07:49:09Z</time>
      </trkpt>
      <trkpt lat="46.64495" lon="5.52249">
        <ele>358.5</ele>
        <time>2022-10-16T07:49:10Z</time>
      </trkpt>
      <trkpt lat="46.64494" lon="5.52249">
        <ele>358.5</ele>
        <time>2022-10-16T07:49:11Z</time>
      </trkpt>
      <trkpt lat="46.64492" lon="5.5225">
        <ele>358.49</ele>
        <time>2022-10-16T07:49:12Z</time>
      </trkpt>
      <trkpt lat="46.64491" lon="5.52251">
        <ele>358.5</ele>
        <time>2022-10-16T07:49:13Z</time>
      </trkpt>
      <trkpt lat="46.6449" lon="5.52251">
        <ele>358.49</ele>
        <time>2022-10-16T07:49:14Z</time>
      </trkpt>
      <trkpt lat="46.64473" lon="5.52258">
        <ele>361.37</ele>
        <time>2022-10-16T07:49:26Z</time>
      </trkpt>
      <trkpt lat="46.64472" lon="5.52258">
        <ele>361.36</ele>
        <time>2022-10-16T07:49:27Z</time>
      </trkpt>
      <trkpt lat="46.64454" lon="5.52261">
        <ele>362.08</ele>
        <time>2022-10-16T07:49:42Z</time>
      </trkpt>
      <trkpt lat="46.64436" lon="5.52267">
        <ele>363.12</ele>
        <time>2022-10-16T07:49:57Z</time>
      </trkpt>
      <trkpt lat="46.64415" lon="5.52276">
        <ele>363.84</ele>
        <time>2022-10-16T07:50:14Z</time>
      </trkpt>
      <trkpt lat="46.64396" lon="5.52275">
        <ele>363.85</ele>
        <time>2022-10-16T07:50:27Z</time>
      </trkpt>
      <trkpt lat="46.64373" lon="5.52275">
        <ele>363.84</ele>
        <time>2022-10-16T07:50:41Z</time>
      </trkpt>
      <trkpt lat="46.6435" lon="5.5228">
        <ele>363.8</ele>
        <time>2022-10-16T07:50:56Z</time>
      </trkpt>
      <trkpt lat="46.64344" lon="5.52281">
        <ele>363.82</ele>
        <time>2022-10-16T07:51:01Z</time>
      </trkpt>
      <trkpt lat="46.64326" lon="5.52286">
        <ele>363.83</ele>
        <time>2022-10-16T07:51:14Z</time>
      </trkpt>
      <trkpt lat="46.6431" lon="5.52292">
        <ele>363.82</ele>
        <time>2022-10-16T07:51:27Z</time>
      </trkpt>
      <trkpt lat="46.64292" lon="5.52295">
        <ele>363.93</ele>
        <time>2022-10-16T07:51:40Z</time>
      </trkpt>
      <trkpt lat="46.64282" lon="5.52298">
        <ele>364.74</ele>
        <time>2022-10-16T07:51:47Z</time>
      </trkpt>
      <trkpt lat="46.64281" lon="5.52299">
        <ele>364.73</ele>
        <time>2022-10-16T07:51:48Z</time>
      </trkpt>
      <trkpt lat="46.64279" lon="5.52299">
        <ele>364.71</ele>
        <time>2022-10-16T07:51:49Z</time>
      </trkpt>
      <trkpt lat="46.64272" lon="5.52302">
        <ele>364.71</ele>
        <time>2022-10-16T07:51:54Z</time>
      </trkpt>
      <trkpt lat="46.64271" lon="5.52302">
        <ele>364.71</ele>
        <time>2022-10-16T07:51:55Z</time>
      </trkpt>
      <trkpt lat="46.64253" lon="5.52309">
        <ele>366.59</ele>
        <time>2022-10-16T07:52:10Z</time>
      </trkpt>
      <trkpt lat="46.64248" lon="5.52309">
        <ele>366.6</ele>
        <time>2022-10-16T07:52:14Z</time>
      </trkpt>
      <trkpt lat="46.6423" lon="5.52308">
        <ele>369.93</ele>
        <time>2022-10-16T07:52:28Z</time>
      </trkpt>
      <trkpt lat="46.6421" lon="5.52308">
        <ele>371.51</ele>
        <time>2022-10-16T07:52:48Z</time>
      </trkpt>
      <trkpt lat="46.64187" lon="5.52293">
        <ele>373.27</ele>
        <time>2022-10-16T07:53:05Z</time>
      </trkpt>
      <trkpt lat="46.64186" lon="5.52292">
        <ele>373.25</ele>
        <time>2022-10-16T07:53:06Z</time>
      </trkpt>
      <trkpt lat="46.64185" lon="5.52292">
        <ele>373.26</ele>
        <time>2022-10-16T07:53:07Z</time>
      </trkpt>
      <trkpt lat="46.64183" lon="5.52291">
        <ele>373.25</ele>
        <time>2022-10-16T07:53:08Z</time>
      </trkpt>
      <trkpt lat="46.64175" lon="5.52289">
        <ele>374.07</ele>
        <time>2022-10-16T07:53:15Z</time>
      </trkpt>
      <trkpt lat="46.64173" lon="5.52289">
        <ele>374.06</ele>
        <time>2022-10-16T07:53:17Z</time>
      </trkpt>
      <trkpt lat="46.64171" lon="5.52288">
        <ele>375.01</ele>
        <time>2022-10-16T07:53:18Z</time>
      </trkpt>
      <trkpt lat="46.6417" lon="5.52287">
        <ele>375</ele>
        <time>2022-10-16T07:53:19Z</time>
      </trkpt>
      <trkpt lat="46.64169" lon="5.52286">
        <ele>375.01</ele>
        <time>2022-10-16T07:53:20Z</time>
      </trkpt>
      <trkpt lat="46.64167" lon="5.52286">
        <ele>375.94</ele>
        <time>2022-10-16T07:53:21Z</time>
      </trkpt>
      <trkpt lat="46.64153" lon="5.52279">
        <ele>378.3</ele>
        <time>2022-10-16T07:53:35Z</time>
      </trkpt>
      <trkpt lat="46.64139" lon="5.52274">
        <ele>379.12</ele>
        <time>2022-10-16T07:53:47Z</time>
      </trkpt>
      <trkpt lat="46.6413" lon="5.52278">
        <ele>380.7</ele>
        <time>2022-10-16T07:54:01Z</time>
      </trkpt>
      <trkpt lat="46.64108" lon="5.52266">
        <ele>383.24</ele>
        <time>2022-10-16T07:54:19Z</time>
      </trkpt>
      <trkpt lat="46.64083" lon="5.52258">
        <ele>385.76</ele>
        <time>2022-10-16T07:54:41Z</time>
      </trkpt>
      <trkpt lat="46.64061" lon="5.52241">
        <ele>387.31</ele>
        <time>2022-10-16T07:54:59Z</time>
      </trkpt>
      <trkpt lat="46.64035" lon="5.52229">
        <ele>389.78</ele>
        <time>2022-10-16T07:55:21Z</time>
      </trkpt>
      <trkpt lat="46.64019" lon="5.5222">
        <ele>392.23</ele>
        <time>2022-10-16T07:55:36Z</time>
      </trkpt>
      <trkpt lat="46.63998" lon="5.52208">
        <ele>394.61</ele>
        <time>2022-10-16T07:55:53Z</time>
      </trkpt>
      <trkpt lat="46.6398" lon="5.52196">
        <ele>396.23</ele>
        <time>2022-10-16T07:56:10Z</time>
      </trkpt>
      <trkpt lat="46.63964" lon="5.52188">
        <ele>397.29</ele>
        <time>2022-10-16T07:56:23Z</time>
      </trkpt>
      <trkpt lat="46.63948" lon="5.52184">
        <ele>399.91</ele>
        <time>2022-10-16T07:56:40Z</time>
      </trkpt>
      <trkpt lat="46.63925" lon="5.52178">
        <ele>402.32</ele>
        <time>2022-10-16T07:56:57Z</time>
      </trkpt>
      <trkpt lat="46.63912" lon="5.52175">
        <ele>403.77</ele>
        <time>2022-10-16T07:57:08Z</time>
      </trkpt>
      <trkpt lat="46.63889" lon="5.52168">
        <ele>406.44</ele>
        <time>2022-10-16T07:57:27Z</time>
      </trkpt>
      <trkpt lat="46.63867" lon="5.52167">
        <ele>407.78</ele>
        <time>2022-10-16T07:57:46Z</time>
      </trkpt>
      <trkpt lat="46.63858" lon="5.52166">
        <ele>408.67</ele>
        <time>2022-10-16T07:57:54Z</time>
      </trkpt>
      <trkpt lat="46.63845" lon="5.52166">
        <ele>411.56</ele>
        <time>2022-10-16T07:58:06Z</time>
      </trkpt>
      <trkpt lat="46.63823" lon="5.52168">
        <ele>414.62</ele>
        <time>2022-10-16T07:58:26Z</time>
      </trkpt>
      <trkpt lat="46.63816" lon="5.52176">
        <ele>415.29</ele>
        <time>2022-10-16T07:58:34Z</time>
      </trkpt>
      <trkpt lat="46.63806" lon="5.52191">
        <ele>418.67</ele>
        <time>2022-10-16T07:58:49Z</time>
      </trkpt>
      <trkpt lat="46.63809" lon="5.5221">
        <ele>421.51</ele>
        <time>2022-10-16T07:59:08Z</time>
      </trkpt>
      <trkpt lat="46.63812" lon="5.5222">
        <ele>423.06</ele>
        <time>2022-10-16T07:59:16Z</time>
      </trkpt>
      <trkpt lat="46.6382" lon="5.52241">
        <ele>424.55</ele>
        <time>2022-10-16T07:59:35Z</time>
      </trkpt>
      <trkpt lat="46.6383" lon="5.52249">
        <ele>427.38</ele>
        <time>2022-10-16T07:59:45Z</time>
      </trkpt>
      <trkpt lat="46.63834" lon="5.52251">
        <ele>427.34</ele>
        <time>2022-10-16T07:59:48Z</time>
      </trkpt>
      <trkpt lat="46.63835" lon="5.52251">
        <ele>427.32</ele>
        <time>2022-10-16T07:59:49Z</time>
      </trkpt>
      <trkpt lat="46.63837" lon="5.52251">
        <ele>427.31</ele>
        <time>2022-10-16T07:59:50Z</time>
      </trkpt>
      <trkpt lat="46.6385" lon="5.52262">
        <ele>428.99</ele>
        <time>2022-10-16T08:00:06Z</time>
      </trkpt>
      <trkpt lat="46.63855" lon="5.52265">
        <ele>428.67</ele>
        <time>2022-10-16T08:00:38Z</time>
      </trkpt>
      <trkpt lat="46.63855" lon="5.52266">
        <ele>428.55</ele>
        <time>2022-10-16T08:01:08Z</time>
      </trkpt>
      <trkpt lat="46.63855" lon="5.52267">
        <ele>428.46</ele>
        <time>2022-10-16T08:01:39Z</time>
      </trkpt>
      <trkpt lat="46.63854" lon="5.52267">
        <ele>428.41</ele>
        <time>2022-10-16T08:02:05Z</time>
      </trkpt>
      <trkpt lat="46.63854" lon="5.52267">
        <ele>426.11</ele>
        <time>2022-10-16T08:02:25Z</time>
      </trkpt>
      <trkpt lat="46.63854" lon="5.52268">
        <ele>426.07</ele>
        <time>2022-10-16T08:03:03Z</time>
      </trkpt>
      <trkpt lat="46.63861" lon="5.52277">
        <ele>428.4</ele>
        <time>2022-10-16T08:03:18Z</time>
      </trkpt>
      <trkpt lat="46.63862" lon="5.52278">
        <ele>428.4</ele>
        <time>2022-10-16T08:03:19Z</time>
      </trkpt>
      <trkpt lat="46.63863" lon="5.52279">
        <ele>428.39</ele>
        <time>2022-10-16T08:03:20Z</time>
      </trkpt>
      <trkpt lat="46.6387" lon="5.52295">
        <ele>431.61</ele>
        <time>2022-10-16T08:03:32Z</time>
      </trkpt>
      <trkpt lat="46.63872" lon="5.52298">
        <ele>431.58</ele>
        <time>2022-10-16T08:03:34Z</time>
      </trkpt>
      <trkpt lat="46.63874" lon="5.523">
        <ele>431.59</ele>
        <time>2022-10-16T08:03:35Z</time>
      </trkpt>
      <trkpt lat="46.63875" lon="5.52301">
        <ele>431.59</ele>
        <time>2022-10-16T08:03:36Z</time>
      </trkpt>
      <trkpt lat="46.63876" lon="5.52303">
        <ele>431.58</ele>
        <time>2022-10-16T08:03:37Z</time>
      </trkpt>
      <trkpt lat="46.63885" lon="5.52318">
        <ele>433.11</ele>
        <time>2022-10-16T08:03:49Z</time>
      </trkpt>
      <trkpt lat="46.63896" lon="5.52338">
        <ele>435.96</ele>
        <time>2022-10-16T08:04:05Z</time>
      </trkpt>
      <trkpt lat="46.63904" lon="5.52356">
        <ele>439.53</ele>
        <time>2022-10-16T08:04:18Z</time>
      </trkpt>
      <trkpt lat="46.63904" lon="5.52357">
        <ele>439.5</ele>
        <time>2022-10-16T08:04:19Z</time>
      </trkpt>
      <trkpt lat="46.63906" lon="5.52363">
        <ele>437.07</ele>
        <time>2022-10-16T08:04:23Z</time>
      </trkpt>
      <trkpt lat="46.63915" lon="5.52381">
        <ele>424.53</ele>
        <time>2022-10-16T08:04:36Z</time>
      </trkpt>
      <trkpt lat="46.63915" lon="5.52382">
        <ele>441.76</ele>
        <time>2022-10-16T08:04:37Z</time>
      </trkpt>
      <trkpt lat="46.63915" lon="5.52383">
        <ele>441.76</ele>
        <time>2022-10-16T08:04:38Z</time>
      </trkpt>
      <trkpt lat="46.63918" lon="5.52407">
        <ele>442.45</ele>
        <time>2022-10-16T08:04:59Z</time>
      </trkpt>
      <trkpt lat="46.6391" lon="5.5242">
        <ele>445.96</ele>
        <time>2022-10-16T08:05:16Z</time>
      </trkpt>
      <trkpt lat="46.63909" lon="5.5242">
        <ele>445.94</ele>
        <time>2022-10-16T08:05:17Z</time>
      </trkpt>
      <trkpt lat="46.63908" lon="5.52426">
        <ele>443.27</ele>
        <time>2022-10-16T08:05:21Z</time>
      </trkpt>
      <trkpt lat="46.63909" lon="5.52429">
        <ele>443.3</ele>
        <time>2022-10-16T08:05:22Z</time>
      </trkpt>
      <trkpt lat="46.63908" lon="5.52431">
        <ele>446.37</ele>
        <time>2022-10-16T08:05:23Z</time>
      </trkpt>
      <trkpt lat="46.63907" lon="5.52432">
        <ele>446.35</ele>
        <time>2022-10-16T08:05:24Z</time>
      </trkpt>
      <trkpt lat="46.63903" lon="5.52457">
        <ele>446.42</ele>
        <time>2022-10-16T08:05:38Z</time>
      </trkpt>
      <trkpt lat="46.63893" lon="5.52471">
        <ele>447.18</ele>
        <time>2022-10-16T08:05:52Z</time>
      </trkpt>
      <trkpt lat="46.63892" lon="5.52471">
        <ele>447.17</ele>
        <time>2022-10-16T08:05:53Z</time>
      </trkpt>
      <trkpt lat="46.63887" lon="5.52476">
        <ele>447.05</ele>
        <time>2022-10-16T08:05:59Z</time>
      </trkpt>
      <trkpt lat="46.63886" lon="5.52484">
        <ele>446.97</ele>
        <time>2022-10-16T08:06:04Z</time>
      </trkpt>
      <trkpt lat="46.63889" lon="5.5249">
        <ele>446.89</ele>
        <time>2022-10-16T08:06:10Z</time>
      </trkpt>
      <trkpt lat="46.63895" lon="5.52493">
        <ele>446.72</ele>
        <time>2022-10-16T08:06:21Z</time>
      </trkpt>
      <trkpt lat="46.63901" lon="5.52495">
        <ele>446.6</ele>
        <time>2022-10-16T08:06:29Z</time>
      </trkpt>
      <trkpt lat="46.63903" lon="5.52497">
        <ele>446.49</ele>
        <time>2022-10-16T08:06:35Z</time>
      </trkpt>
      <trkpt lat="46.63902" lon="5.52496">
        <ele>446.48</ele>
        <time>2022-10-16T08:06:36Z</time>
      </trkpt>
      <trkpt lat="46.63904" lon="5.52499">
        <ele>446.44</ele>
        <time>2022-10-16T08:06:38Z</time>
      </trkpt>
      <trkpt lat="46.63893" lon="5.52519">
        <ele>446.46</ele>
        <time>2022-10-16T08:07:36Z</time>
      </trkpt>
      <trkpt lat="46.63896" lon="5.52521">
        <ele>446.49</ele>
        <time>2022-10-16T08:07:37Z</time>
      </trkpt>
      <trkpt lat="46.63906" lon="5.52501">
        <ele>444.1</ele>
        <time>2022-10-16T08:07:46Z</time>
      </trkpt>
      <trkpt lat="46.63908" lon="5.5249">
        <ele>444.08</ele>
        <time>2022-10-16T08:07:53Z</time>
      </trkpt>
      <trkpt lat="46.63898" lon="5.52496">
        <ele>444.01</ele>
        <time>2022-10-16T08:08:09Z</time>
      </trkpt>
      <trkpt lat="46.63894" lon="5.52511">
        <ele>446.66</ele>
        <time>2022-10-16T08:08:18Z</time>
      </trkpt>
      <trkpt lat="46.63893" lon="5.52525">
        <ele>448.42</ele>
        <time>2022-10-16T08:08:28Z</time>
      </trkpt>
      <trkpt lat="46.63893" lon="5.52527">
        <ele>448.43</ele>
        <time>2022-10-16T08:08:29Z</time>
      </trkpt>
      <trkpt lat="46.63893" lon="5.5253">
        <ele>448.44</ele>
        <time>2022-10-16T08:08:30Z</time>
      </trkpt>
      <trkpt lat="46.63893" lon="5.52533">
        <ele>448.42</ele>
        <time>2022-10-16T08:08:31Z</time>
      </trkpt>
      <trkpt lat="46.63893" lon="5.52535">
        <ele>448.41</ele>
        <time>2022-10-16T08:08:32Z</time>
      </trkpt>
      <trkpt lat="46.63898" lon="5.52557">
        <ele>448.33</ele>
        <time>2022-10-16T08:08:43Z</time>
      </trkpt>
      <trkpt lat="46.63899" lon="5.52558">
        <ele>448.34</ele>
        <time>2022-10-16T08:08:44Z</time>
      </trkpt>
      <trkpt lat="46.63908" lon="5.52585">
        <ele>449.22</ele>
        <time>2022-10-16T08:09:00Z</time>
      </trkpt>
      <trkpt lat="46.63909" lon="5.52591">
        <ele>449.21</ele>
        <time>2022-10-16T08:09:04Z</time>
      </trkpt>
      <trkpt lat="46.63922" lon="5.52605">
        <ele>449.04</ele>
        <time>2022-10-16T08:09:19Z</time>
      </trkpt>
      <trkpt lat="46.6394" lon="5.5263">
        <ele>450.31</ele>
        <time>2022-10-16T08:09:40Z</time>
      </trkpt>
      <trkpt lat="46.63966" lon="5.52659">
        <ele>451.76</ele>
        <time>2022-10-16T08:10:05Z</time>
      </trkpt>
      <trkpt lat="46.63977" lon="5.52674">
        <ele>451.5</ele>
        <time>2022-10-16T08:10:18Z</time>
      </trkpt>
      <trkpt lat="46.63981" lon="5.52677">
        <ele>451.43</ele>
        <time>2022-10-16T08:10:22Z</time>
      </trkpt>
      <trkpt lat="46.63989" lon="5.52679">
        <ele>451.05</ele>
        <time>2022-10-16T08:10:52Z</time>
      </trkpt>
      <trkpt lat="46.63992" lon="5.52677">
        <ele>450.82</ele>
        <time>2022-10-16T08:11:23Z</time>
      </trkpt>
      <trkpt lat="46.63994" lon="5.52679">
        <ele>450.65</ele>
        <time>2022-10-16T08:11:54Z</time>
      </trkpt>
      <trkpt lat="46.63994" lon="5.52678">
        <ele>447.89</ele>
        <time>2022-10-16T08:11:57Z</time>
      </trkpt>
      <trkpt lat="46.6399" lon="5.52677">
        <ele>447.81</ele>
        <time>2022-10-16T08:12:22Z</time>
      </trkpt>
      <trkpt lat="46.63986" lon="5.52689">
        <ele>447.8</ele>
        <time>2022-10-16T08:12:43Z</time>
      </trkpt>
      <trkpt lat="46.63986" lon="5.52693">
        <ele>446.28</ele>
        <time>2022-10-16T08:12:51Z</time>
      </trkpt>
      <trkpt lat="46.63987" lon="5.52695">
        <ele>444.9</ele>
        <time>2022-10-16T08:12:58Z</time>
      </trkpt>
      <trkpt lat="46.63981" lon="5.52698">
        <ele>444.07</ele>
        <time>2022-10-16T08:13:19Z</time>
      </trkpt>
      <trkpt lat="46.63975" lon="5.52696">
        <ele>446.82</ele>
        <time>2022-10-16T08:13:31Z</time>
      </trkpt>
      <trkpt lat="46.63967" lon="5.52697">
        <ele>445.15</ele>
        <time>2022-10-16T08:13:40Z</time>
      </trkpt>
      <trkpt lat="46.63958" lon="5.52702">
        <ele>445.16</ele>
        <time>2022-10-16T08:14:00Z</time>
      </trkpt>
      <trkpt lat="46.63947" lon="5.52701">
        <ele>445.14</ele>
        <time>2022-10-16T08:14:24Z</time>
      </trkpt>
      <trkpt lat="46.63945" lon="5.527">
        <ele>447.3</ele>
        <time>2022-10-16T08:14:33Z</time>
      </trkpt>
      <trkpt lat="46.63946" lon="5.52697">
        <ele>447.28</ele>
        <time>2022-10-16T08:15:01Z</time>
      </trkpt>
      <trkpt lat="46.63941" lon="5.52698">
        <ele>447.12</ele>
        <time>2022-10-16T08:15:29Z</time>
      </trkpt>
      <trkpt lat="46.63939" lon="5.52698">
        <ele>447.04</ele>
        <time>2022-10-16T08:15:31Z</time>
      </trkpt>
      <trkpt lat="46.63921" lon="5.52697">
        <ele>447.07</ele>
        <time>2022-10-16T08:15:56Z</time>
      </trkpt>
      <trkpt lat="46.63905" lon="5.52695">
        <ele>448.58</ele>
        <time>2022-10-16T08:16:18Z</time>
      </trkpt>
      <trkpt lat="46.6388" lon="5.52701">
        <ele>449.2</ele>
        <time>2022-10-16T08:16:44Z</time>
      </trkpt>
      <trkpt lat="46.63861" lon="5.52715">
        <ele>449.8</ele>
        <time>2022-10-16T08:17:06Z</time>
      </trkpt>
      <trkpt lat="46.63839" lon="5.52734">
        <ele>451.13</ele>
        <time>2022-10-16T08:17:32Z</time>
      </trkpt>
      <trkpt lat="46.63839" lon="5.52735">
        <ele>451.12</ele>
        <time>2022-10-16T08:17:33Z</time>
      </trkpt>
      <trkpt lat="46.63823" lon="5.5275">
        <ele>450.65</ele>
        <time>2022-10-16T08:17:55Z</time>
      </trkpt>
      <trkpt lat="46.63813" lon="5.52759">
        <ele>450.67</ele>
        <time>2022-10-16T08:18:05Z</time>
      </trkpt>
      <trkpt lat="46.6379" lon="5.52771">
        <ele>450.52</ele>
        <time>2022-10-16T08:18:27Z</time>
      </trkpt>
      <trkpt lat="46.63772" lon="5.52777">
        <ele>450.41</ele>
        <time>2022-10-16T08:18:43Z</time>
      </trkpt>
      <trkpt lat="46.6375" lon="5.52788">
        <ele>450.44</ele>
        <time>2022-10-16T08:19:01Z</time>
      </trkpt>
      <trkpt lat="46.63745" lon="5.52791">
        <ele>450.44</ele>
        <time>2022-10-16T08:19:05Z</time>
      </trkpt>
      <trkpt lat="46.63744" lon="5.52791">
        <ele>450.41</ele>
        <time>2022-10-16T08:19:06Z</time>
      </trkpt>
      <trkpt lat="46.63743" lon="5.52791">
        <ele>450.43</ele>
        <time>2022-10-16T08:19:07Z</time>
      </trkpt>
      <trkpt lat="46.63735" lon="5.52791">
        <ele>447.86</ele>
        <time>2022-10-16T08:19:13Z</time>
      </trkpt>
      <trkpt lat="46.63723" lon="5.52792">
        <ele>447.59</ele>
        <time>2022-10-16T08:19:22Z</time>
      </trkpt>
      <trkpt lat="46.63722" lon="5.52792">
        <ele>447.55</ele>
        <time>2022-10-16T08:19:23Z</time>
      </trkpt>
      <trkpt lat="46.637" lon="5.52795">
        <ele>447.41</ele>
        <time>2022-10-16T08:19:39Z</time>
      </trkpt>
      <trkpt lat="46.63694" lon="5.52796">
        <ele>447.45</ele>
        <time>2022-10-16T08:19:43Z</time>
      </trkpt>
      <trkpt lat="46.63693" lon="5.52797">
        <ele>447.44</ele>
        <time>2022-10-16T08:19:44Z</time>
      </trkpt>
      <trkpt lat="46.63666" lon="5.52797">
        <ele>446.45</ele>
        <time>2022-10-16T08:20:00Z</time>
      </trkpt>
      <trkpt lat="46.63645" lon="5.52794">
        <ele>444.81</ele>
        <time>2022-10-16T08:20:11Z</time>
      </trkpt>
      <trkpt lat="46.63617" lon="5.52787">
        <ele>444.89</ele>
        <time>2022-10-16T08:20:28Z</time>
      </trkpt>
      <trkpt lat="46.63597" lon="5.52787">
        <ele>444.91</ele>
        <time>2022-10-16T08:20:40Z</time>
      </trkpt>
      <trkpt lat="46.6357" lon="5.52782">
        <ele>444.92</ele>
        <time>2022-10-16T08:20:57Z</time>
      </trkpt>
      <trkpt lat="46.63545" lon="5.52779">
        <ele>444.87</ele>
        <time>2022-10-16T08:21:12Z</time>
      </trkpt>
      <trkpt lat="46.63518" lon="5.52777">
        <ele>443.85</ele>
        <time>2022-10-16T08:21:29Z</time>
      </trkpt>
      <trkpt lat="46.63498" lon="5.52775">
        <ele>443.97</ele>
        <time>2022-10-16T08:21:43Z</time>
      </trkpt>
      <trkpt lat="46.63491" lon="5.52775">
        <ele>443.88</ele>
        <time>2022-10-16T08:21:48Z</time>
      </trkpt>
      <trkpt lat="46.63489" lon="5.52774">
        <ele>443.88</ele>
        <time>2022-10-16T08:21:49Z</time>
      </trkpt>
      <trkpt lat="46.63488" lon="5.52774">
        <ele>443.9</ele>
        <time>2022-10-16T08:21:50Z</time>
      </trkpt>
      <trkpt lat="46.63486" lon="5.52775">
        <ele>443.94</ele>
        <time>2022-10-16T08:21:51Z</time>
      </trkpt>
      <trkpt lat="46.63485" lon="5.52775">
        <ele>443.9</ele>
        <time>2022-10-16T08:21:52Z</time>
      </trkpt>
      <trkpt lat="46.63483" lon="5.52775">
        <ele>443.9</ele>
        <time>2022-10-16T08:21:53Z</time>
      </trkpt>
      <trkpt lat="46.6347" lon="5.52775">
        <ele>442.8</ele>
        <time>2022-10-16T08:22:03Z</time>
      </trkpt>
      <trkpt lat="46.63469" lon="5.52775">
        <ele>442.8</ele>
        <time>2022-10-16T08:22:04Z</time>
      </trkpt>
      <trkpt lat="46.63468" lon="5.52775">
        <ele>442.85</ele>
        <time>2022-10-16T08:22:05Z</time>
      </trkpt>
      <trkpt lat="46.6345" lon="5.52773">
        <ele>444.35</ele>
        <time>2022-10-16T08:22:16Z</time>
      </trkpt>
      <trkpt lat="46.63433" lon="5.52767">
        <ele>442.05</ele>
        <time>2022-10-16T08:22:27Z</time>
      </trkpt>
      <trkpt lat="46.63412" lon="5.52766">
        <ele>441.27</ele>
        <time>2022-10-16T08:22:42Z</time>
      </trkpt>
      <trkpt lat="46.63391" lon="5.52786">
        <ele>440.33</ele>
        <time>2022-10-16T08:22:57Z</time>
      </trkpt>
      <trkpt lat="46.63374" lon="5.52812">
        <ele>440.27</ele>
        <time>2022-10-16T08:23:13Z</time>
      </trkpt>
      <trkpt lat="46.63356" lon="5.52828">
        <ele>438.26</ele>
        <time>2022-10-16T08:23:28Z</time>
      </trkpt>
      <trkpt lat="46.63335" lon="5.52839">
        <ele>436.2</ele>
        <time>2022-10-16T08:23:44Z</time>
      </trkpt>
      <trkpt lat="46.6332" lon="5.52842">
        <ele>432.98</ele>
        <time>2022-10-16T08:23:54Z</time>
      </trkpt>
      <trkpt lat="46.63319" lon="5.52843">
        <ele>432.95</ele>
        <time>2022-10-16T08:23:55Z</time>
      </trkpt>
      <trkpt lat="46.6329" lon="5.52843">
        <ele>431.16</ele>
        <time>2022-10-16T08:24:13Z</time>
      </trkpt>
      <trkpt lat="46.63264" lon="5.52843">
        <ele>431.06</ele>
        <time>2022-10-16T08:24:29Z</time>
      </trkpt>
      <trkpt lat="46.63236" lon="5.52846">
        <ele>427.98</ele>
        <time>2022-10-16T08:24:46Z</time>
      </trkpt>
      <trkpt lat="46.63207" lon="5.52848">
        <ele>426.85</ele>
        <time>2022-10-16T08:25:04Z</time>
      </trkpt>
      <trkpt lat="46.63183" lon="5.52855">
        <ele>426.79</ele>
        <time>2022-10-16T08:25:20Z</time>
      </trkpt>
      <trkpt lat="46.63164" lon="5.52858">
        <ele>426.85</ele>
        <time>2022-10-16T08:25:33Z</time>
      </trkpt>
      <trkpt lat="46.63143" lon="5.52863">
        <ele>426.85</ele>
        <time>2022-10-16T08:25:48Z</time>
      </trkpt>
      <trkpt lat="46.63123" lon="5.52878">
        <ele>426.62</ele>
        <time>2022-10-16T08:26:03Z</time>
      </trkpt>
      <trkpt lat="46.63109" lon="5.52891">
        <ele>430.11</ele>
        <time>2022-10-16T08:26:14Z</time>
      </trkpt>
      <trkpt lat="46.63108" lon="5.52893">
        <ele>430.12</ele>
        <time>2022-10-16T08:26:15Z</time>
      </trkpt>
      <trkpt lat="46.63103" lon="5.52902">
        <ele>427.61</ele>
        <time>2022-10-16T08:26:19Z</time>
      </trkpt>
      <trkpt lat="46.63086" lon="5.52922">
        <ele>425.08</ele>
        <time>2022-10-16T08:26:32Z</time>
      </trkpt>
      <trkpt lat="46.63064" lon="5.52946">
        <ele>425.17</ele>
        <time>2022-10-16T08:26:51Z</time>
      </trkpt>
      <trkpt lat="46.63056" lon="5.52955">
        <ele>420.18</ele>
        <time>2022-10-16T08:26:58Z</time>
      </trkpt>
      <trkpt lat="46.63055" lon="5.52956">
        <ele>429.14</ele>
        <time>2022-10-16T08:26:59Z</time>
      </trkpt>
      <trkpt lat="46.63054" lon="5.52957">
        <ele>429.17</ele>
        <time>2022-10-16T08:27:00Z</time>
      </trkpt>
      <trkpt lat="46.63025" lon="5.52975">
        <ele>423.22</ele>
        <time>2022-10-16T08:27:22Z</time>
      </trkpt>
      <trkpt lat="46.63023" lon="5.52975">
        <ele>428.6</ele>
        <time>2022-10-16T08:27:23Z</time>
      </trkpt>
      <trkpt lat="46.6302" lon="5.52976">
        <ele>430.98</ele>
        <time>2022-10-16T08:27:25Z</time>
      </trkpt>
      <trkpt lat="46.63018" lon="5.52977">
        <ele>428.57</ele>
        <time>2022-10-16T08:27:27Z</time>
      </trkpt>
      <trkpt lat="46.62983" lon="5.52981">
        <ele>426.85</ele>
        <time>2022-10-16T08:27:50Z</time>
      </trkpt>
      <trkpt lat="46.62947" lon="5.52964">
        <ele>425.53</ele>
        <time>2022-10-16T08:28:16Z</time>
      </trkpt>
      <trkpt lat="46.62932" lon="5.52947">
        <ele>423.38</ele>
        <time>2022-10-16T08:28:29Z</time>
      </trkpt>
      <trkpt lat="46.62906" lon="5.52917">
        <ele>423.54</ele>
        <time>2022-10-16T08:28:51Z</time>
      </trkpt>
      <trkpt lat="46.629" lon="5.52912">
        <ele>422.19</ele>
        <time>2022-10-16T08:28:56Z</time>
      </trkpt>
      <trkpt lat="46.62879" lon="5.529">
        <ele>424.6</ele>
        <time>2022-10-16T08:29:12Z</time>
      </trkpt>
      <trkpt lat="46.62865" lon="5.52895">
        <ele>421.31</ele>
        <time>2022-10-16T08:29:22Z</time>
      </trkpt>
      <trkpt lat="46.62862" lon="5.52894">
        <ele>420.57</ele>
        <time>2022-10-16T08:29:24Z</time>
      </trkpt>
      <trkpt lat="46.62857" lon="5.52892">
        <ele>425.9</ele>
        <time>2022-10-16T08:29:28Z</time>
      </trkpt>
      <trkpt lat="46.62856" lon="5.52892">
        <ele>425.89</ele>
        <time>2022-10-16T08:29:29Z</time>
      </trkpt>
      <trkpt lat="46.62852" lon="5.5289">
        <ele>423.35</ele>
        <time>2022-10-16T08:29:32Z</time>
      </trkpt>
      <trkpt lat="46.62838" lon="5.5289">
        <ele>422.48</ele>
        <time>2022-10-16T08:29:44Z</time>
      </trkpt>
      <trkpt lat="46.62818" lon="5.52894">
        <ele>422.74</ele>
        <time>2022-10-16T08:29:58Z</time>
      </trkpt>
      <trkpt lat="46.62795" lon="5.52897">
        <ele>422.71</ele>
        <time>2022-10-16T08:30:15Z</time>
      </trkpt>
      <trkpt lat="46.6279" lon="5.52897">
        <ele>421.87</ele>
        <time>2022-10-16T08:30:19Z</time>
      </trkpt>
      <trkpt lat="46.62789" lon="5.52897">
        <ele>421.9</ele>
        <time>2022-10-16T08:30:20Z</time>
      </trkpt>
      <trkpt lat="46.62787" lon="5.52897">
        <ele>421.87</ele>
        <time>2022-10-16T08:30:21Z</time>
      </trkpt>
      <trkpt lat="46.62786" lon="5.52897">
        <ele>421.92</ele>
        <time>2022-10-16T08:30:22Z</time>
      </trkpt>
      <trkpt lat="46.62785" lon="5.52897">
        <ele>421.92</ele>
        <time>2022-10-16T08:30:23Z</time>
      </trkpt>
      <trkpt lat="46.62774" lon="5.52895">
        <ele>420.72</ele>
        <time>2022-10-16T08:30:32Z</time>
      </trkpt>
      <trkpt lat="46.62765" lon="5.52892">
        <ele>423.22</ele>
        <time>2022-10-16T08:30:42Z</time>
      </trkpt>
      <trkpt lat="46.62762" lon="5.52888">
        <ele>423.25</ele>
        <time>2022-10-16T08:30:47Z</time>
      </trkpt>
      <trkpt lat="46.62762" lon="5.52887">
        <ele>423.29</ele>
        <time>2022-10-16T08:30:48Z</time>
      </trkpt>
      <trkpt lat="46.62749" lon="5.52882">
        <ele>423.31</ele>
        <time>2022-10-16T08:31:07Z</time>
      </trkpt>
      <trkpt lat="46.62732" lon="5.52872">
        <ele>423.46</ele>
        <time>2022-10-16T08:31:24Z</time>
      </trkpt>
      <trkpt lat="46.62725" lon="5.52872">
        <ele>423.38</ele>
        <time>2022-10-16T08:31:28Z</time>
      </trkpt>
      <trkpt lat="46.62722" lon="5.52874">
        <ele>423.44</ele>
        <time>2022-10-16T08:31:29Z</time>
      </trkpt>
      <trkpt lat="46.62718" lon="5.52873">
        <ele>420.71</ele>
        <time>2022-10-16T08:31:32Z</time>
      </trkpt>
      <trkpt lat="46.62707" lon="5.52873">
        <ele>419.91</ele>
        <time>2022-10-16T08:31:41Z</time>
      </trkpt>
      <trkpt lat="46.62684" lon="5.52886">
        <ele>419.9</ele>
        <time>2022-10-16T08:32:00Z</time>
      </trkpt>
      <trkpt lat="46.62674" lon="5.52898">
        <ele>422.45</ele>
        <time>2022-10-16T08:32:11Z</time>
      </trkpt>
      <trkpt lat="46.62664" lon="5.52917">
        <ele>423.62</ele>
        <time>2022-10-16T08:32:26Z</time>
      </trkpt>
      <trkpt lat="46.62657" lon="5.52944">
        <ele>424.37</ele>
        <time>2022-10-16T08:32:42Z</time>
      </trkpt>
      <trkpt lat="46.6265" lon="5.52969">
        <ele>424.3</ele>
        <time>2022-10-16T08:32:56Z</time>
      </trkpt>
      <trkpt lat="46.62648" lon="5.52981">
        <ele>421.97</ele>
        <time>2022-10-16T08:33:02Z</time>
      </trkpt>
      <trkpt lat="46.62639" lon="5.53014">
        <ele>420.99</ele>
        <time>2022-10-16T08:33:19Z</time>
      </trkpt>
      <trkpt lat="46.62632" lon="5.53051">
        <ele>419.23</ele>
        <time>2022-10-16T08:33:36Z</time>
      </trkpt>
      <trkpt lat="46.62624" lon="5.53084">
        <ele>417.6</ele>
        <time>2022-10-16T08:33:54Z</time>
      </trkpt>
      <trkpt lat="46.62612" lon="5.53112">
        <ele>416.34</ele>
        <time>2022-10-16T08:34:11Z</time>
      </trkpt>
      <trkpt lat="46.62593" lon="5.53142">
        <ele>416.3</ele>
        <time>2022-10-16T08:34:32Z</time>
      </trkpt>
      <trkpt lat="46.62579" lon="5.53161">
        <ele>415.49</ele>
        <time>2022-10-16T08:34:47Z</time>
      </trkpt>
      <trkpt lat="46.62557" lon="5.53196">
        <ele>414.73</ele>
        <time>2022-10-16T08:35:08Z</time>
      </trkpt>
      <trkpt lat="46.62538" lon="5.53209">
        <ele>417.06</ele>
        <time>2022-10-16T08:35:23Z</time>
      </trkpt>
      <trkpt lat="46.62531" lon="5.5321">
        <ele>416.98</ele>
        <time>2022-10-16T08:35:29Z</time>
      </trkpt>
      <trkpt lat="46.62514" lon="5.53211">
        <ele>416.98</ele>
        <time>2022-10-16T08:35:45Z</time>
      </trkpt>
      <trkpt lat="46.62496" lon="5.53207">
        <ele>417.72</ele>
        <time>2022-10-16T08:36:02Z</time>
      </trkpt>
      <trkpt lat="46.62461" lon="5.53201">
        <ele>417.56</ele>
        <time>2022-10-16T08:36:25Z</time>
      </trkpt>
      <trkpt lat="46.62428" lon="5.53201">
        <ele>418.56</ele>
        <time>2022-10-16T08:36:48Z</time>
      </trkpt>
      <trkpt lat="46.62396" lon="5.53198">
        <ele>418.4</ele>
        <time>2022-10-16T08:37:10Z</time>
      </trkpt>
      <trkpt lat="46.62373" lon="5.53196">
        <ele>418.22</ele>
        <time>2022-10-16T08:37:27Z</time>
      </trkpt>
      <trkpt lat="46.6234" lon="5.53207">
        <ele>418.76</ele>
        <time>2022-10-16T08:37:52Z</time>
      </trkpt>
      <trkpt lat="46.62311" lon="5.53214">
        <ele>419.48</ele>
        <time>2022-10-16T08:38:08Z</time>
      </trkpt>
      <trkpt lat="46.62294" lon="5.53223">
        <ele>420.23</ele>
        <time>2022-10-16T08:38:22Z</time>
      </trkpt>
      <trkpt lat="46.6229" lon="5.53226">
        <ele>421.04</ele>
        <time>2022-10-16T08:38:25Z</time>
      </trkpt>
      <trkpt lat="46.62289" lon="5.53229">
        <ele>421.03</ele>
        <time>2022-10-16T08:38:26Z</time>
      </trkpt>
      <trkpt lat="46.62277" lon="5.5325">
        <ele>420.9</ele>
        <time>2022-10-16T08:38:39Z</time>
      </trkpt>
      <trkpt lat="46.62275" lon="5.53253">
        <ele>422.59</ele>
        <time>2022-10-16T08:38:42Z</time>
      </trkpt>
      <trkpt lat="46.62266" lon="5.53266">
        <ele>422.54</ele>
        <time>2022-10-16T08:38:52Z</time>
      </trkpt>
      <trkpt lat="46.62263" lon="5.53266">
        <ele>422.57</ele>
        <time>2022-10-16T08:38:53Z</time>
      </trkpt>
      <trkpt lat="46.62255" lon="5.53273">
        <ele>423.43</ele>
        <time>2022-10-16T08:39:00Z</time>
      </trkpt>
      <trkpt lat="46.62254" lon="5.53274">
        <ele>423.49</ele>
        <time>2022-10-16T08:39:01Z</time>
      </trkpt>
      <trkpt lat="46.62238" lon="5.53287">
        <ele>425.03</ele>
        <time>2022-10-16T08:39:17Z</time>
      </trkpt>
      <trkpt lat="46.62219" lon="5.53304">
        <ele>425.85</ele>
        <time>2022-10-16T08:39:35Z</time>
      </trkpt>
      <trkpt lat="46.62194" lon="5.53313">
        <ele>427.53</ele>
        <time>2022-10-16T08:39:55Z</time>
      </trkpt>
      <trkpt lat="46.62173" lon="5.53313">
        <ele>430.17</ele>
        <time>2022-10-16T08:40:11Z</time>
      </trkpt>
      <trkpt lat="46.62142" lon="5.5332">
        <ele>429.96</ele>
        <time>2022-10-16T08:40:33Z</time>
      </trkpt>
      <trkpt lat="46.62101" lon="5.53319">
        <ele>429.86</ele>
        <time>2022-10-16T08:40:58Z</time>
      </trkpt>
      <trkpt lat="46.62078" lon="5.53327">
        <ele>430.53</ele>
        <time>2022-10-16T08:41:13Z</time>
      </trkpt>
      <trkpt lat="46.62061" lon="5.53329">
        <ele>430.46</ele>
        <time>2022-10-16T08:41:27Z</time>
      </trkpt>
      <trkpt lat="46.62046" lon="5.53331">
        <ele>430.42</ele>
        <time>2022-10-16T08:41:37Z</time>
      </trkpt>
      <trkpt lat="46.62044" lon="5.53331">
        <ele>430.41</ele>
        <time>2022-10-16T08:41:38Z</time>
      </trkpt>
      <trkpt lat="46.62022" lon="5.53333">
        <ele>430.35</ele>
        <time>2022-10-16T08:41:53Z</time>
      </trkpt>
      <trkpt lat="46.62005" lon="5.53336">
        <ele>429.09</ele>
        <time>2022-10-16T08:42:02Z</time>
      </trkpt>
      <trkpt lat="46.61974" lon="5.53338">
        <ele>429.13</ele>
        <time>2022-10-16T08:42:20Z</time>
      </trkpt>
      <trkpt lat="46.61946" lon="5.53343">
        <ele>428.33</ele>
        <time>2022-10-16T08:42:39Z</time>
      </trkpt>
      <trkpt lat="46.61941" lon="5.53346">
        <ele>428.35</ele>
        <time>2022-10-16T08:42:42Z</time>
      </trkpt>
      <trkpt lat="46.61941" lon="5.53347">
        <ele>428.36</ele>
        <time>2022-10-16T08:42:43Z</time>
      </trkpt>
      <trkpt lat="46.61939" lon="5.53348">
        <ele>428.37</ele>
        <time>2022-10-16T08:42:44Z</time>
      </trkpt>
      <trkpt lat="46.61938" lon="5.53349">
        <ele>428.38</ele>
        <time>2022-10-16T08:42:45Z</time>
      </trkpt>
      <trkpt lat="46.61937" lon="5.5335">
        <ele>428.38</ele>
        <time>2022-10-16T08:42:46Z</time>
      </trkpt>
      <trkpt lat="46.61932" lon="5.53356">
        <ele>431.32</ele>
        <time>2022-10-16T08:42:51Z</time>
      </trkpt>
      <trkpt lat="46.61914" lon="5.53374">
        <ele>432.31</ele>
        <time>2022-10-16T08:43:09Z</time>
      </trkpt>
      <trkpt lat="46.61892" lon="5.53395">
        <ele>432.42</ele>
        <time>2022-10-16T08:43:29Z</time>
      </trkpt>
      <trkpt lat="46.61886" lon="5.534">
        <ele>429.45</ele>
        <time>2022-10-16T08:43:35Z</time>
      </trkpt>
      <trkpt lat="46.61865" lon="5.53408">
        <ele>428.58</ele>
        <time>2022-10-16T08:43:51Z</time>
      </trkpt>
      <trkpt lat="46.61861" lon="5.5341">
        <ele>428.6</ele>
        <time>2022-10-16T08:43:54Z</time>
      </trkpt>
      <trkpt lat="46.61855" lon="5.53415">
        <ele>427.37</ele>
        <time>2022-10-16T08:43:58Z</time>
      </trkpt>
      <trkpt lat="46.61837" lon="5.53433">
        <ele>426.04</ele>
        <time>2022-10-16T08:44:12Z</time>
      </trkpt>
      <trkpt lat="46.61836" lon="5.53434">
        <ele>426</ele>
        <time>2022-10-16T08:44:13Z</time>
      </trkpt>
      <trkpt lat="46.61825" lon="5.53442">
        <ele>424.65</ele>
        <time>2022-10-16T08:44:21Z</time>
      </trkpt>
      <trkpt lat="46.61804" lon="5.53454">
        <ele>423.84</ele>
        <time>2022-10-16T08:44:36Z</time>
      </trkpt>
      <trkpt lat="46.6179" lon="5.5346">
        <ele>421.91</ele>
        <time>2022-10-16T08:44:45Z</time>
      </trkpt>
      <trkpt lat="46.61789" lon="5.5346">
        <ele>425.22</ele>
        <time>2022-10-16T08:44:46Z</time>
      </trkpt>
      <trkpt lat="46.61787" lon="5.53461">
        <ele>425.22</ele>
        <time>2022-10-16T08:44:47Z</time>
      </trkpt>
      <trkpt lat="46.61784" lon="5.53462">
        <ele>422.62</ele>
        <time>2022-10-16T08:44:49Z</time>
      </trkpt>
      <trkpt lat="46.61758" lon="5.53466">
        <ele>422.65</ele>
        <time>2022-10-16T08:45:06Z</time>
      </trkpt>
      <trkpt lat="46.61747" lon="5.53469">
        <ele>422.63</ele>
        <time>2022-10-16T08:45:15Z</time>
      </trkpt>
      <trkpt lat="46.61728" lon="5.53474">
        <ele>422.65</ele>
        <time>2022-10-16T08:45:30Z</time>
      </trkpt>
      <trkpt lat="46.61721" lon="5.53473">
        <ele>425.12</ele>
        <time>2022-10-16T08:45:35Z</time>
      </trkpt>
      <trkpt lat="46.61702" lon="5.53474">
        <ele>426.39</ele>
        <time>2022-10-16T08:45:47Z</time>
      </trkpt>
      <trkpt lat="46.6168" lon="5.53475">
        <ele>426.42</ele>
        <time>2022-10-16T08:46:02Z</time>
      </trkpt>
      <trkpt lat="46.61662" lon="5.5347">
        <ele>426.42</ele>
        <time>2022-10-16T08:46:15Z</time>
      </trkpt>
      <trkpt lat="46.6165" lon="5.53465">
        <ele>427.21</ele>
        <time>2022-10-16T08:46:23Z</time>
      </trkpt>
      <trkpt lat="46.61649" lon="5.53465">
        <ele>427.22</ele>
        <time>2022-10-16T08:46:24Z</time>
      </trkpt>
      <trkpt lat="46.61647" lon="5.53464">
        <ele>427.23</ele>
        <time>2022-10-16T08:46:25Z</time>
      </trkpt>
      <trkpt lat="46.61646" lon="5.53463">
        <ele>427.23</ele>
        <time>2022-10-16T08:46:26Z</time>
      </trkpt>
      <trkpt lat="46.61644" lon="5.53463">
        <ele>427.24</ele>
        <time>2022-10-16T08:46:27Z</time>
      </trkpt>
      <trkpt lat="46.61643" lon="5.53462">
        <ele>427.24</ele>
        <time>2022-10-16T08:46:28Z</time>
      </trkpt>
      <trkpt lat="46.61642" lon="5.53462">
        <ele>427.25</ele>
        <time>2022-10-16T08:46:29Z</time>
      </trkpt>
      <trkpt lat="46.61641" lon="5.53461">
        <ele>427.24</ele>
        <time>2022-10-16T08:46:30Z</time>
      </trkpt>
      <trkpt lat="46.61639" lon="5.53461">
        <ele>427.18</ele>
        <time>2022-10-16T08:46:31Z</time>
      </trkpt>
      <trkpt lat="46.61638" lon="5.5346">
        <ele>427.25</ele>
        <time>2022-10-16T08:46:32Z</time>
      </trkpt>
      <trkpt lat="46.61613" lon="5.53457">
        <ele>428.18</ele>
        <time>2022-10-16T08:46:48Z</time>
      </trkpt>
      <trkpt lat="46.61607" lon="5.53457">
        <ele>429.3</ele>
        <time>2022-10-16T08:46:53Z</time>
      </trkpt>
      <trkpt lat="46.6159" lon="5.53464">
        <ele>432.33</ele>
        <time>2022-10-16T08:47:06Z</time>
      </trkpt>
      <trkpt lat="46.61589" lon="5.53465">
        <ele>432.34</ele>
        <time>2022-10-16T08:47:07Z</time>
      </trkpt>
      <trkpt lat="46.61587" lon="5.53467">
        <ele>432.33</ele>
        <time>2022-10-16T08:47:09Z</time>
      </trkpt>
      <trkpt lat="46.61586" lon="5.53468">
        <ele>432.31</ele>
        <time>2022-10-16T08:47:10Z</time>
      </trkpt>
      <trkpt lat="46.61576" lon="5.53489">
        <ele>432.36</ele>
        <time>2022-10-16T08:47:25Z</time>
      </trkpt>
      <trkpt lat="46.61575" lon="5.53493">
        <ele>433.81</ele>
        <time>2022-10-16T08:47:29Z</time>
      </trkpt>
      <trkpt lat="46.61566" lon="5.53509">
        <ele>437.22</ele>
        <time>2022-10-16T08:47:48Z</time>
      </trkpt>
      <trkpt lat="46.61558" lon="5.53524">
        <ele>440.57</ele>
        <time>2022-10-16T08:48:07Z</time>
      </trkpt>
      <trkpt lat="46.61551" lon="5.53537">
        <ele>443.96</ele>
        <time>2022-10-16T08:48:23Z</time>
      </trkpt>
      <trkpt lat="46.61543" lon="5.53547">
        <ele>447.96</ele>
        <time>2022-10-16T08:48:39Z</time>
      </trkpt>
      <trkpt lat="46.6154" lon="5.53554">
        <ele>450.2</ele>
        <time>2022-10-16T08:48:47Z</time>
      </trkpt>
      <trkpt lat="46.61536" lon="5.53565">
        <ele>450.26</ele>
        <time>2022-10-16T08:49:01Z</time>
      </trkpt>
      <trkpt lat="46.61528" lon="5.53577">
        <ele>453.35</ele>
        <time>2022-10-16T08:49:14Z</time>
      </trkpt>
      <trkpt lat="46.61521" lon="5.53598">
        <ele>456.59</ele>
        <time>2022-10-16T08:49:31Z</time>
      </trkpt>
      <trkpt lat="46.6152" lon="5.53599">
        <ele>456.59</ele>
        <time>2022-10-16T08:49:32Z</time>
      </trkpt>
      <trkpt lat="46.61519" lon="5.53601">
        <ele>457.83</ele>
        <time>2022-10-16T08:49:35Z</time>
      </trkpt>
      <trkpt lat="46.61518" lon="5.53605">
        <ele>459.51</ele>
        <time>2022-10-16T08:49:39Z</time>
      </trkpt>
      <trkpt lat="46.61515" lon="5.53614">
        <ele>461.62</ele>
        <time>2022-10-16T08:49:52Z</time>
      </trkpt>
      <trkpt lat="46.61512" lon="5.5362">
        <ele>462.42</ele>
        <time>2022-10-16T08:49:58Z</time>
      </trkpt>
      <trkpt lat="46.61507" lon="5.53639">
        <ele>465.49</ele>
        <time>2022-10-16T08:50:13Z</time>
      </trkpt>
      <trkpt lat="46.61504" lon="5.53649">
        <ele>468.54</ele>
        <time>2022-10-16T08:50:28Z</time>
      </trkpt>
      <trkpt lat="46.61504" lon="5.5365">
        <ele>469.87</ele>
        <time>2022-10-16T08:50:32Z</time>
      </trkpt>
      <trkpt lat="46.61502" lon="5.5366">
        <ele>471.74</ele>
        <time>2022-10-16T08:50:43Z</time>
      </trkpt>
      <trkpt lat="46.61508" lon="5.53681">
        <ele>472.69</ele>
        <time>2022-10-16T08:50:54Z</time>
      </trkpt>
      <trkpt lat="46.61519" lon="5.53699">
        <ele>473.68</ele>
        <time>2022-10-16T08:51:12Z</time>
      </trkpt>
      <trkpt lat="46.61524" lon="5.53704">
        <ele>473.6</ele>
        <time>2022-10-16T08:51:17Z</time>
      </trkpt>
      <trkpt lat="46.61538" lon="5.53713">
        <ele>474.56</ele>
        <time>2022-10-16T08:51:30Z</time>
      </trkpt>
      <trkpt lat="46.61551" lon="5.53722">
        <ele>474.44</ele>
        <time>2022-10-16T08:51:45Z</time>
      </trkpt>
      <trkpt lat="46.61574" lon="5.53732">
        <ele>471.22</ele>
        <time>2022-10-16T08:52:02Z</time>
      </trkpt>
      <trkpt lat="46.61575" lon="5.53732">
        <ele>471.51</ele>
        <time>2022-10-16T08:52:03Z</time>
      </trkpt>
      <trkpt lat="46.61582" lon="5.53736">
        <ele>474.53</ele>
        <time>2022-10-16T08:52:09Z</time>
      </trkpt>
      <trkpt lat="46.61602" lon="5.53746">
        <ele>474.39</ele>
        <time>2022-10-16T08:52:25Z</time>
      </trkpt>
      <trkpt lat="46.61607" lon="5.53748">
        <ele>474.44</ele>
        <time>2022-10-16T08:52:30Z</time>
      </trkpt>
      <trkpt lat="46.61622" lon="5.53766">
        <ele>474.37</ele>
        <time>2022-10-16T08:52:44Z</time>
      </trkpt>
      <trkpt lat="46.6163" lon="5.53774">
        <ele>474.08</ele>
        <time>2022-10-16T08:52:51Z</time>
      </trkpt>
      <trkpt lat="46.61642" lon="5.53782">
        <ele>473.94</ele>
        <time>2022-10-16T08:53:04Z</time>
      </trkpt>
      <trkpt lat="46.61646" lon="5.53783">
        <ele>470.84</ele>
        <time>2022-10-16T08:53:06Z</time>
      </trkpt>
      <trkpt lat="46.61648" lon="5.53783">
        <ele>470.82</ele>
        <time>2022-10-16T08:53:07Z</time>
      </trkpt>
      <trkpt lat="46.61651" lon="5.53785">
        <ele>470.7</ele>
        <time>2022-10-16T08:53:11Z</time>
      </trkpt>
      <trkpt lat="46.6166" lon="5.53786">
        <ele>470.57</ele>
        <time>2022-10-16T08:53:16Z</time>
      </trkpt>
      <trkpt lat="46.61675" lon="5.5379">
        <ele>469.83</ele>
        <time>2022-10-16T08:53:26Z</time>
      </trkpt>
      <trkpt lat="46.61677" lon="5.5379">
        <ele>468.58</ele>
        <time>2022-10-16T08:53:28Z</time>
      </trkpt>
      <trkpt lat="46.61709" lon="5.53799">
        <ele>467.27</ele>
        <time>2022-10-16T08:53:44Z</time>
      </trkpt>
      <trkpt lat="46.61728" lon="5.53807">
        <ele>468.45</ele>
        <time>2022-10-16T08:53:57Z</time>
      </trkpt>
      <trkpt lat="46.61756" lon="5.53809">
        <ele>468.08</ele>
        <time>2022-10-16T08:54:14Z</time>
      </trkpt>
      <trkpt lat="46.61766" lon="5.53811">
        <ele>465.49</ele>
        <time>2022-10-16T08:54:20Z</time>
      </trkpt>
      <trkpt lat="46.61771" lon="5.53813">
        <ele>465.2</ele>
        <time>2022-10-16T08:54:24Z</time>
      </trkpt>
      <trkpt lat="46.61797" lon="5.53814">
        <ele>464.83</ele>
        <time>2022-10-16T08:54:35Z</time>
      </trkpt>
      <trkpt lat="46.61803" lon="5.53816">
        <ele>464.72</ele>
        <time>2022-10-16T08:54:39Z</time>
      </trkpt>
      <trkpt lat="46.61807" lon="5.53818">
        <ele>464.7</ele>
        <time>2022-10-16T08:54:45Z</time>
      </trkpt>
      <trkpt lat="46.61831" lon="5.53821">
        <ele>464.05</ele>
        <time>2022-10-16T08:54:59Z</time>
      </trkpt>
      <trkpt lat="46.61835" lon="5.53825">
        <ele>463.89</ele>
        <time>2022-10-16T08:55:03Z</time>
      </trkpt>
      <trkpt lat="46.61852" lon="5.5383">
        <ele>462.66</ele>
        <time>2022-10-16T08:55:18Z</time>
      </trkpt>
      <trkpt lat="46.61854" lon="5.53832">
        <ele>462.56</ele>
        <time>2022-10-16T08:55:21Z</time>
      </trkpt>
      <trkpt lat="46.61857" lon="5.53833">
        <ele>462.41</ele>
        <time>2022-10-16T08:55:23Z</time>
      </trkpt>
      <trkpt lat="46.61868" lon="5.53831">
        <ele>461.26</ele>
        <time>2022-10-16T08:55:30Z</time>
      </trkpt>
      <trkpt lat="46.61887" lon="5.5383">
        <ele>460.69</ele>
        <time>2022-10-16T08:55:45Z</time>
      </trkpt>
      <trkpt lat="46.61889" lon="5.53835">
        <ele>460.42</ele>
        <time>2022-10-16T08:55:51Z</time>
      </trkpt>
      <trkpt lat="46.61906" lon="5.53846">
        <ele>459.85</ele>
        <time>2022-10-16T08:56:09Z</time>
      </trkpt>
      <trkpt lat="46.61928" lon="5.53851">
        <ele>458.49</ele>
        <time>2022-10-16T08:56:26Z</time>
      </trkpt>
      <trkpt lat="46.61937" lon="5.53854">
        <ele>461.01</ele>
        <time>2022-10-16T08:56:32Z</time>
      </trkpt>
      <trkpt lat="46.61941" lon="5.53854">
        <ele>458.16</ele>
        <time>2022-10-16T08:56:34Z</time>
      </trkpt>
      <trkpt lat="46.61964" lon="5.53845">
        <ele>457.82</ele>
        <time>2022-10-16T08:56:44Z</time>
      </trkpt>
      <trkpt lat="46.61985" lon="5.53853">
        <ele>457.22</ele>
        <time>2022-10-16T08:56:59Z</time>
      </trkpt>
      <trkpt lat="46.61993" lon="5.53861">
        <ele>457.05</ele>
        <time>2022-10-16T08:57:05Z</time>
      </trkpt>
      <trkpt lat="46.62014" lon="5.53874">
        <ele>456.57</ele>
        <time>2022-10-16T08:57:19Z</time>
      </trkpt>
      <trkpt lat="46.62019" lon="5.53878">
        <ele>458.74</ele>
        <time>2022-10-16T08:57:22Z</time>
      </trkpt>
      <trkpt lat="46.62024" lon="5.53877">
        <ele>456.42</ele>
        <time>2022-10-16T08:57:24Z</time>
      </trkpt>
      <trkpt lat="46.62039" lon="5.53884">
        <ele>455.94</ele>
        <time>2022-10-16T08:57:33Z</time>
      </trkpt>
      <trkpt lat="46.62051" lon="5.53887">
        <ele>455.88</ele>
        <time>2022-10-16T08:57:42Z</time>
      </trkpt>
      <trkpt lat="46.62058" lon="5.53888">
        <ele>455.67</ele>
        <time>2022-10-16T08:57:46Z</time>
      </trkpt>
      <trkpt lat="46.62076" lon="5.53896">
        <ele>454.82</ele>
        <time>2022-10-16T08:58:02Z</time>
      </trkpt>
      <trkpt lat="46.62079" lon="5.53896">
        <ele>454.82</ele>
        <time>2022-10-16T08:58:04Z</time>
      </trkpt>
      <trkpt lat="46.62113" lon="5.539">
        <ele>456.41</ele>
        <time>2022-10-16T08:58:22Z</time>
      </trkpt>
      <trkpt lat="46.62155" lon="5.53884">
        <ele>456.8</ele>
        <time>2022-10-16T08:58:38Z</time>
      </trkpt>
      <trkpt lat="46.62155" lon="5.53881">
        <ele>456.61</ele>
        <time>2022-10-16T08:58:43Z</time>
      </trkpt>
      <trkpt lat="46.62152" lon="5.53877">
        <ele>457.7</ele>
        <time>2022-10-16T08:58:47Z</time>
      </trkpt>
      <trkpt lat="46.62141" lon="5.53874">
        <ele>458.18</ele>
        <time>2022-10-16T08:58:57Z</time>
      </trkpt>
      <trkpt lat="46.62125" lon="5.53873">
        <ele>459.73</ele>
        <time>2022-10-16T08:59:14Z</time>
      </trkpt>
      <trkpt lat="46.62104" lon="5.53891">
        <ele>462.39</ele>
        <time>2022-10-16T08:59:35Z</time>
      </trkpt>
      <trkpt lat="46.62085" lon="5.53891">
        <ele>464.34</ele>
        <time>2022-10-16T08:59:46Z</time>
      </trkpt>
      <trkpt lat="46.62058" lon="5.53886">
        <ele>466.47</ele>
        <time>2022-10-16T09:00:11Z</time>
      </trkpt>
      <trkpt lat="46.62045" lon="5.53886">
        <ele>467.03</ele>
        <time>2022-10-16T09:00:24Z</time>
      </trkpt>
      <trkpt lat="46.62024" lon="5.53889">
        <ele>470.75</ele>
        <time>2022-10-16T09:00:42Z</time>
      </trkpt>
      <trkpt lat="46.62013" lon="5.53889">
        <ele>472.08</ele>
        <time>2022-10-16T09:00:51Z</time>
      </trkpt>
      <trkpt lat="46.61994" lon="5.53892">
        <ele>472.78</ele>
        <time>2022-10-16T09:01:09Z</time>
      </trkpt>
      <trkpt lat="46.61957" lon="5.53897">
        <ele>475.89</ele>
        <time>2022-10-16T09:01:33Z</time>
      </trkpt>
      <trkpt lat="46.61956" lon="5.53899">
        <ele>475.96</ele>
        <time>2022-10-16T09:01:34Z</time>
      </trkpt>
      <trkpt lat="46.61948" lon="5.53907">
        <ele>475.8</ele>
        <time>2022-10-16T09:01:39Z</time>
      </trkpt>
      <trkpt lat="46.61918" lon="5.53927">
        <ele>477.71</ele>
        <time>2022-10-16T09:02:00Z</time>
      </trkpt>
      <trkpt lat="46.61892" lon="5.53941">
        <ele>478.51</ele>
        <time>2022-10-16T09:02:17Z</time>
      </trkpt>
      <trkpt lat="46.61875" lon="5.53951">
        <ele>475.97</ele>
        <time>2022-10-16T09:02:29Z</time>
      </trkpt>
      <trkpt lat="46.61871" lon="5.53955">
        <ele>478.91</ele>
        <time>2022-10-16T09:02:32Z</time>
      </trkpt>
      <trkpt lat="46.61866" lon="5.5396">
        <ele>476.39</ele>
        <time>2022-10-16T09:02:36Z</time>
      </trkpt>
      <trkpt lat="46.61853" lon="5.53969">
        <ele>476.14</ele>
        <time>2022-10-16T09:02:47Z</time>
      </trkpt>
      <trkpt lat="46.61843" lon="5.53971">
        <ele>471.94</ele>
        <time>2022-10-16T09:03:02Z</time>
      </trkpt>
      <trkpt lat="46.61843" lon="5.53971">
        <ele>471.96</ele>
        <time>2022-10-16T09:03:03Z</time>
      </trkpt>
      <trkpt lat="46.61843" lon="5.53971">
        <ele>477</ele>
        <time>2022-10-16T09:03:04Z</time>
      </trkpt>
      <trkpt lat="46.61843" lon="5.53971">
        <ele>477.02</ele>
        <time>2022-10-16T09:03:05Z</time>
      </trkpt>
      <trkpt lat="46.61842" lon="5.5397">
        <ele>474.83</ele>
        <time>2022-10-16T09:03:13Z</time>
      </trkpt>
      <trkpt lat="46.61841" lon="5.53969">
        <ele>474.48</ele>
        <time>2022-10-16T09:03:42Z</time>
      </trkpt>
      <trkpt lat="46.61842" lon="5.5397">
        <ele>475.77</ele>
        <time>2022-10-16T09:03:57Z</time>
      </trkpt>
      <trkpt lat="46.6184" lon="5.53971">
        <ele>476.2</ele>
        <time>2022-10-16T09:04:23Z</time>
      </trkpt>
      <trkpt lat="46.61838" lon="5.53971">
        <ele>476.59</ele>
        <time>2022-10-16T09:04:49Z</time>
      </trkpt>
      <trkpt lat="46.61841" lon="5.53969">
        <ele>477.07</ele>
        <time>2022-10-16T09:05:17Z</time>
      </trkpt>
      <trkpt lat="46.61841" lon="5.53968">
        <ele>477.48</ele>
        <time>2022-10-16T09:05:43Z</time>
      </trkpt>
      <trkpt lat="46.61838" lon="5.5397">
        <ele>477.91</ele>
        <time>2022-10-16T09:06:10Z</time>
      </trkpt>
      <trkpt lat="46.61842" lon="5.53966">
        <ele>478.36</ele>
        <time>2022-10-16T09:06:39Z</time>
      </trkpt>
      <trkpt lat="46.61843" lon="5.53962">
        <ele>480.01</ele>
        <time>2022-10-16T09:07:09Z</time>
      </trkpt>
      <trkpt lat="46.61842" lon="5.53964">
        <ele>477.66</ele>
        <time>2022-10-16T09:07:19Z</time>
      </trkpt>
      <trkpt lat="46.6184" lon="5.53968">
        <ele>478.15</ele>
        <time>2022-10-16T09:07:42Z</time>
      </trkpt>
      <trkpt lat="46.61836" lon="5.53974">
        <ele>478.54</ele>
        <time>2022-10-16T09:08:09Z</time>
      </trkpt>
      <trkpt lat="46.61833" lon="5.53974">
        <ele>478.96</ele>
        <time>2022-10-16T09:08:38Z</time>
      </trkpt>
      <trkpt lat="46.61834" lon="5.53975">
        <ele>479.42</ele>
        <time>2022-10-16T09:09:08Z</time>
      </trkpt>
      <trkpt lat="46.61831" lon="5.53971">
        <ele>479.82</ele>
        <time>2022-10-16T09:09:37Z</time>
      </trkpt>
      <trkpt lat="46.61828" lon="5.53969">
        <ele>480.18</ele>
        <time>2022-10-16T09:10:04Z</time>
      </trkpt>
      <trkpt lat="46.61827" lon="5.53974">
        <ele>480.65</ele>
        <time>2022-10-16T09:10:36Z</time>
      </trkpt>
      <trkpt lat="46.61828" lon="5.53974">
        <ele>483.55</ele>
        <time>2022-10-16T09:10:40Z</time>
      </trkpt>
      <trkpt lat="46.61836" lon="5.53973">
        <ele>481.38</ele>
        <time>2022-10-16T09:10:47Z</time>
      </trkpt>
      <trkpt lat="46.61835" lon="5.53974">
        <ele>478.26</ele>
        <time>2022-10-16T09:10:52Z</time>
      </trkpt>
      <trkpt lat="46.61835" lon="5.53974">
        <ele>481.31</ele>
        <time>2022-10-16T09:10:53Z</time>
      </trkpt>
      <trkpt lat="46.61832" lon="5.53974">
        <ele>482.75</ele>
        <time>2022-10-16T09:11:22Z</time>
      </trkpt>
      <trkpt lat="46.61835" lon="5.53975">
        <ele>483.12</ele>
        <time>2022-10-16T09:11:52Z</time>
      </trkpt>
      <trkpt lat="46.61838" lon="5.53977">
        <ele>483.2</ele>
        <time>2022-10-16T09:12:01Z</time>
      </trkpt>
      <trkpt lat="46.6181" lon="5.5398">
        <ele>483.6</ele>
        <time>2022-10-16T09:12:24Z</time>
      </trkpt>
      <trkpt lat="46.61808" lon="5.53983">
        <ele>483.62</ele>
        <time>2022-10-16T09:12:26Z</time>
      </trkpt>
      <trkpt lat="46.61799" lon="5.54006">
        <ele>483.8</ele>
        <time>2022-10-16T09:12:44Z</time>
      </trkpt>
      <trkpt lat="46.61796" lon="5.54007">
        <ele>483.75</ele>
        <time>2022-10-16T09:12:48Z</time>
      </trkpt>
      <trkpt lat="46.61793" lon="5.54006">
        <ele>480.24</ele>
        <time>2022-10-16T09:12:51Z</time>
      </trkpt>
      <trkpt lat="46.6177" lon="5.54001">
        <ele>480.4</ele>
        <time>2022-10-16T09:13:08Z</time>
      </trkpt>
      <trkpt lat="46.61767" lon="5.54">
        <ele>478.88</ele>
        <time>2022-10-16T09:13:10Z</time>
      </trkpt>
      <trkpt lat="46.61754" lon="5.53999">
        <ele>476.37</ele>
        <time>2022-10-16T09:13:17Z</time>
      </trkpt>
      <trkpt lat="46.61748" lon="5.53997">
        <ele>474.7</ele>
        <time>2022-10-16T09:13:21Z</time>
      </trkpt>
      <trkpt lat="46.61726" lon="5.53993">
        <ele>474.97</ele>
        <time>2022-10-16T09:13:37Z</time>
      </trkpt>
      <trkpt lat="46.61722" lon="5.53994">
        <ele>475.01</ele>
        <time>2022-10-16T09:13:40Z</time>
      </trkpt>
      <trkpt lat="46.6171" lon="5.53994">
        <ele>475.05</ele>
        <time>2022-10-16T09:13:49Z</time>
      </trkpt>
      <trkpt lat="46.61687" lon="5.53997">
        <ele>473.35</ele>
        <time>2022-10-16T09:14:04Z</time>
      </trkpt>
      <trkpt lat="46.61673" lon="5.54001">
        <ele>472.11</ele>
        <time>2022-10-16T09:14:13Z</time>
      </trkpt>
      <trkpt lat="46.61651" lon="5.54">
        <ele>468.39</ele>
        <time>2022-10-16T09:14:29Z</time>
      </trkpt>
      <trkpt lat="46.6165" lon="5.54">
        <ele>468.43</ele>
        <time>2022-10-16T09:14:30Z</time>
      </trkpt>
      <trkpt lat="46.61626" lon="5.53995">
        <ele>468.41</ele>
        <time>2022-10-16T09:14:45Z</time>
      </trkpt>
      <trkpt lat="46.61596" lon="5.53988">
        <ele>466.63</ele>
        <time>2022-10-16T09:15:02Z</time>
      </trkpt>
      <trkpt lat="46.61586" lon="5.53986">
        <ele>465.31</ele>
        <time>2022-10-16T09:15:07Z</time>
      </trkpt>
      <trkpt lat="46.61567" lon="5.53995">
        <ele>464.27</ele>
        <time>2022-10-16T09:15:19Z</time>
      </trkpt>
      <trkpt lat="46.61562" lon="5.54004">
        <ele>463.12</ele>
        <time>2022-10-16T09:15:25Z</time>
      </trkpt>
      <trkpt lat="46.61554" lon="5.54019">
        <ele>461.77</ele>
        <time>2022-10-16T09:15:32Z</time>
      </trkpt>
      <trkpt lat="46.6154" lon="5.54049">
        <ele>459.85</ele>
        <time>2022-10-16T09:15:46Z</time>
      </trkpt>
      <trkpt lat="46.61538" lon="5.54052">
        <ele>458.46</ele>
        <time>2022-10-16T09:15:48Z</time>
      </trkpt>
      <trkpt lat="46.61525" lon="5.54079">
        <ele>455.64</ele>
        <time>2022-10-16T09:16:02Z</time>
      </trkpt>
      <trkpt lat="46.61515" lon="5.54103">
        <ele>454.5</ele>
        <time>2022-10-16T09:16:13Z</time>
      </trkpt>
      <trkpt lat="46.61513" lon="5.54112">
        <ele>453.18</ele>
        <time>2022-10-16T09:16:17Z</time>
      </trkpt>
      <trkpt lat="46.61506" lon="5.54129">
        <ele>453.25</ele>
        <time>2022-10-16T09:16:27Z</time>
      </trkpt>
      <trkpt lat="46.6149" lon="5.54171">
        <ele>456.3</ele>
        <time>2022-10-16T09:16:43Z</time>
      </trkpt>
      <trkpt lat="46.61489" lon="5.54172">
        <ele>456.3</ele>
        <time>2022-10-16T09:16:44Z</time>
      </trkpt>
      <trkpt lat="46.61485" lon="5.54181">
        <ele>456.3</ele>
        <time>2022-10-16T09:16:48Z</time>
      </trkpt>
      <trkpt lat="46.61483" lon="5.54185">
        <ele>456.3</ele>
        <time>2022-10-16T09:16:51Z</time>
      </trkpt>
      <trkpt lat="46.61467" lon="5.5421">
        <ele>456.41</ele>
        <time>2022-10-16T09:17:07Z</time>
      </trkpt>
      <trkpt lat="46.61453" lon="5.54236">
        <ele>456.47</ele>
        <time>2022-10-16T09:17:20Z</time>
      </trkpt>
      <trkpt lat="46.61443" lon="5.54252">
        <ele>456.5</ele>
        <time>2022-10-16T09:17:29Z</time>
      </trkpt>
      <trkpt lat="46.61442" lon="5.54265">
        <ele>456.54</ele>
        <time>2022-10-16T09:17:35Z</time>
      </trkpt>
      <trkpt lat="46.61436" lon="5.54271">
        <ele>454</ele>
        <time>2022-10-16T09:17:46Z</time>
      </trkpt>
      <trkpt lat="46.61435" lon="5.54273">
        <ele>454.04</ele>
        <time>2022-10-16T09:17:47Z</time>
      </trkpt>
      <trkpt lat="46.6143" lon="5.54282">
        <ele>454.01</ele>
        <time>2022-10-16T09:17:53Z</time>
      </trkpt>
      <trkpt lat="46.61424" lon="5.54284">
        <ele>454.04</ele>
        <time>2022-10-16T09:17:56Z</time>
      </trkpt>
      <trkpt lat="46.61421" lon="5.54285">
        <ele>454.04</ele>
        <time>2022-10-16T09:17:58Z</time>
      </trkpt>
      <trkpt lat="46.61416" lon="5.54288">
        <ele>456.5</ele>
        <time>2022-10-16T09:18:01Z</time>
      </trkpt>
      <trkpt lat="46.61413" lon="5.54289">
        <ele>456.51</ele>
        <time>2022-10-16T09:18:04Z</time>
      </trkpt>
      <trkpt lat="46.61403" lon="5.54294">
        <ele>456.51</ele>
        <time>2022-10-16T09:18:13Z</time>
      </trkpt>
      <trkpt lat="46.61387" lon="5.54309">
        <ele>456.5</ele>
        <time>2022-10-16T09:18:16Z</time>
      </trkpt>
      <trkpt lat="46.61385" lon="5.54311">
        <ele>456.53</ele>
        <time>2022-10-16T09:18:18Z</time>
      </trkpt>
      <trkpt lat="46.61379" lon="5.54315">
        <ele>457.57</ele>
        <time>2022-10-16T09:18:31Z</time>
      </trkpt>
      <trkpt lat="46.61371" lon="5.54322">
        <ele>454.76</ele>
        <time>2022-10-16T09:18:40Z</time>
      </trkpt>
      <trkpt lat="46.61364" lon="5.5433">
        <ele>454.82</ele>
        <time>2022-10-16T09:18:49Z</time>
      </trkpt>
      <trkpt lat="46.61358" lon="5.54336">
        <ele>454.83</ele>
        <time>2022-10-16T09:18:58Z</time>
      </trkpt>
      <trkpt lat="46.61352" lon="5.54346">
        <ele>453.54</ele>
        <time>2022-10-16T09:19:06Z</time>
      </trkpt>
      <trkpt lat="46.61341" lon="5.5436">
        <ele>452.78</ele>
        <time>2022-10-16T09:19:17Z</time>
      </trkpt>
      <trkpt lat="46.61336" lon="5.54369">
        <ele>450.49</ele>
        <time>2022-10-16T09:19:25Z</time>
      </trkpt>
      <trkpt lat="46.61333" lon="5.54385">
        <ele>447.31</ele>
        <time>2022-10-16T09:19:36Z</time>
      </trkpt>
      <trkpt lat="46.61333" lon="5.54386">
        <ele>447.31</ele>
        <time>2022-10-16T09:19:37Z</time>
      </trkpt>
      <trkpt lat="46.61331" lon="5.54387">
        <ele>445.5</ele>
        <time>2022-10-16T09:19:40Z</time>
      </trkpt>
      <trkpt lat="46.61331" lon="5.54389">
        <ele>442.48</ele>
        <time>2022-10-16T09:19:45Z</time>
      </trkpt>
      <trkpt lat="46.61331" lon="5.54394">
        <ele>442.52</ele>
        <time>2022-10-16T09:19:46Z</time>
      </trkpt>
      <trkpt lat="46.61333" lon="5.54409">
        <ele>440.32</ele>
        <time>2022-10-16T09:19:53Z</time>
      </trkpt>
      <trkpt lat="46.61334" lon="5.54449">
        <ele>438.55</ele>
        <time>2022-10-16T09:20:06Z</time>
      </trkpt>
      <trkpt lat="46.61334" lon="5.54463">
        <ele>437.33</ele>
        <time>2022-10-16T09:20:09Z</time>
      </trkpt>
      <trkpt lat="46.61334" lon="5.54474">
        <ele>437.4</ele>
        <time>2022-10-16T09:20:10Z</time>
      </trkpt>
      <trkpt lat="46.61332" lon="5.54508">
        <ele>435.78</ele>
        <time>2022-10-16T09:20:15Z</time>
      </trkpt>
      <trkpt lat="46.61334" lon="5.54514">
        <ele>435.79</ele>
        <time>2022-10-16T09:20:19Z</time>
      </trkpt>
      <trkpt lat="46.61344" lon="5.54528">
        <ele>434.04</ele>
        <time>2022-10-16T09:20:31Z</time>
      </trkpt>
      <trkpt lat="46.61361" lon="5.54543">
        <ele>431.31</ele>
        <time>2022-10-16T09:20:43Z</time>
      </trkpt>
      <trkpt lat="46.61376" lon="5.54553">
        <ele>429.26</ele>
        <time>2022-10-16T09:20:55Z</time>
      </trkpt>
      <trkpt lat="46.61379" lon="5.54552">
        <ele>429.24</ele>
        <time>2022-10-16T09:20:56Z</time>
      </trkpt>
      <trkpt lat="46.61388" lon="5.54558">
        <ele>426.93</ele>
        <time>2022-10-16T09:21:06Z</time>
      </trkpt>
      <trkpt lat="46.61385" lon="5.54575">
        <ele>424.22</ele>
        <time>2022-10-16T09:21:11Z</time>
      </trkpt>
      <trkpt lat="46.61384" lon="5.54582">
        <ele>423.08</ele>
        <time>2022-10-16T09:21:13Z</time>
      </trkpt>
      <trkpt lat="46.61389" lon="5.54581">
        <ele>421.44</ele>
        <time>2022-10-16T09:21:16Z</time>
      </trkpt>
      <trkpt lat="46.61395" lon="5.54577">
        <ele>419.25</ele>
        <time>2022-10-16T09:21:22Z</time>
      </trkpt>
      <trkpt lat="46.614" lon="5.54574">
        <ele>419.19</ele>
        <time>2022-10-16T09:21:26Z</time>
      </trkpt>
      <trkpt lat="46.61411" lon="5.54574">
        <ele>421.96</ele>
        <time>2022-10-16T09:21:33Z</time>
      </trkpt>
      <trkpt lat="46.61411" lon="5.54583">
        <ele>421.9</ele>
        <time>2022-10-16T09:21:36Z</time>
      </trkpt>
      <trkpt lat="46.61418" lon="5.54582">
        <ele>421.83</ele>
        <time>2022-10-16T09:21:40Z</time>
      </trkpt>
      <trkpt lat="46.6143" lon="5.54578">
        <ele>421.6</ele>
        <time>2022-10-16T09:21:48Z</time>
      </trkpt>
      <trkpt lat="46.61434" lon="5.54578">
        <ele>421.49</ele>
        <time>2022-10-16T09:21:52Z</time>
      </trkpt>
      <trkpt lat="46.61441" lon="5.54575">
        <ele>418.17</ele>
        <time>2022-10-16T09:21:57Z</time>
      </trkpt>
      <trkpt lat="46.61442" lon="5.54574">
        <ele>418.14</ele>
        <time>2022-10-16T09:21:58Z</time>
      </trkpt>
      <trkpt lat="46.61452" lon="5.5457">
        <ele>416.54</ele>
        <time>2022-10-16T09:22:05Z</time>
      </trkpt>
      <trkpt lat="46.61456" lon="5.54568">
        <ele>416.44</ele>
        <time>2022-10-16T09:22:08Z</time>
      </trkpt>
      <trkpt lat="46.6146" lon="5.54565">
        <ele>415.11</ele>
        <time>2022-10-16T09:22:11Z</time>
      </trkpt>
      <trkpt lat="46.6146" lon="5.54565">
        <ele>415.09</ele>
        <time>2022-10-16T09:22:12Z</time>
      </trkpt>
      <trkpt lat="46.61464" lon="5.54563">
        <ele>413.73</ele>
        <time>2022-10-16T09:22:14Z</time>
      </trkpt>
      <trkpt lat="46.61479" lon="5.54562">
        <ele>411.04</ele>
        <time>2022-10-16T09:22:24Z</time>
      </trkpt>
      <trkpt lat="46.61486" lon="5.54561">
        <ele>409.98</ele>
        <time>2022-10-16T09:22:30Z</time>
      </trkpt>
      <trkpt lat="46.6149" lon="5.54561">
        <ele>408.8</ele>
        <time>2022-10-16T09:22:32Z</time>
      </trkpt>
      <trkpt lat="46.61506" lon="5.54557">
        <ele>406.46</ele>
        <time>2022-10-16T09:22:39Z</time>
      </trkpt>
      <trkpt lat="46.61512" lon="5.54554">
        <ele>404.24</ele>
        <time>2022-10-16T09:22:45Z</time>
      </trkpt>
      <trkpt lat="46.61522" lon="5.54551">
        <ele>402.6</ele>
        <time>2022-10-16T09:22:49Z</time>
      </trkpt>
      <trkpt lat="46.61532" lon="5.54551">
        <ele>400.09</ele>
        <time>2022-10-16T09:22:54Z</time>
      </trkpt>
      <trkpt lat="46.61539" lon="5.54551">
        <ele>399</ele>
        <time>2022-10-16T09:22:57Z</time>
      </trkpt>
      <trkpt lat="46.61544" lon="5.5455">
        <ele>398.89</ele>
        <time>2022-10-16T09:23:00Z</time>
      </trkpt>
      <trkpt lat="46.61556" lon="5.54548">
        <ele>397.07</ele>
        <time>2022-10-16T09:23:05Z</time>
      </trkpt>
      <trkpt lat="46.61568" lon="5.54545">
        <ele>395.34</ele>
        <time>2022-10-16T09:23:09Z</time>
      </trkpt>
      <trkpt lat="46.61592" lon="5.54547">
        <ele>392.33</ele>
        <time>2022-10-16T09:23:20Z</time>
      </trkpt>
      <trkpt lat="46.61601" lon="5.5455">
        <ele>390.24</ele>
        <time>2022-10-16T09:23:27Z</time>
      </trkpt>
      <trkpt lat="46.61608" lon="5.54554">
        <ele>388.97</ele>
        <time>2022-10-16T09:23:35Z</time>
      </trkpt>
      <trkpt lat="46.6163" lon="5.54556">
        <ele>386.54</ele>
        <time>2022-10-16T09:23:49Z</time>
      </trkpt>
      <trkpt lat="46.61637" lon="5.54564">
        <ele>385.02</ele>
        <time>2022-10-16T09:23:58Z</time>
      </trkpt>
      <trkpt lat="46.6164" lon="5.54567">
        <ele>384.87</ele>
        <time>2022-10-16T09:24:03Z</time>
      </trkpt>
      <trkpt lat="46.61653" lon="5.54576">
        <ele>384.54</ele>
        <time>2022-10-16T09:24:15Z</time>
      </trkpt>
      <trkpt lat="46.61658" lon="5.54575">
        <ele>383.18</ele>
        <time>2022-10-16T09:24:17Z</time>
      </trkpt>
      <trkpt lat="46.61661" lon="5.54576">
        <ele>381.65</ele>
        <time>2022-10-16T09:24:20Z</time>
      </trkpt>
      <trkpt lat="46.61677" lon="5.54587">
        <ele>377.72</ele>
        <time>2022-10-16T09:24:36Z</time>
      </trkpt>
      <trkpt lat="46.61681" lon="5.54588">
        <ele>377.68</ele>
        <time>2022-10-16T09:24:39Z</time>
      </trkpt>
      <trkpt lat="46.61687" lon="5.5459">
        <ele>375.41</ele>
        <time>2022-10-16T09:24:44Z</time>
      </trkpt>
      <trkpt lat="46.61712" lon="5.54581">
        <ele>373.2</ele>
        <time>2022-10-16T09:24:54Z</time>
      </trkpt>
      <trkpt lat="46.61723" lon="5.54587">
        <ele>369.89</ele>
        <time>2022-10-16T09:25:01Z</time>
      </trkpt>
      <trkpt lat="46.61725" lon="5.54588">
        <ele>369.86</ele>
        <time>2022-10-16T09:25:02Z</time>
      </trkpt>
      <trkpt lat="46.61732" lon="5.54592">
        <ele>367.72</ele>
        <time>2022-10-16T09:25:07Z</time>
      </trkpt>
      <trkpt lat="46.61738" lon="5.54597">
        <ele>366.23</ele>
        <time>2022-10-16T09:25:13Z</time>
      </trkpt>
      <trkpt lat="46.61751" lon="5.54601">
        <ele>363.7</ele>
        <time>2022-10-16T09:25:21Z</time>
      </trkpt>
      <trkpt lat="46.61751" lon="5.54601">
        <ele>363.65</ele>
        <time>2022-10-16T09:25:22Z</time>
      </trkpt>
      <trkpt lat="46.61757" lon="5.54606">
        <ele>362.31</ele>
        <time>2022-10-16T09:25:28Z</time>
      </trkpt>
      <trkpt lat="46.61758" lon="5.54608">
        <ele>361.06</ele>
        <time>2022-10-16T09:25:32Z</time>
      </trkpt>
      <trkpt lat="46.61762" lon="5.5461">
        <ele>359.09</ele>
        <time>2022-10-16T09:25:36Z</time>
      </trkpt>
      <trkpt lat="46.61764" lon="5.54633">
        <ele>356.91</ele>
        <time>2022-10-16T09:25:43Z</time>
      </trkpt>
      <trkpt lat="46.61765" lon="5.54633">
        <ele>355.58</ele>
        <time>2022-10-16T09:25:45Z</time>
      </trkpt>
      <trkpt lat="46.61774" lon="5.54635">
        <ele>352.44</ele>
        <time>2022-10-16T09:25:51Z</time>
      </trkpt>
      <trkpt lat="46.6179" lon="5.54651">
        <ele>349.28</ele>
        <time>2022-10-16T09:26:00Z</time>
      </trkpt>
      <trkpt lat="46.61795" lon="5.54651">
        <ele>348.26</ele>
        <time>2022-10-16T09:26:02Z</time>
      </trkpt>
      <trkpt lat="46.6181" lon="5.5465">
        <ele>346.84</ele>
        <time>2022-10-16T09:26:08Z</time>
      </trkpt>
      <trkpt lat="46.61825" lon="5.5465">
        <ele>345.55</ele>
        <time>2022-10-16T09:26:16Z</time>
      </trkpt>
      <trkpt lat="46.6183" lon="5.5465">
        <ele>345.51</ele>
        <time>2022-10-16T09:26:18Z</time>
      </trkpt>
      <trkpt lat="46.61836" lon="5.54649">
        <ele>343.95</ele>
        <time>2022-10-16T09:26:21Z</time>
      </trkpt>
      <trkpt lat="46.61838" lon="5.54648">
        <ele>344.02</ele>
        <time>2022-10-16T09:26:22Z</time>
      </trkpt>
      <trkpt lat="46.61846" lon="5.54647">
        <ele>342.36</ele>
        <time>2022-10-16T09:26:26Z</time>
      </trkpt>
      <trkpt lat="46.61854" lon="5.54646">
        <ele>342.23</ele>
        <time>2022-10-16T09:26:31Z</time>
      </trkpt>
      <trkpt lat="46.6186" lon="5.54646">
        <ele>341.02</ele>
        <time>2022-10-16T09:26:34Z</time>
      </trkpt>
      <trkpt lat="46.61872" lon="5.54661">
        <ele>339.53</ele>
        <time>2022-10-16T09:26:41Z</time>
      </trkpt>
      <trkpt lat="46.61877" lon="5.54664">
        <ele>339.47</ele>
        <time>2022-10-16T09:26:44Z</time>
      </trkpt>
      <trkpt lat="46.6188" lon="5.54666">
        <ele>339.43</ele>
        <time>2022-10-16T09:26:46Z</time>
      </trkpt>
      <trkpt lat="46.6189" lon="5.54666">
        <ele>338.32</ele>
        <time>2022-10-16T09:26:52Z</time>
      </trkpt>
      <trkpt lat="46.61905" lon="5.5469">
        <ele>337.27</ele>
        <time>2022-10-16T09:27:03Z</time>
      </trkpt>
      <trkpt lat="46.6191" lon="5.5469">
        <ele>337.2</ele>
        <time>2022-10-16T09:27:07Z</time>
      </trkpt>
      <trkpt lat="46.6191" lon="5.54695">
        <ele>335.7</ele>
        <time>2022-10-16T09:27:09Z</time>
      </trkpt>
      <trkpt lat="46.61911" lon="5.54696">
        <ele>335.65</ele>
        <time>2022-10-16T09:27:11Z</time>
      </trkpt>
      <trkpt lat="46.61914" lon="5.54701">
        <ele>335.61</ele>
        <time>2022-10-16T09:27:14Z</time>
      </trkpt>
      <trkpt lat="46.61927" lon="5.54709">
        <ele>332.32</ele>
        <time>2022-10-16T09:27:26Z</time>
      </trkpt>
      <trkpt lat="46.61932" lon="5.54712">
        <ele>331.29</ele>
        <time>2022-10-16T09:27:30Z</time>
      </trkpt>
      <trkpt lat="46.61936" lon="5.54712">
        <ele>331.21</ele>
        <time>2022-10-16T09:27:33Z</time>
      </trkpt>
      <trkpt lat="46.61958" lon="5.54707">
        <ele>329.43</ele>
        <time>2022-10-16T09:27:37Z</time>
      </trkpt>
      <trkpt lat="46.61967" lon="5.54716">
        <ele>328.11</ele>
        <time>2022-10-16T09:27:44Z</time>
      </trkpt>
      <trkpt lat="46.61968" lon="5.54717">
        <ele>326.95</ele>
        <time>2022-10-16T09:27:46Z</time>
      </trkpt>
      <trkpt lat="46.6197" lon="5.54721">
        <ele>326.93</ele>
        <time>2022-10-16T09:27:48Z</time>
      </trkpt>
      <trkpt lat="46.61985" lon="5.5474">
        <ele>325.65</ele>
        <time>2022-10-16T09:27:58Z</time>
      </trkpt>
      <trkpt lat="46.61994" lon="5.54756">
        <ele>324.11</ele>
        <time>2022-10-16T09:28:04Z</time>
      </trkpt>
      <trkpt lat="46.61996" lon="5.54758">
        <ele>324.1</ele>
        <time>2022-10-16T09:28:05Z</time>
      </trkpt>
      <trkpt lat="46.61998" lon="5.54762">
        <ele>324.06</ele>
        <time>2022-10-16T09:28:07Z</time>
      </trkpt>
      <trkpt lat="46.62006" lon="5.54764">
        <ele>322.55</ele>
        <time>2022-10-16T09:28:09Z</time>
      </trkpt>
      <trkpt lat="46.62014" lon="5.54775">
        <ele>321</ele>
        <time>2022-10-16T09:28:15Z</time>
      </trkpt>
      <trkpt lat="46.62018" lon="5.5478">
        <ele>320.95</ele>
        <time>2022-10-16T09:28:19Z</time>
      </trkpt>
      <trkpt lat="46.62021" lon="5.54785">
        <ele>319.68</ele>
        <time>2022-10-16T09:28:21Z</time>
      </trkpt>
      <trkpt lat="46.62038" lon="5.54795">
        <ele>317.96</ele>
        <time>2022-10-16T09:28:30Z</time>
      </trkpt>
      <trkpt lat="46.62049" lon="5.54797">
        <ele>317.16</ele>
        <time>2022-10-16T09:28:35Z</time>
      </trkpt>
      <trkpt lat="46.62053" lon="5.54798">
        <ele>316.01</ele>
        <time>2022-10-16T09:28:39Z</time>
      </trkpt>
      <trkpt lat="46.62062" lon="5.54804">
        <ele>314.37</ele>
        <time>2022-10-16T09:28:48Z</time>
      </trkpt>
      <trkpt lat="46.62067" lon="5.54811">
        <ele>313.23</ele>
        <time>2022-10-16T09:28:55Z</time>
      </trkpt>
      <trkpt lat="46.62078" lon="5.54816">
        <ele>310.69</ele>
        <time>2022-10-16T09:29:02Z</time>
      </trkpt>
      <trkpt lat="46.62087" lon="5.54815">
        <ele>309.62</ele>
        <time>2022-10-16T09:29:07Z</time>
      </trkpt>
      <trkpt lat="46.62095" lon="5.54832">
        <ele>306.52</ele>
        <time>2022-10-16T09:29:16Z</time>
      </trkpt>
      <trkpt lat="46.62096" lon="5.54868">
        <ele>306.28</ele>
        <time>2022-10-16T09:29:32Z</time>
      </trkpt>
      <trkpt lat="46.62102" lon="5.54865">
        <ele>306.27</ele>
        <time>2022-10-16T09:29:35Z</time>
      </trkpt>
      <trkpt lat="46.62106" lon="5.54864">
        <ele>306.24</ele>
        <time>2022-10-16T09:29:36Z</time>
      </trkpt>
      <trkpt lat="46.6214" lon="5.54849">
        <ele>303.17</ele>
        <time>2022-10-16T09:29:48Z</time>
      </trkpt>
      <trkpt lat="46.62149" lon="5.54848">
        <ele>301.2</ele>
        <time>2022-10-16T09:29:53Z</time>
      </trkpt>
      <trkpt lat="46.62152" lon="5.54848">
        <ele>301.16</ele>
        <time>2022-10-16T09:29:58Z</time>
      </trkpt>
      <trkpt lat="46.6216" lon="5.54844">
        <ele>299.67</ele>
        <time>2022-10-16T09:30:04Z</time>
      </trkpt>
      <trkpt lat="46.62173" lon="5.54835">
        <ele>299.53</ele>
        <time>2022-10-16T09:30:14Z</time>
      </trkpt>
      <trkpt lat="46.62174" lon="5.54835">
        <ele>299.51</ele>
        <time>2022-10-16T09:30:15Z</time>
      </trkpt>
      <trkpt lat="46.6219" lon="5.54831">
        <ele>298.5</ele>
        <time>2022-10-16T09:30:25Z</time>
      </trkpt>
      <trkpt lat="46.62217" lon="5.54836">
        <ele>297.44</ele>
        <time>2022-10-16T09:30:37Z</time>
      </trkpt>
      <trkpt lat="46.62219" lon="5.54836">
        <ele>297.42</ele>
        <time>2022-10-16T09:30:38Z</time>
      </trkpt>
      <trkpt lat="46.6222" lon="5.54836">
        <ele>297.45</ele>
        <time>2022-10-16T09:30:39Z</time>
      </trkpt>
      <trkpt lat="46.62222" lon="5.54836">
        <ele>297.44</ele>
        <time>2022-10-16T09:30:40Z</time>
      </trkpt>
      <trkpt lat="46.62224" lon="5.54836">
        <ele>297.37</ele>
        <time>2022-10-16T09:30:41Z</time>
      </trkpt>
      <trkpt lat="46.62243" lon="5.54842">
        <ele>296.22</ele>
        <time>2022-10-16T09:30:51Z</time>
      </trkpt>
      <trkpt lat="46.62246" lon="5.54843">
        <ele>296.09</ele>
        <time>2022-10-16T09:30:52Z</time>
      </trkpt>
      <trkpt lat="46.62248" lon="5.54843">
        <ele>296.21</ele>
        <time>2022-10-16T09:30:53Z</time>
      </trkpt>
      <trkpt lat="46.6225" lon="5.54842">
        <ele>296.05</ele>
        <time>2022-10-16T09:30:54Z</time>
      </trkpt>
      <trkpt lat="46.62252" lon="5.54842">
        <ele>296.11</ele>
        <time>2022-10-16T09:30:55Z</time>
      </trkpt>
      <trkpt lat="46.62254" lon="5.54843">
        <ele>296.09</ele>
        <time>2022-10-16T09:30:56Z</time>
      </trkpt>
      <trkpt lat="46.62256" lon="5.54842">
        <ele>296.14</ele>
        <time>2022-10-16T09:30:57Z</time>
      </trkpt>
      <trkpt lat="46.62258" lon="5.54842">
        <ele>296.06</ele>
        <time>2022-10-16T09:30:58Z</time>
      </trkpt>
      <trkpt lat="46.6226" lon="5.54842">
        <ele>296.12</ele>
        <time>2022-10-16T09:30:59Z</time>
      </trkpt>
      <trkpt lat="46.62261" lon="5.54839">
        <ele>296.04</ele>
        <time>2022-10-16T09:31:00Z</time>
      </trkpt>
      <trkpt lat="46.62263" lon="5.54836">
        <ele>296.01</ele>
        <time>2022-10-16T09:31:01Z</time>
      </trkpt>
      <trkpt lat="46.62278" lon="5.54834">
        <ele>296.01</ele>
        <time>2022-10-16T09:31:08Z</time>
      </trkpt>
      <trkpt lat="46.6228" lon="5.54835">
        <ele>296</ele>
        <time>2022-10-16T09:31:09Z</time>
      </trkpt>
      <trkpt lat="46.62281" lon="5.54836">
        <ele>296</ele>
        <time>2022-10-16T09:31:10Z</time>
      </trkpt>
      <trkpt lat="46.62282" lon="5.54836">
        <ele>296</ele>
        <time>2022-10-16T09:31:11Z</time>
      </trkpt>
      <trkpt lat="46.62285" lon="5.54835">
        <ele>296.01</ele>
        <time>2022-10-16T09:31:12Z</time>
      </trkpt>
      <trkpt lat="46.62311" lon="5.54843">
        <ele>296</ele>
        <time>2022-10-16T09:31:27Z</time>
      </trkpt>
      <trkpt lat="46.6234" lon="5.54838">
        <ele>298.22</ele>
        <time>2022-10-16T09:31:39Z</time>
      </trkpt>
      <trkpt lat="46.62345" lon="5.54841">
        <ele>298.24</ele>
        <time>2022-10-16T09:31:43Z</time>
      </trkpt>
      <trkpt lat="46.6236" lon="5.54846">
        <ele>299.15</ele>
        <time>2022-10-16T09:31:53Z</time>
      </trkpt>
      <trkpt lat="46.62372" lon="5.54852">
        <ele>299.13</ele>
        <time>2022-10-16T09:32:04Z</time>
      </trkpt>
      <trkpt lat="46.62372" lon="5.54853">
        <ele>299.14</ele>
        <time>2022-10-16T09:32:07Z</time>
      </trkpt>
      <trkpt lat="46.62374" lon="5.54852">
        <ele>299.25</ele>
        <time>2022-10-16T09:32:09Z</time>
      </trkpt>
      <trkpt lat="46.62375" lon="5.54851">
        <ele>299.28</ele>
        <time>2022-10-16T09:32:10Z</time>
      </trkpt>
      <trkpt lat="46.62386" lon="5.54847">
        <ele>300.19</ele>
        <time>2022-10-16T09:32:17Z</time>
      </trkpt>
      <trkpt lat="46.62388" lon="5.54847">
        <ele>300.18</ele>
        <time>2022-10-16T09:32:18Z</time>
      </trkpt>
      <trkpt lat="46.6239" lon="5.54847">
        <ele>300.18</ele>
        <time>2022-10-16T09:32:19Z</time>
      </trkpt>
      <trkpt lat="46.62392" lon="5.54846">
        <ele>300.18</ele>
        <time>2022-10-16T09:32:20Z</time>
      </trkpt>
      <trkpt lat="46.62393" lon="5.54846">
        <ele>300.18</ele>
        <time>2022-10-16T09:32:21Z</time>
      </trkpt>
      <trkpt lat="46.62415" lon="5.54846">
        <ele>300.16</ele>
        <time>2022-10-16T09:32:34Z</time>
      </trkpt>
      <trkpt lat="46.62434" lon="5.54838">
        <ele>300.17</ele>
        <time>2022-10-16T09:32:47Z</time>
      </trkpt>
      <trkpt lat="46.62444" lon="5.54834">
        <ele>297.69</ele>
        <time>2022-10-16T09:32:56Z</time>
      </trkpt>
      <trkpt lat="46.62458" lon="5.54831">
        <ele>296.18</ele>
        <time>2022-10-16T09:33:05Z</time>
      </trkpt>
      <trkpt lat="46.62505" lon="5.54831">
        <ele>295.14</ele>
        <time>2022-10-16T09:33:20Z</time>
      </trkpt>
      <trkpt lat="46.62514" lon="5.54827">
        <ele>293.93</ele>
        <time>2022-10-16T09:33:24Z</time>
      </trkpt>
      <trkpt lat="46.62516" lon="5.54826">
        <ele>294.09</ele>
        <time>2022-10-16T09:33:25Z</time>
      </trkpt>
      <trkpt lat="46.62518" lon="5.54824">
        <ele>294.08</ele>
        <time>2022-10-16T09:33:27Z</time>
      </trkpt>
      <trkpt lat="46.6253" lon="5.54813">
        <ele>294.06</ele>
        <time>2022-10-16T09:33:37Z</time>
      </trkpt>
      <trkpt lat="46.62532" lon="5.54812">
        <ele>294</ele>
        <time>2022-10-16T09:33:38Z</time>
      </trkpt>
      <trkpt lat="46.62533" lon="5.54811">
        <ele>293.99</ele>
        <time>2022-10-16T09:33:39Z</time>
      </trkpt>
      <trkpt lat="46.62536" lon="5.54811">
        <ele>294.05</ele>
        <time>2022-10-16T09:33:40Z</time>
      </trkpt>
      <trkpt lat="46.62548" lon="5.54804">
        <ele>294.05</ele>
        <time>2022-10-16T09:33:50Z</time>
      </trkpt>
      <trkpt lat="46.62555" lon="5.54798">
        <ele>293.96</ele>
        <time>2022-10-16T09:33:56Z</time>
      </trkpt>
      <trkpt lat="46.62558" lon="5.54797">
        <ele>293.05</ele>
        <time>2022-10-16T09:33:58Z</time>
      </trkpt>
      <trkpt lat="46.62564" lon="5.54793">
        <ele>293</ele>
        <time>2022-10-16T09:34:01Z</time>
      </trkpt>
      <trkpt lat="46.62567" lon="5.54793">
        <ele>293.08</ele>
        <time>2022-10-16T09:34:02Z</time>
      </trkpt>
      <trkpt lat="46.62569" lon="5.54793">
        <ele>292.99</ele>
        <time>2022-10-16T09:34:03Z</time>
      </trkpt>
      <trkpt lat="46.6257" lon="5.54793">
        <ele>293.07</ele>
        <time>2022-10-16T09:34:04Z</time>
      </trkpt>
      <trkpt lat="46.62583" lon="5.54787">
        <ele>291.02</ele>
        <time>2022-10-16T09:34:15Z</time>
      </trkpt>
      <trkpt lat="46.62592" lon="5.54782">
        <ele>290.11</ele>
        <time>2022-10-16T09:34:22Z</time>
      </trkpt>
      <trkpt lat="46.62593" lon="5.54782">
        <ele>289.91</ele>
        <time>2022-10-16T09:34:23Z</time>
      </trkpt>
      <trkpt lat="46.62594" lon="5.54783">
        <ele>289.91</ele>
        <time>2022-10-16T09:34:24Z</time>
      </trkpt>
      <trkpt lat="46.62597" lon="5.54783">
        <ele>289.93</ele>
        <time>2022-10-16T09:34:25Z</time>
      </trkpt>
      <trkpt lat="46.62599" lon="5.54783">
        <ele>289.94</ele>
        <time>2022-10-16T09:34:26Z</time>
      </trkpt>
      <trkpt lat="46.62619" lon="5.54783">
        <ele>289.94</ele>
        <time>2022-10-16T09:34:36Z</time>
      </trkpt>
      <trkpt lat="46.62623" lon="5.54783">
        <ele>289.82</ele>
        <time>2022-10-16T09:34:38Z</time>
      </trkpt>
      <trkpt lat="46.62626" lon="5.54782">
        <ele>289.8</ele>
        <time>2022-10-16T09:34:39Z</time>
      </trkpt>
      <trkpt lat="46.62629" lon="5.54782">
        <ele>289.78</ele>
        <time>2022-10-16T09:34:40Z</time>
      </trkpt>
      <trkpt lat="46.62633" lon="5.54781">
        <ele>289.83</ele>
        <time>2022-10-16T09:34:41Z</time>
      </trkpt>
      <trkpt lat="46.62636" lon="5.54779">
        <ele>289.82</ele>
        <time>2022-10-16T09:34:42Z</time>
      </trkpt>
      <trkpt lat="46.62659" lon="5.54755">
        <ele>289.77</ele>
        <time>2022-10-16T09:34:52Z</time>
      </trkpt>
      <trkpt lat="46.62673" lon="5.54741">
        <ele>289.66</ele>
        <time>2022-10-16T09:35:02Z</time>
      </trkpt>
      <trkpt lat="46.62675" lon="5.54739">
        <ele>289.68</ele>
        <time>2022-10-16T09:35:03Z</time>
      </trkpt>
      <trkpt lat="46.62683" lon="5.54729">
        <ele>289.6</ele>
        <time>2022-10-16T09:35:08Z</time>
      </trkpt>
      <trkpt lat="46.62684" lon="5.54728">
        <ele>288.62</ele>
        <time>2022-10-16T09:35:09Z</time>
      </trkpt>
      <trkpt lat="46.62704" lon="5.54709">
        <ele>288.65</ele>
        <time>2022-10-16T09:35:22Z</time>
      </trkpt>
      <trkpt lat="46.62717" lon="5.54698">
        <ele>286.85</ele>
        <time>2022-10-16T09:35:33Z</time>
      </trkpt>
      <trkpt lat="46.62724" lon="5.54695">
        <ele>287.01</ele>
        <time>2022-10-16T09:35:38Z</time>
      </trkpt>
      <trkpt lat="46.62745" lon="5.54686">
        <ele>285.78</ele>
        <time>2022-10-16T09:35:52Z</time>
      </trkpt>
      <trkpt lat="46.62757" lon="5.54678">
        <ele>283.04</ele>
        <time>2022-10-16T09:36:05Z</time>
      </trkpt>
      <trkpt lat="46.62766" lon="5.54683">
        <ele>282.3</ele>
        <time>2022-10-16T09:36:10Z</time>
      </trkpt>
      <trkpt lat="46.62769" lon="5.54685">
        <ele>282.07</ele>
        <time>2022-10-16T09:36:11Z</time>
      </trkpt>
      <trkpt lat="46.62772" lon="5.54687">
        <ele>282.1</ele>
        <time>2022-10-16T09:36:12Z</time>
      </trkpt>
      <trkpt lat="46.62774" lon="5.54688">
        <ele>282.1</ele>
        <time>2022-10-16T09:36:13Z</time>
      </trkpt>
      <trkpt lat="46.62775" lon="5.54688">
        <ele>282.1</ele>
        <time>2022-10-16T09:36:14Z</time>
      </trkpt>
      <trkpt lat="46.62777" lon="5.54689">
        <ele>282.1</ele>
        <time>2022-10-16T09:36:15Z</time>
      </trkpt>
      <trkpt lat="46.6278" lon="5.54689">
        <ele>281.25</ele>
        <time>2022-10-16T09:36:16Z</time>
      </trkpt>
      <trkpt lat="46.62783" lon="5.54689">
        <ele>281.25</ele>
        <time>2022-10-16T09:36:17Z</time>
      </trkpt>
      <trkpt lat="46.62785" lon="5.54689">
        <ele>281.25</ele>
        <time>2022-10-16T09:36:18Z</time>
      </trkpt>
      <trkpt lat="46.62788" lon="5.54691">
        <ele>281.34</ele>
        <time>2022-10-16T09:36:20Z</time>
      </trkpt>
      <trkpt lat="46.6279" lon="5.54692">
        <ele>281.38</ele>
        <time>2022-10-16T09:36:21Z</time>
      </trkpt>
      <trkpt lat="46.62797" lon="5.54694">
        <ele>280.09</ele>
        <time>2022-10-16T09:36:24Z</time>
      </trkpt>
      <trkpt lat="46.62817" lon="5.54688">
        <ele>279.27</ele>
        <time>2022-10-16T09:36:36Z</time>
      </trkpt>
      <trkpt lat="46.62818" lon="5.54688">
        <ele>277.74</ele>
        <time>2022-10-16T09:36:37Z</time>
      </trkpt>
      <trkpt lat="46.6282" lon="5.54688">
        <ele>277.78</ele>
        <time>2022-10-16T09:36:38Z</time>
      </trkpt>
      <trkpt lat="46.62831" lon="5.54684">
        <ele>276.89</ele>
        <time>2022-10-16T09:36:46Z</time>
      </trkpt>
      <trkpt lat="46.62832" lon="5.54683">
        <ele>275.37</ele>
        <time>2022-10-16T09:36:48Z</time>
      </trkpt>
      <trkpt lat="46.62843" lon="5.54676">
        <ele>274.41</ele>
        <time>2022-10-16T09:36:56Z</time>
      </trkpt>
      <trkpt lat="46.62846" lon="5.54676">
        <ele>272.97</ele>
        <time>2022-10-16T09:36:58Z</time>
      </trkpt>
      <trkpt lat="46.62864" lon="5.54662">
        <ele>271.49</ele>
        <time>2022-10-16T09:37:09Z</time>
      </trkpt>
      <trkpt lat="46.62865" lon="5.54661">
        <ele>271.31</ele>
        <time>2022-10-16T09:37:10Z</time>
      </trkpt>
      <trkpt lat="46.62903" lon="5.54643">
        <ele>267.83</ele>
        <time>2022-10-16T09:37:31Z</time>
      </trkpt>
      <trkpt lat="46.62906" lon="5.54644">
        <ele>267.83</ele>
        <time>2022-10-16T09:37:32Z</time>
      </trkpt>
      <trkpt lat="46.62916" lon="5.54642">
        <ele>270.54</ele>
        <time>2022-10-16T09:37:36Z</time>
      </trkpt>
      <trkpt lat="46.6293" lon="5.5464">
        <ele>267.78</ele>
        <time>2022-10-16T09:37:41Z</time>
      </trkpt>
      <trkpt lat="46.62962" lon="5.54633">
        <ele>265.98</ele>
        <time>2022-10-16T09:38:00Z</time>
      </trkpt>
      <trkpt lat="46.62989" lon="5.5463">
        <ele>266.35</ele>
        <time>2022-10-16T09:38:17Z</time>
      </trkpt>
      <trkpt lat="46.63016" lon="5.54627">
        <ele>266.55</ele>
        <time>2022-10-16T09:38:34Z</time>
      </trkpt>
      <trkpt lat="46.63043" lon="5.54643">
        <ele>266.93</ele>
        <time>2022-10-16T09:38:53Z</time>
      </trkpt>
      <trkpt lat="46.63046" lon="5.5465">
        <ele>265.68</ele>
        <time>2022-10-16T09:38:58Z</time>
      </trkpt>
      <trkpt lat="46.63047" lon="5.54654">
        <ele>262.43</ele>
        <time>2022-10-16T09:39:01Z</time>
      </trkpt>
      <trkpt lat="46.63047" lon="5.54656">
        <ele>267.23</ele>
        <time>2022-10-16T09:39:02Z</time>
      </trkpt>
      <trkpt lat="46.63047" lon="5.54657">
        <ele>267.25</ele>
        <time>2022-10-16T09:39:03Z</time>
      </trkpt>
      <trkpt lat="46.63043" lon="5.54663">
        <ele>265.09</ele>
        <time>2022-10-16T09:39:11Z</time>
      </trkpt>
      <trkpt lat="46.63042" lon="5.54663">
        <ele>265.12</ele>
        <time>2022-10-16T09:39:12Z</time>
      </trkpt>
      <trkpt lat="46.63036" lon="5.54665">
        <ele>266.73</ele>
        <time>2022-10-16T09:39:17Z</time>
      </trkpt>
      <trkpt lat="46.63028" lon="5.54666">
        <ele>268.11</ele>
        <time>2022-10-16T09:39:27Z</time>
      </trkpt>
      <trkpt lat="46.63019" lon="5.54669">
        <ele>269</ele>
        <time>2022-10-16T09:39:35Z</time>
      </trkpt>
      <trkpt lat="46.63018" lon="5.54669">
        <ele>269.04</ele>
        <time>2022-10-16T09:39:36Z</time>
      </trkpt>
      <trkpt lat="46.63008" lon="5.54668">
        <ele>270.53</ele>
        <time>2022-10-16T09:39:48Z</time>
      </trkpt>
      <trkpt lat="46.63006" lon="5.54667">
        <ele>270.47</ele>
        <time>2022-10-16T09:39:49Z</time>
      </trkpt>
      <trkpt lat="46.63005" lon="5.54667">
        <ele>270.49</ele>
        <time>2022-10-16T09:39:50Z</time>
      </trkpt>
      <trkpt lat="46.63003" lon="5.54665">
        <ele>270.56</ele>
        <time>2022-10-16T09:39:51Z</time>
      </trkpt>
      <trkpt lat="46.63002" lon="5.54665">
        <ele>270.52</ele>
        <time>2022-10-16T09:39:52Z</time>
      </trkpt>
      <trkpt lat="46.63001" lon="5.54664">
        <ele>270.68</ele>
        <time>2022-10-16T09:39:53Z</time>
      </trkpt>
      <trkpt lat="46.62999" lon="5.54663">
        <ele>270.54</ele>
        <time>2022-10-16T09:39:54Z</time>
      </trkpt>
      <trkpt lat="46.62998" lon="5.54663">
        <ele>270.55</ele>
        <time>2022-10-16T09:39:55Z</time>
      </trkpt>
      <trkpt lat="46.62979" lon="5.54668">
        <ele>272.75</ele>
        <time>2022-10-16T09:40:07Z</time>
      </trkpt>
      <trkpt lat="46.62977" lon="5.54669">
        <ele>272.59</ele>
        <time>2022-10-16T09:40:08Z</time>
      </trkpt>
      <trkpt lat="46.62974" lon="5.54671">
        <ele>272.79</ele>
        <time>2022-10-16T09:40:10Z</time>
      </trkpt>
      <trkpt lat="46.62972" lon="5.54672">
        <ele>272.87</ele>
        <time>2022-10-16T09:40:11Z</time>
      </trkpt>
      <trkpt lat="46.6297" lon="5.54675">
        <ele>272.63</ele>
        <time>2022-10-16T09:40:13Z</time>
      </trkpt>
      <trkpt lat="46.62958" lon="5.54685">
        <ele>272.67</ele>
        <time>2022-10-16T09:40:21Z</time>
      </trkpt>
      <trkpt lat="46.62957" lon="5.54686">
        <ele>272.82</ele>
        <time>2022-10-16T09:40:22Z</time>
      </trkpt>
      <trkpt lat="46.62956" lon="5.54687">
        <ele>272.94</ele>
        <time>2022-10-16T09:40:23Z</time>
      </trkpt>
      <trkpt lat="46.62948" lon="5.54687">
        <ele>273.63</ele>
        <time>2022-10-16T09:40:28Z</time>
      </trkpt>
      <trkpt lat="46.62946" lon="5.54688">
        <ele>273.71</ele>
        <time>2022-10-16T09:40:29Z</time>
      </trkpt>
      <trkpt lat="46.62943" lon="5.54689">
        <ele>273.7</ele>
        <time>2022-10-16T09:40:30Z</time>
      </trkpt>
      <trkpt lat="46.62941" lon="5.54689">
        <ele>273.71</ele>
        <time>2022-10-16T09:40:31Z</time>
      </trkpt>
      <trkpt lat="46.62939" lon="5.5469">
        <ele>273.61</ele>
        <time>2022-10-16T09:40:32Z</time>
      </trkpt>
      <trkpt lat="46.62915" lon="5.54696">
        <ele>273.64</ele>
        <time>2022-10-16T09:40:44Z</time>
      </trkpt>
      <trkpt lat="46.62906" lon="5.54703">
        <ele>273.45</ele>
        <time>2022-10-16T09:40:50Z</time>
      </trkpt>
      <trkpt lat="46.62904" lon="5.54704">
        <ele>273.49</ele>
        <time>2022-10-16T09:40:51Z</time>
      </trkpt>
      <trkpt lat="46.629" lon="5.54703">
        <ele>273.49</ele>
        <time>2022-10-16T09:40:53Z</time>
      </trkpt>
      <trkpt lat="46.62895" lon="5.54709">
        <ele>273.44</ele>
        <time>2022-10-16T09:40:58Z</time>
      </trkpt>
      <trkpt lat="46.62891" lon="5.54714">
        <ele>273.56</ele>
        <time>2022-10-16T09:41:02Z</time>
      </trkpt>
      <trkpt lat="46.62889" lon="5.54715">
        <ele>273.41</ele>
        <time>2022-10-16T09:41:03Z</time>
      </trkpt>
      <trkpt lat="46.62888" lon="5.54716">
        <ele>273.42</ele>
        <time>2022-10-16T09:41:04Z</time>
      </trkpt>
      <trkpt lat="46.62887" lon="5.54719">
        <ele>273.53</ele>
        <time>2022-10-16T09:41:06Z</time>
      </trkpt>
      <trkpt lat="46.62886" lon="5.54721">
        <ele>273.39</ele>
        <time>2022-10-16T09:41:07Z</time>
      </trkpt>
      <trkpt lat="46.62882" lon="5.54728">
        <ele>273.49</ele>
        <time>2022-10-16T09:41:12Z</time>
      </trkpt>
      <trkpt lat="46.62876" lon="5.54738">
        <ele>274.46</ele>
        <time>2022-10-16T09:41:19Z</time>
      </trkpt>
      <trkpt lat="46.62864" lon="5.54755">
        <ele>274.31</ele>
        <time>2022-10-16T09:41:30Z</time>
      </trkpt>
      <trkpt lat="46.6286" lon="5.54762">
        <ele>275.54</ele>
        <time>2022-10-16T09:41:34Z</time>
      </trkpt>
      <trkpt lat="46.62856" lon="5.54767">
        <ele>275.39</ele>
        <time>2022-10-16T09:41:38Z</time>
      </trkpt>
      <trkpt lat="46.6285" lon="5.54775">
        <ele>276.15</ele>
        <time>2022-10-16T09:41:46Z</time>
      </trkpt>
      <trkpt lat="46.62843" lon="5.54778">
        <ele>278.11</ele>
        <time>2022-10-16T09:41:52Z</time>
      </trkpt>
      <trkpt lat="46.62839" lon="5.54783">
        <ele>278.04</ele>
        <time>2022-10-16T09:41:56Z</time>
      </trkpt>
      <trkpt lat="46.62832" lon="5.54795">
        <ele>279.73</ele>
        <time>2022-10-16T09:42:07Z</time>
      </trkpt>
      <trkpt lat="46.62829" lon="5.54798">
        <ele>279.84</ele>
        <time>2022-10-16T09:42:10Z</time>
      </trkpt>
      <trkpt lat="46.62824" lon="5.54802">
        <ele>279.61</ele>
        <time>2022-10-16T09:42:14Z</time>
      </trkpt>
      <trkpt lat="46.62823" lon="5.54803">
        <ele>279.73</ele>
        <time>2022-10-16T09:42:15Z</time>
      </trkpt>
      <trkpt lat="46.62813" lon="5.54818">
        <ele>281.51</ele>
        <time>2022-10-16T09:42:25Z</time>
      </trkpt>
      <trkpt lat="46.62806" lon="5.5483">
        <ele>283.17</ele>
        <time>2022-10-16T09:42:35Z</time>
      </trkpt>
      <trkpt lat="46.62794" lon="5.54854">
        <ele>286.92</ele>
        <time>2022-10-16T09:43:05Z</time>
      </trkpt>
      <trkpt lat="46.6279" lon="5.54856">
        <ele>287.83</ele>
        <time>2022-10-16T09:43:09Z</time>
      </trkpt>
      <trkpt lat="46.62783" lon="5.54855">
        <ele>289.73</ele>
        <time>2022-10-16T09:43:16Z</time>
      </trkpt>
      <trkpt lat="46.62768" lon="5.54871">
        <ele>289.67</ele>
        <time>2022-10-16T09:43:19Z</time>
      </trkpt>
      <trkpt lat="46.62762" lon="5.54871">
        <ele>292.22</ele>
        <time>2022-10-16T09:43:27Z</time>
      </trkpt>
      <trkpt lat="46.62761" lon="5.5487">
        <ele>292.27</ele>
        <time>2022-10-16T09:43:28Z</time>
      </trkpt>
      <trkpt lat="46.62749" lon="5.54868">
        <ele>295.46</ele>
        <time>2022-10-16T09:43:42Z</time>
      </trkpt>
      <trkpt lat="46.62748" lon="5.54868">
        <ele>295.24</ele>
        <time>2022-10-16T09:43:43Z</time>
      </trkpt>
      <trkpt lat="46.6274" lon="5.5487">
        <ele>296.39</ele>
        <time>2022-10-16T09:43:52Z</time>
      </trkpt>
      <trkpt lat="46.62739" lon="5.5487">
        <ele>297.38</ele>
        <time>2022-10-16T09:43:53Z</time>
      </trkpt>
      <trkpt lat="46.62732" lon="5.54871">
        <ele>299.22</ele>
        <time>2022-10-16T09:44:03Z</time>
      </trkpt>
      <trkpt lat="46.62718" lon="5.54873">
        <ele>301.21</ele>
        <time>2022-10-16T09:44:18Z</time>
      </trkpt>
      <trkpt lat="46.62695" lon="5.54885">
        <ele>304.37</ele>
        <time>2022-10-16T09:44:30Z</time>
      </trkpt>
      <trkpt lat="46.6269" lon="5.54886">
        <ele>305.01</ele>
        <time>2022-10-16T09:44:32Z</time>
      </trkpt>
      <trkpt lat="46.62689" lon="5.54888">
        <ele>304.98</ele>
        <time>2022-10-16T09:44:33Z</time>
      </trkpt>
      <trkpt lat="46.62682" lon="5.5489">
        <ele>304.98</ele>
        <time>2022-10-16T09:44:37Z</time>
      </trkpt>
      <trkpt lat="46.62678" lon="5.5489">
        <ele>306.25</ele>
        <time>2022-10-16T09:44:40Z</time>
      </trkpt>
      <trkpt lat="46.62674" lon="5.54891">
        <ele>306.04</ele>
        <time>2022-10-16T09:44:42Z</time>
      </trkpt>
      <trkpt lat="46.62652" lon="5.54911">
        <ele>308.94</ele>
        <time>2022-10-16T09:44:56Z</time>
      </trkpt>
      <trkpt lat="46.62626" lon="5.54923">
        <ele>310.58</ele>
        <time>2022-10-16T09:45:13Z</time>
      </trkpt>
      <trkpt lat="46.62626" lon="5.54924">
        <ele>310.57</ele>
        <time>2022-10-16T09:45:14Z</time>
      </trkpt>
      <trkpt lat="46.62622" lon="5.54929">
        <ele>311.92</ele>
        <time>2022-10-16T09:45:18Z</time>
      </trkpt>
      <trkpt lat="46.62619" lon="5.5493">
        <ele>311.91</ele>
        <time>2022-10-16T09:45:19Z</time>
      </trkpt>
      <trkpt lat="46.62618" lon="5.5493">
        <ele>312</ele>
        <time>2022-10-16T09:45:20Z</time>
      </trkpt>
      <trkpt lat="46.62608" lon="5.5494">
        <ele>312.79</ele>
        <time>2022-10-16T09:45:28Z</time>
      </trkpt>
      <trkpt lat="46.626" lon="5.54945">
        <ele>312.64</ele>
        <time>2022-10-16T09:45:33Z</time>
      </trkpt>
      <trkpt lat="46.62591" lon="5.5495">
        <ele>312.7</ele>
        <time>2022-10-16T09:45:41Z</time>
      </trkpt>
      <trkpt lat="46.62582" lon="5.54959">
        <ele>315</ele>
        <time>2022-10-16T09:45:53Z</time>
      </trkpt>
      <trkpt lat="46.62566" lon="5.54971">
        <ele>317.62</ele>
        <time>2022-10-16T09:46:11Z</time>
      </trkpt>
      <trkpt lat="46.62565" lon="5.54971">
        <ele>317.76</ele>
        <time>2022-10-16T09:46:12Z</time>
      </trkpt>
      <trkpt lat="46.62557" lon="5.54977">
        <ele>317.67</ele>
        <time>2022-10-16T09:46:17Z</time>
      </trkpt>
      <trkpt lat="46.62556" lon="5.54977">
        <ele>317.52</ele>
        <time>2022-10-16T09:46:18Z</time>
      </trkpt>
      <trkpt lat="46.62547" lon="5.54986">
        <ele>318.31</ele>
        <time>2022-10-16T09:46:23Z</time>
      </trkpt>
      <trkpt lat="46.62527" lon="5.55001">
        <ele>320.08</ele>
        <time>2022-10-16T09:46:33Z</time>
      </trkpt>
      <trkpt lat="46.62521" lon="5.55005">
        <ele>320.97</ele>
        <time>2022-10-16T09:46:39Z</time>
      </trkpt>
      <trkpt lat="46.62519" lon="5.55007">
        <ele>322.54</ele>
        <time>2022-10-16T09:46:41Z</time>
      </trkpt>
      <trkpt lat="46.6251" lon="5.55016">
        <ele>325.35</ele>
        <time>2022-10-16T09:46:52Z</time>
      </trkpt>
      <trkpt lat="46.62499" lon="5.55026">
        <ele>326.97</ele>
        <time>2022-10-16T09:47:03Z</time>
      </trkpt>
      <trkpt lat="46.62477" lon="5.55043">
        <ele>329.5</ele>
        <time>2022-10-16T09:47:13Z</time>
      </trkpt>
      <trkpt lat="46.62455" lon="5.55074">
        <ele>333.31</ele>
        <time>2022-10-16T09:47:39Z</time>
      </trkpt>
      <trkpt lat="46.62443" lon="5.5508">
        <ele>334.38</ele>
        <time>2022-10-16T09:47:49Z</time>
      </trkpt>
      <trkpt lat="46.62425" lon="5.55107">
        <ele>336.57</ele>
        <time>2022-10-16T09:48:06Z</time>
      </trkpt>
      <trkpt lat="46.62424" lon="5.55109">
        <ele>337.65</ele>
        <time>2022-10-16T09:48:07Z</time>
      </trkpt>
      <trkpt lat="46.62425" lon="5.55121">
        <ele>339.45</ele>
        <time>2022-10-16T09:48:15Z</time>
      </trkpt>
      <trkpt lat="46.62432" lon="5.55125">
        <ele>341.97</ele>
        <time>2022-10-16T09:48:24Z</time>
      </trkpt>
      <trkpt lat="46.62438" lon="5.55125">
        <ele>344.09</ele>
        <time>2022-10-16T09:48:36Z</time>
      </trkpt>
      <trkpt lat="46.62444" lon="5.55116">
        <ele>345.94</ele>
        <time>2022-10-16T09:48:49Z</time>
      </trkpt>
      <trkpt lat="46.62443" lon="5.5513">
        <ele>345.84</ele>
        <time>2022-10-16T09:49:04Z</time>
      </trkpt>
      <trkpt lat="46.62443" lon="5.55133">
        <ele>345.82</ele>
        <time>2022-10-16T09:49:06Z</time>
      </trkpt>
      <trkpt lat="46.62442" lon="5.55135">
        <ele>345.84</ele>
        <time>2022-10-16T09:49:07Z</time>
      </trkpt>
      <trkpt lat="46.6244" lon="5.55139">
        <ele>346.83</ele>
        <time>2022-10-16T09:49:10Z</time>
      </trkpt>
      <trkpt lat="46.62439" lon="5.55141">
        <ele>349.01</ele>
        <time>2022-10-16T09:49:11Z</time>
      </trkpt>
      <trkpt lat="46.62439" lon="5.55142">
        <ele>348.93</ele>
        <time>2022-10-16T09:49:12Z</time>
      </trkpt>
      <trkpt lat="46.62446" lon="5.5515">
        <ele>349.84</ele>
        <time>2022-10-16T09:49:18Z</time>
      </trkpt>
      <trkpt lat="46.62447" lon="5.55151">
        <ele>349.85</ele>
        <time>2022-10-16T09:49:19Z</time>
      </trkpt>
      <trkpt lat="46.62448" lon="5.55151">
        <ele>349.79</ele>
        <time>2022-10-16T09:49:20Z</time>
      </trkpt>
      <trkpt lat="46.6245" lon="5.55151">
        <ele>349.84</ele>
        <time>2022-10-16T09:49:21Z</time>
      </trkpt>
      <trkpt lat="46.62451" lon="5.55151">
        <ele>349.84</ele>
        <time>2022-10-16T09:49:22Z</time>
      </trkpt>
      <trkpt lat="46.62453" lon="5.55151">
        <ele>349.85</ele>
        <time>2022-10-16T09:49:23Z</time>
      </trkpt>
      <trkpt lat="46.62478" lon="5.55127">
        <ele>353.29</ele>
        <time>2022-10-16T09:49:46Z</time>
      </trkpt>
      <trkpt lat="46.62499" lon="5.5511">
        <ele>354.1</ele>
        <time>2022-10-16T09:50:02Z</time>
      </trkpt>
      <trkpt lat="46.62501" lon="5.55109">
        <ele>354.22</ele>
        <time>2022-10-16T09:50:03Z</time>
      </trkpt>
      <trkpt lat="46.62516" lon="5.55108">
        <ele>354.21</ele>
        <time>2022-10-16T09:50:16Z</time>
      </trkpt>
      <trkpt lat="46.62519" lon="5.55108">
        <ele>354.16</ele>
        <time>2022-10-16T09:50:18Z</time>
      </trkpt>
      <trkpt lat="46.6252" lon="5.55108">
        <ele>354.23</ele>
        <time>2022-10-16T09:50:19Z</time>
      </trkpt>
      <trkpt lat="46.62521" lon="5.55108">
        <ele>354.25</ele>
        <time>2022-10-16T09:50:20Z</time>
      </trkpt>
      <trkpt lat="46.62526" lon="5.55109">
        <ele>355.76</ele>
        <time>2022-10-16T09:50:24Z</time>
      </trkpt>
      <trkpt lat="46.62538" lon="5.55109">
        <ele>357.68</ele>
        <time>2022-10-16T09:50:35Z</time>
      </trkpt>
      <trkpt lat="46.62542" lon="5.55107">
        <ele>357.49</ele>
        <time>2022-10-16T09:50:39Z</time>
      </trkpt>
      <trkpt lat="46.62544" lon="5.55106">
        <ele>357.62</ele>
        <time>2022-10-16T09:50:40Z</time>
      </trkpt>
      <trkpt lat="46.62557" lon="5.55101">
        <ele>360.24</ele>
        <time>2022-10-16T09:50:50Z</time>
      </trkpt>
      <trkpt lat="46.62558" lon="5.55101">
        <ele>360.25</ele>
        <time>2022-10-16T09:50:51Z</time>
      </trkpt>
      <trkpt lat="46.6256" lon="5.551">
        <ele>360.22</ele>
        <time>2022-10-16T09:50:52Z</time>
      </trkpt>
      <trkpt lat="46.62579" lon="5.55086">
        <ele>361.41</ele>
        <time>2022-10-16T09:51:04Z</time>
      </trkpt>
      <trkpt lat="46.62602" lon="5.55081">
        <ele>362.58</ele>
        <time>2022-10-16T09:51:18Z</time>
      </trkpt>
      <trkpt lat="46.62622" lon="5.5508">
        <ele>363.75</ele>
        <time>2022-10-16T09:51:32Z</time>
      </trkpt>
      <trkpt lat="46.62633" lon="5.5508">
        <ele>365.69</ele>
        <time>2022-10-16T09:51:37Z</time>
      </trkpt>
      <trkpt lat="46.62658" lon="5.55073">
        <ele>365.92</ele>
        <time>2022-10-16T09:51:51Z</time>
      </trkpt>
      <trkpt lat="46.62661" lon="5.55072">
        <ele>367.98</ele>
        <time>2022-10-16T09:51:53Z</time>
      </trkpt>
      <trkpt lat="46.62684" lon="5.55062">
        <ele>369.42</ele>
        <time>2022-10-16T09:52:08Z</time>
      </trkpt>
      <trkpt lat="46.62706" lon="5.55055">
        <ele>369.73</ele>
        <time>2022-10-16T09:52:26Z</time>
      </trkpt>
      <trkpt lat="46.62714" lon="5.55054">
        <ele>371.07</ele>
        <time>2022-10-16T09:52:33Z</time>
      </trkpt>
      <trkpt lat="46.62718" lon="5.55055">
        <ele>372.97</ele>
        <time>2022-10-16T09:52:36Z</time>
      </trkpt>
      <trkpt lat="46.62729" lon="5.55055">
        <ele>373.14</ele>
        <time>2022-10-16T09:52:44Z</time>
      </trkpt>
      <trkpt lat="46.6273" lon="5.55054">
        <ele>373.2</ele>
        <time>2022-10-16T09:52:45Z</time>
      </trkpt>
      <trkpt lat="46.6275" lon="5.55055">
        <ele>374.63</ele>
        <time>2022-10-16T09:53:00Z</time>
      </trkpt>
      <trkpt lat="46.62752" lon="5.55055">
        <ele>374.61</ele>
        <time>2022-10-16T09:53:01Z</time>
      </trkpt>
      <trkpt lat="46.62762" lon="5.55055">
        <ele>376.25</ele>
        <time>2022-10-16T09:53:09Z</time>
      </trkpt>
      <trkpt lat="46.62782" lon="5.55049">
        <ele>376.48</ele>
        <time>2022-10-16T09:53:24Z</time>
      </trkpt>
      <trkpt lat="46.62804" lon="5.55041">
        <ele>380.04</ele>
        <time>2022-10-16T09:53:38Z</time>
      </trkpt>
      <trkpt lat="46.62823" lon="5.55037">
        <ele>380.25</ele>
        <time>2022-10-16T09:53:51Z</time>
      </trkpt>
      <trkpt lat="46.62845" lon="5.55028">
        <ele>380.6</ele>
        <time>2022-10-16T09:54:08Z</time>
      </trkpt>
      <trkpt lat="46.62847" lon="5.55027">
        <ele>380.53</ele>
        <time>2022-10-16T09:54:09Z</time>
      </trkpt>
      <trkpt lat="46.62849" lon="5.55026">
        <ele>380.66</ele>
        <time>2022-10-16T09:54:10Z</time>
      </trkpt>
      <trkpt lat="46.62851" lon="5.55024">
        <ele>380.7</ele>
        <time>2022-10-16T09:54:11Z</time>
      </trkpt>
      <trkpt lat="46.62856" lon="5.55016">
        <ele>382.85</ele>
        <time>2022-10-16T09:54:16Z</time>
      </trkpt>
      <trkpt lat="46.62861" lon="5.55012">
        <ele>385.47</ele>
        <time>2022-10-16T09:54:22Z</time>
      </trkpt>
      <trkpt lat="46.62869" lon="5.55004">
        <ele>388.71</ele>
        <time>2022-10-16T09:54:31Z</time>
      </trkpt>
      <trkpt lat="46.62872" lon="5.55">
        <ele>390.03</ele>
        <time>2022-10-16T09:54:35Z</time>
      </trkpt>
      <trkpt lat="46.62875" lon="5.54995">
        <ele>391.92</ele>
        <time>2022-10-16T09:54:39Z</time>
      </trkpt>
      <trkpt lat="46.62876" lon="5.54993">
        <ele>391.93</ele>
        <time>2022-10-16T09:54:40Z</time>
      </trkpt>
      <trkpt lat="46.62877" lon="5.54992">
        <ele>393.59</ele>
        <time>2022-10-16T09:54:41Z</time>
      </trkpt>
      <trkpt lat="46.62878" lon="5.54991">
        <ele>393.56</ele>
        <time>2022-10-16T09:54:42Z</time>
      </trkpt>
      <trkpt lat="46.62897" lon="5.54984">
        <ele>394.87</ele>
        <time>2022-10-16T09:54:58Z</time>
      </trkpt>
      <trkpt lat="46.62909" lon="5.54979">
        <ele>398.3</ele>
        <time>2022-10-16T09:55:09Z</time>
      </trkpt>
      <trkpt lat="46.62917" lon="5.54974">
        <ele>401.08</ele>
        <time>2022-10-16T09:55:17Z</time>
      </trkpt>
      <trkpt lat="46.62929" lon="5.54967">
        <ele>402.25</ele>
        <time>2022-10-16T09:55:29Z</time>
      </trkpt>
      <trkpt lat="46.6293" lon="5.54966">
        <ele>402.28</ele>
        <time>2022-10-16T09:55:30Z</time>
      </trkpt>
      <trkpt lat="46.62931" lon="5.54965">
        <ele>402.28</ele>
        <time>2022-10-16T09:55:31Z</time>
      </trkpt>
      <trkpt lat="46.62939" lon="5.54962">
        <ele>402.34</ele>
        <time>2022-10-16T09:55:37Z</time>
      </trkpt>
      <trkpt lat="46.6294" lon="5.54962">
        <ele>402.34</ele>
        <time>2022-10-16T09:55:38Z</time>
      </trkpt>
      <trkpt lat="46.62959" lon="5.54954">
        <ele>402.58</ele>
        <time>2022-10-16T09:55:53Z</time>
      </trkpt>
      <trkpt lat="46.62984" lon="5.5494">
        <ele>404.74</ele>
        <time>2022-10-16T09:56:11Z</time>
      </trkpt>
      <trkpt lat="46.62987" lon="5.54937">
        <ele>405.98</ele>
        <time>2022-10-16T09:56:13Z</time>
      </trkpt>
      <trkpt lat="46.62992" lon="5.5493">
        <ele>403.62</ele>
        <time>2022-10-16T09:56:18Z</time>
      </trkpt>
      <trkpt lat="46.6301" lon="5.54919">
        <ele>402.22</ele>
        <time>2022-10-16T09:56:34Z</time>
      </trkpt>
      <trkpt lat="46.63014" lon="5.5492">
        <ele>402.27</ele>
        <time>2022-10-16T09:56:40Z</time>
      </trkpt>
      <trkpt lat="46.63016" lon="5.5492">
        <ele>402.3</ele>
        <time>2022-10-16T09:56:41Z</time>
      </trkpt>
      <trkpt lat="46.63017" lon="5.54921">
        <ele>402.32</ele>
        <time>2022-10-16T09:56:42Z</time>
      </trkpt>
      <trkpt lat="46.63039" lon="5.5493">
        <ele>401.78</ele>
        <time>2022-10-16T09:56:59Z</time>
      </trkpt>
      <trkpt lat="46.63057" lon="5.54935">
        <ele>400.52</ele>
        <time>2022-10-16T09:57:10Z</time>
      </trkpt>
      <trkpt lat="46.6307" lon="5.54937">
        <ele>398.98</ele>
        <time>2022-10-16T09:57:19Z</time>
      </trkpt>
      <trkpt lat="46.63082" lon="5.54938">
        <ele>396.75</ele>
        <time>2022-10-16T09:57:27Z</time>
      </trkpt>
      <trkpt lat="46.63094" lon="5.54937">
        <ele>394.55</ele>
        <time>2022-10-16T09:57:36Z</time>
      </trkpt>
      <trkpt lat="46.63106" lon="5.54946">
        <ele>394.85</ele>
        <time>2022-10-16T09:57:50Z</time>
      </trkpt>
      <trkpt lat="46.63108" lon="5.54948">
        <ele>397.77</ele>
        <time>2022-10-16T09:57:52Z</time>
      </trkpt>
      <trkpt lat="46.63113" lon="5.54954">
        <ele>394.97</ele>
        <time>2022-10-16T09:58:02Z</time>
      </trkpt>
      <trkpt lat="46.63129" lon="5.54961">
        <ele>392.63</ele>
        <time>2022-10-16T09:58:14Z</time>
      </trkpt>
      <trkpt lat="46.63138" lon="5.54962">
        <ele>390.72</ele>
        <time>2022-10-16T09:58:20Z</time>
      </trkpt>
      <trkpt lat="46.63148" lon="5.54967">
        <ele>389.86</ele>
        <time>2022-10-16T09:58:29Z</time>
      </trkpt>
      <trkpt lat="46.63151" lon="5.54969">
        <ele>392.29</ele>
        <time>2022-10-16T09:58:31Z</time>
      </trkpt>
      <trkpt lat="46.63152" lon="5.54971">
        <ele>393.9</ele>
        <time>2022-10-16T09:58:33Z</time>
      </trkpt>
      <trkpt lat="46.63152" lon="5.54975">
        <ele>394.98</ele>
        <time>2022-10-16T09:58:37Z</time>
      </trkpt>
      <trkpt lat="46.63152" lon="5.54977">
        <ele>396.77</ele>
        <time>2022-10-16T09:58:40Z</time>
      </trkpt>
      <trkpt lat="46.63152" lon="5.54982">
        <ele>396.79</ele>
        <time>2022-10-16T09:58:44Z</time>
      </trkpt>
      <trkpt lat="46.63152" lon="5.54997">
        <ele>398.74</ele>
        <time>2022-10-16T09:58:57Z</time>
      </trkpt>
      <trkpt lat="46.63151" lon="5.55007">
        <ele>395.65</ele>
        <time>2022-10-16T09:59:04Z</time>
      </trkpt>
      <trkpt lat="46.6315" lon="5.55008">
        <ele>395.7</ele>
        <time>2022-10-16T09:59:05Z</time>
      </trkpt>
      <trkpt lat="46.63159" lon="5.55021">
        <ele>398.09</ele>
        <time>2022-10-16T09:59:16Z</time>
      </trkpt>
      <trkpt lat="46.63159" lon="5.55023">
        <ele>398.08</ele>
        <time>2022-10-16T09:59:17Z</time>
      </trkpt>
      <trkpt lat="46.63155" lon="5.55033">
        <ele>398.11</ele>
        <time>2022-10-16T09:59:22Z</time>
      </trkpt>
      <trkpt lat="46.63154" lon="5.55037">
        <ele>398.08</ele>
        <time>2022-10-16T09:59:24Z</time>
      </trkpt>
      <trkpt lat="46.63153" lon="5.55039">
        <ele>398.11</ele>
        <time>2022-10-16T09:59:25Z</time>
      </trkpt>
      <trkpt lat="46.63151" lon="5.55042">
        <ele>398.11</ele>
        <time>2022-10-16T09:59:26Z</time>
      </trkpt>
      <trkpt lat="46.63146" lon="5.5507">
        <ele>398.1</ele>
        <time>2022-10-16T09:59:38Z</time>
      </trkpt>
      <trkpt lat="46.63147" lon="5.55082">
        <ele>398.11</ele>
        <time>2022-10-16T09:59:43Z</time>
      </trkpt>
      <trkpt lat="46.63143" lon="5.55096">
        <ele>395.34</ele>
        <time>2022-10-16T09:59:50Z</time>
      </trkpt>
      <trkpt lat="46.63134" lon="5.55121">
        <ele>394.68</ele>
        <time>2022-10-16T10:00:03Z</time>
      </trkpt>
      <trkpt lat="46.6313" lon="5.55159">
        <ele>394.83</ele>
        <time>2022-10-16T10:00:17Z</time>
      </trkpt>
      <trkpt lat="46.63126" lon="5.55182">
        <ele>392.25</ele>
        <time>2022-10-16T10:00:28Z</time>
      </trkpt>
      <trkpt lat="46.63127" lon="5.55191">
        <ele>391.03</ele>
        <time>2022-10-16T10:00:32Z</time>
      </trkpt>
      <trkpt lat="46.63144" lon="5.55214">
        <ele>390.41</ele>
        <time>2022-10-16T10:00:47Z</time>
      </trkpt>
      <trkpt lat="46.63169" lon="5.55232">
        <ele>390.65</ele>
        <time>2022-10-16T10:01:02Z</time>
      </trkpt>
      <trkpt lat="46.63182" lon="5.55233">
        <ele>390.75</ele>
        <time>2022-10-16T10:01:12Z</time>
      </trkpt>
      <trkpt lat="46.63183" lon="5.55233">
        <ele>390.76</ele>
        <time>2022-10-16T10:01:13Z</time>
      </trkpt>
      <trkpt lat="46.63184" lon="5.55234">
        <ele>390.77</ele>
        <time>2022-10-16T10:01:14Z</time>
      </trkpt>
      <trkpt lat="46.63189" lon="5.55237">
        <ele>390.01</ele>
        <time>2022-10-16T10:01:20Z</time>
      </trkpt>
      <trkpt lat="46.63194" lon="5.55251">
        <ele>390.07</ele>
        <time>2022-10-16T10:01:26Z</time>
      </trkpt>
      <trkpt lat="46.63194" lon="5.55253">
        <ele>390.08</ele>
        <time>2022-10-16T10:01:27Z</time>
      </trkpt>
      <trkpt lat="46.63193" lon="5.55259">
        <ele>390.04</ele>
        <time>2022-10-16T10:01:31Z</time>
      </trkpt>
      <trkpt lat="46.63189" lon="5.55273">
        <ele>390.16</ele>
        <time>2022-10-16T10:01:39Z</time>
      </trkpt>
      <trkpt lat="46.63195" lon="5.55291">
        <ele>387.55</ele>
        <time>2022-10-16T10:01:55Z</time>
      </trkpt>
      <trkpt lat="46.63212" lon="5.55302">
        <ele>384.78</ele>
        <time>2022-10-16T10:02:09Z</time>
      </trkpt>
      <trkpt lat="46.63219" lon="5.55307">
        <ele>383.56</ele>
        <time>2022-10-16T10:02:16Z</time>
      </trkpt>
      <trkpt lat="46.63231" lon="5.55313">
        <ele>381.68</ele>
        <time>2022-10-16T10:02:27Z</time>
      </trkpt>
      <trkpt lat="46.63244" lon="5.55323">
        <ele>380.28</ele>
        <time>2022-10-16T10:02:37Z</time>
      </trkpt>
      <trkpt lat="46.63265" lon="5.5533">
        <ele>379.17</ele>
        <time>2022-10-16T10:02:49Z</time>
      </trkpt>
      <trkpt lat="46.63281" lon="5.55334">
        <ele>377.07</ele>
        <time>2022-10-16T10:02:58Z</time>
      </trkpt>
      <trkpt lat="46.63284" lon="5.55335">
        <ele>377.06</ele>
        <time>2022-10-16T10:02:59Z</time>
      </trkpt>
      <trkpt lat="46.63299" lon="5.55333">
        <ele>375.56</ele>
        <time>2022-10-16T10:03:08Z</time>
      </trkpt>
      <trkpt lat="46.63315" lon="5.55328">
        <ele>373.79</ele>
        <time>2022-10-16T10:03:17Z</time>
      </trkpt>
      <trkpt lat="46.63317" lon="5.55327">
        <ele>373.71</ele>
        <time>2022-10-16T10:03:18Z</time>
      </trkpt>
      <trkpt lat="46.63319" lon="5.55325">
        <ele>373.75</ele>
        <time>2022-10-16T10:03:19Z</time>
      </trkpt>
      <trkpt lat="46.6336" lon="5.55312">
        <ele>371.96</ele>
        <time>2022-10-16T10:03:33Z</time>
      </trkpt>
      <trkpt lat="46.63372" lon="5.55302">
        <ele>371.95</ele>
        <time>2022-10-16T10:03:40Z</time>
      </trkpt>
      <trkpt lat="46.63389" lon="5.55285">
        <ele>371.94</ele>
        <time>2022-10-16T10:03:54Z</time>
      </trkpt>
      <trkpt lat="46.63396" lon="5.5528">
        <ele>371.9</ele>
        <time>2022-10-16T10:03:59Z</time>
      </trkpt>
      <trkpt lat="46.63397" lon="5.55278">
        <ele>371.91</ele>
        <time>2022-10-16T10:04:00Z</time>
      </trkpt>
      <trkpt lat="46.63399" lon="5.55275">
        <ele>371.91</ele>
        <time>2022-10-16T10:04:01Z</time>
      </trkpt>
      <trkpt lat="46.634" lon="5.55274">
        <ele>371.93</ele>
        <time>2022-10-16T10:04:02Z</time>
      </trkpt>
      <trkpt lat="46.63403" lon="5.55273">
        <ele>371.94</ele>
        <time>2022-10-16T10:04:03Z</time>
      </trkpt>
      <trkpt lat="46.63426" lon="5.55255">
        <ele>370.8</ele>
        <time>2022-10-16T10:04:18Z</time>
      </trkpt>
      <trkpt lat="46.63441" lon="5.55241">
        <ele>369.31</ele>
        <time>2022-10-16T10:04:29Z</time>
      </trkpt>
      <trkpt lat="46.6346" lon="5.5522">
        <ele>368.55</ele>
        <time>2022-10-16T10:04:44Z</time>
      </trkpt>
      <trkpt lat="46.63479" lon="5.55205">
        <ele>366.77</ele>
        <time>2022-10-16T10:04:58Z</time>
      </trkpt>
      <trkpt lat="46.63485" lon="5.55198">
        <ele>364.95</ele>
        <time>2022-10-16T10:05:03Z</time>
      </trkpt>
      <trkpt lat="46.63489" lon="5.5519">
        <ele>364.97</ele>
        <time>2022-10-16T10:05:06Z</time>
      </trkpt>
      <trkpt lat="46.6349" lon="5.55189">
        <ele>364.97</ele>
        <time>2022-10-16T10:05:07Z</time>
      </trkpt>
      <trkpt lat="46.63491" lon="5.55189">
        <ele>364.98</ele>
        <time>2022-10-16T10:05:08Z</time>
      </trkpt>
      <trkpt lat="46.63517" lon="5.55176">
        <ele>363.86</ele>
        <time>2022-10-16T10:05:25Z</time>
      </trkpt>
      <trkpt lat="46.63525" lon="5.55172">
        <ele>363.04</ele>
        <time>2022-10-16T10:05:30Z</time>
      </trkpt>
      <trkpt lat="46.63527" lon="5.55172">
        <ele>363.04</ele>
        <time>2022-10-16T10:05:31Z</time>
      </trkpt>
      <trkpt lat="46.63528" lon="5.55172">
        <ele>363.04</ele>
        <time>2022-10-16T10:05:32Z</time>
      </trkpt>
      <trkpt lat="46.6353" lon="5.55171">
        <ele>362.28</ele>
        <time>2022-10-16T10:05:33Z</time>
      </trkpt>
      <trkpt lat="46.63532" lon="5.5517">
        <ele>362.29</ele>
        <time>2022-10-16T10:05:34Z</time>
      </trkpt>
      <trkpt lat="46.6354" lon="5.55165">
        <ele>361.22</ele>
        <time>2022-10-16T10:05:39Z</time>
      </trkpt>
      <trkpt lat="46.63555" lon="5.55155">
        <ele>359.87</ele>
        <time>2022-10-16T10:05:51Z</time>
      </trkpt>
      <trkpt lat="46.63556" lon="5.55153">
        <ele>359.88</ele>
        <time>2022-10-16T10:05:52Z</time>
      </trkpt>
      <trkpt lat="46.6356" lon="5.55147">
        <ele>359.9</ele>
        <time>2022-10-16T10:05:56Z</time>
      </trkpt>
      <trkpt lat="46.63562" lon="5.55146">
        <ele>359.12</ele>
        <time>2022-10-16T10:05:57Z</time>
      </trkpt>
      <trkpt lat="46.63563" lon="5.55145">
        <ele>359.12</ele>
        <time>2022-10-16T10:05:58Z</time>
      </trkpt>
      <trkpt lat="46.63587" lon="5.55129">
        <ele>359.12</ele>
        <time>2022-10-16T10:06:13Z</time>
      </trkpt>
      <trkpt lat="46.63614" lon="5.55091">
        <ele>359.05</ele>
        <time>2022-10-16T10:06:26Z</time>
      </trkpt>
      <trkpt lat="46.63629" lon="5.5507">
        <ele>359.56</ele>
        <time>2022-10-16T10:06:37Z</time>
      </trkpt>
      <trkpt lat="46.63661" lon="5.55035">
        <ele>359.73</ele>
        <time>2022-10-16T10:06:57Z</time>
      </trkpt>
      <trkpt lat="46.6367" lon="5.55026">
        <ele>357.52</ele>
        <time>2022-10-16T10:07:05Z</time>
      </trkpt>
      <trkpt lat="46.63684" lon="5.55009">
        <ele>357.66</ele>
        <time>2022-10-16T10:07:17Z</time>
      </trkpt>
      <trkpt lat="46.63686" lon="5.55008">
        <ele>357.67</ele>
        <time>2022-10-16T10:07:18Z</time>
      </trkpt>
      <trkpt lat="46.63688" lon="5.55007">
        <ele>357.68</ele>
        <time>2022-10-16T10:07:19Z</time>
      </trkpt>
      <trkpt lat="46.63713" lon="5.54991">
        <ele>355.11</ele>
        <time>2022-10-16T10:07:37Z</time>
      </trkpt>
      <trkpt lat="46.63728" lon="5.54984">
        <ele>352.99</ele>
        <time>2022-10-16T10:07:47Z</time>
      </trkpt>
      <trkpt lat="46.63733" lon="5.54984">
        <ele>354.24</ele>
        <time>2022-10-16T10:07:50Z</time>
      </trkpt>
      <trkpt lat="46.63735" lon="5.54982">
        <ele>354.25</ele>
        <time>2022-10-16T10:07:51Z</time>
      </trkpt>
      <trkpt lat="46.63737" lon="5.54982">
        <ele>354.27</ele>
        <time>2022-10-16T10:07:52Z</time>
      </trkpt>
      <trkpt lat="46.63739" lon="5.54981">
        <ele>354.26</ele>
        <time>2022-10-16T10:07:53Z</time>
      </trkpt>
      <trkpt lat="46.6374" lon="5.5498">
        <ele>354.29</ele>
        <time>2022-10-16T10:07:54Z</time>
      </trkpt>
      <trkpt lat="46.63742" lon="5.5498">
        <ele>354.3</ele>
        <time>2022-10-16T10:07:55Z</time>
      </trkpt>
      <trkpt lat="46.63743" lon="5.54979">
        <ele>354.32</ele>
        <time>2022-10-16T10:07:56Z</time>
      </trkpt>
      <trkpt lat="46.63745" lon="5.54978">
        <ele>351.46</ele>
        <time>2022-10-16T10:07:57Z</time>
      </trkpt>
      <trkpt lat="46.63746" lon="5.54978">
        <ele>351.47</ele>
        <time>2022-10-16T10:07:58Z</time>
      </trkpt>
      <trkpt lat="46.63748" lon="5.54977">
        <ele>351.48</ele>
        <time>2022-10-16T10:07:59Z</time>
      </trkpt>
      <trkpt lat="46.63749" lon="5.54977">
        <ele>348.34</ele>
        <time>2022-10-16T10:08:00Z</time>
      </trkpt>
      <trkpt lat="46.6375" lon="5.54976">
        <ele>348.35</ele>
        <time>2022-10-16T10:08:01Z</time>
      </trkpt>
      <trkpt lat="46.63752" lon="5.54975">
        <ele>351.15</ele>
        <time>2022-10-16T10:08:03Z</time>
      </trkpt>
      <trkpt lat="46.63764" lon="5.5497">
        <ele>350.93</ele>
        <time>2022-10-16T10:08:12Z</time>
      </trkpt>
      <trkpt lat="46.63773" lon="5.54966">
        <ele>348.75</ele>
        <time>2022-10-16T10:08:19Z</time>
      </trkpt>
      <trkpt lat="46.63778" lon="5.54962">
        <ele>348.78</ele>
        <time>2022-10-16T10:08:23Z</time>
      </trkpt>
      <trkpt lat="46.63786" lon="5.54955">
        <ele>347.32</ele>
        <time>2022-10-16T10:08:29Z</time>
      </trkpt>
      <trkpt lat="46.63794" lon="5.54948">
        <ele>345.6</ele>
        <time>2022-10-16T10:08:37Z</time>
      </trkpt>
      <trkpt lat="46.63797" lon="5.54945">
        <ele>347.94</ele>
        <time>2022-10-16T10:08:40Z</time>
      </trkpt>
      <trkpt lat="46.63823" lon="5.54927">
        <ele>347.93</ele>
        <time>2022-10-16T10:08:59Z</time>
      </trkpt>
      <trkpt lat="46.63827" lon="5.54925">
        <ele>345.29</ele>
        <time>2022-10-16T10:09:02Z</time>
      </trkpt>
      <trkpt lat="46.63832" lon="5.54922">
        <ele>345.27</ele>
        <time>2022-10-16T10:09:05Z</time>
      </trkpt>
      <trkpt lat="46.63834" lon="5.54921">
        <ele>345.28</ele>
        <time>2022-10-16T10:09:07Z</time>
      </trkpt>
      <trkpt lat="46.63835" lon="5.54919">
        <ele>345.27</ele>
        <time>2022-10-16T10:09:08Z</time>
      </trkpt>
      <trkpt lat="46.63842" lon="5.54914">
        <ele>343.64</ele>
        <time>2022-10-16T10:09:14Z</time>
      </trkpt>
      <trkpt lat="46.63877" lon="5.54899">
        <ele>343.58</ele>
        <time>2022-10-16T10:09:36Z</time>
      </trkpt>
      <trkpt lat="46.63892" lon="5.54892">
        <ele>343.55</ele>
        <time>2022-10-16T10:09:47Z</time>
      </trkpt>
      <trkpt lat="46.63918" lon="5.54884">
        <ele>342.62</ele>
        <time>2022-10-16T10:10:03Z</time>
      </trkpt>
      <trkpt lat="46.63951" lon="5.54878">
        <ele>340.9</ele>
        <time>2022-10-16T10:10:18Z</time>
      </trkpt>
      <trkpt lat="46.63969" lon="5.5487">
        <ele>339.43</ele>
        <time>2022-10-16T10:10:30Z</time>
      </trkpt>
      <trkpt lat="46.63991" lon="5.54869">
        <ele>337.67</ele>
        <time>2022-10-16T10:10:43Z</time>
      </trkpt>
      <trkpt lat="46.64003" lon="5.5487">
        <ele>336.13</ele>
        <time>2022-10-16T10:10:50Z</time>
      </trkpt>
      <trkpt lat="46.64011" lon="5.54868">
        <ele>334.83</ele>
        <time>2022-10-16T10:10:56Z</time>
      </trkpt>
      <trkpt lat="46.64023" lon="5.54868">
        <ele>333.44</ele>
        <time>2022-10-16T10:11:03Z</time>
      </trkpt>
      <trkpt lat="46.64045" lon="5.54869">
        <ele>331.51</ele>
        <time>2022-10-16T10:11:17Z</time>
      </trkpt>
      <trkpt lat="46.64066" lon="5.5487">
        <ele>330.02</ele>
        <time>2022-10-16T10:11:30Z</time>
      </trkpt>
      <trkpt lat="46.64068" lon="5.5487">
        <ele>330.03</ele>
        <time>2022-10-16T10:11:31Z</time>
      </trkpt>
      <trkpt lat="46.64069" lon="5.54869">
        <ele>330.01</ele>
        <time>2022-10-16T10:11:32Z</time>
      </trkpt>
      <trkpt lat="46.64087" lon="5.54869">
        <ele>328.04</ele>
        <time>2022-10-16T10:11:45Z</time>
      </trkpt>
      <trkpt lat="46.64091" lon="5.54869">
        <ele>328.13</ele>
        <time>2022-10-16T10:11:48Z</time>
      </trkpt>
      <trkpt lat="46.64092" lon="5.5487">
        <ele>328.14</ele>
        <time>2022-10-16T10:11:49Z</time>
      </trkpt>
      <trkpt lat="46.64116" lon="5.54872">
        <ele>327.3</ele>
        <time>2022-10-16T10:12:06Z</time>
      </trkpt>
      <trkpt lat="46.6414" lon="5.54871">
        <ele>326.41</ele>
        <time>2022-10-16T10:12:19Z</time>
      </trkpt>
      <trkpt lat="46.64142" lon="5.54871">
        <ele>326.33</ele>
        <time>2022-10-16T10:12:20Z</time>
      </trkpt>
      <trkpt lat="46.64144" lon="5.54871">
        <ele>326.31</ele>
        <time>2022-10-16T10:12:21Z</time>
      </trkpt>
      <trkpt lat="46.64146" lon="5.5487">
        <ele>326.18</ele>
        <time>2022-10-16T10:12:22Z</time>
      </trkpt>
      <trkpt lat="46.64147" lon="5.54871">
        <ele>326.31</ele>
        <time>2022-10-16T10:12:23Z</time>
      </trkpt>
      <trkpt lat="46.64149" lon="5.54871">
        <ele>326.34</ele>
        <time>2022-10-16T10:12:24Z</time>
      </trkpt>
      <trkpt lat="46.64151" lon="5.54871">
        <ele>326.35</ele>
        <time>2022-10-16T10:12:25Z</time>
      </trkpt>
      <trkpt lat="46.64153" lon="5.5487">
        <ele>325.53</ele>
        <time>2022-10-16T10:12:26Z</time>
      </trkpt>
      <trkpt lat="46.64172" lon="5.54872">
        <ele>324.1</ele>
        <time>2022-10-16T10:12:39Z</time>
      </trkpt>
      <trkpt lat="46.64173" lon="5.54872">
        <ele>324.11</ele>
        <time>2022-10-16T10:12:40Z</time>
      </trkpt>
      <trkpt lat="46.64175" lon="5.54872">
        <ele>324</ele>
        <time>2022-10-16T10:12:41Z</time>
      </trkpt>
      <trkpt lat="46.64176" lon="5.54872">
        <ele>323.97</ele>
        <time>2022-10-16T10:12:42Z</time>
      </trkpt>
      <trkpt lat="46.64196" lon="5.54876">
        <ele>322.09</ele>
        <time>2022-10-16T10:12:57Z</time>
      </trkpt>
      <trkpt lat="46.64224" lon="5.54877">
        <ele>319.07</ele>
        <time>2022-10-16T10:13:15Z</time>
      </trkpt>
      <trkpt lat="46.64225" lon="5.54877">
        <ele>318.97</ele>
        <time>2022-10-16T10:13:16Z</time>
      </trkpt>
      <trkpt lat="46.64243" lon="5.54879">
        <ele>317.97</ele>
        <time>2022-10-16T10:13:27Z</time>
      </trkpt>
      <trkpt lat="46.64245" lon="5.54879">
        <ele>316.63</ele>
        <time>2022-10-16T10:13:28Z</time>
      </trkpt>
      <trkpt lat="46.64247" lon="5.54879">
        <ele>316.66</ele>
        <time>2022-10-16T10:13:29Z</time>
      </trkpt>
      <trkpt lat="46.64249" lon="5.54879">
        <ele>316.63</ele>
        <time>2022-10-16T10:13:30Z</time>
      </trkpt>
      <trkpt lat="46.64251" lon="5.54879">
        <ele>316.64</ele>
        <time>2022-10-16T10:13:31Z</time>
      </trkpt>
      <trkpt lat="46.64253" lon="5.54879">
        <ele>316.64</ele>
        <time>2022-10-16T10:13:32Z</time>
      </trkpt>
      <trkpt lat="46.64255" lon="5.54878">
        <ele>316.65</ele>
        <time>2022-10-16T10:13:33Z</time>
      </trkpt>
      <trkpt lat="46.64257" lon="5.54878">
        <ele>316.75</ele>
        <time>2022-10-16T10:13:34Z</time>
      </trkpt>
      <trkpt lat="46.64258" lon="5.54879">
        <ele>316.65</ele>
        <time>2022-10-16T10:13:35Z</time>
      </trkpt>
      <trkpt lat="46.64266" lon="5.54881">
        <ele>315.83</ele>
        <time>2022-10-16T10:13:41Z</time>
      </trkpt>
      <trkpt lat="46.64267" lon="5.54881">
        <ele>315.8</ele>
        <time>2022-10-16T10:13:42Z</time>
      </trkpt>
      <trkpt lat="46.64288" lon="5.54884">
        <ele>314</ele>
        <time>2022-10-16T10:13:56Z</time>
      </trkpt>
      <trkpt lat="46.64302" lon="5.54884">
        <ele>312.39</ele>
        <time>2022-10-16T10:14:03Z</time>
      </trkpt>
      <trkpt lat="46.64308" lon="5.54884">
        <ele>311.16</ele>
        <time>2022-10-16T10:14:06Z</time>
      </trkpt>
      <trkpt lat="46.64313" lon="5.54885">
        <ele>309.78</ele>
        <time>2022-10-16T10:14:10Z</time>
      </trkpt>
      <trkpt lat="46.64336" lon="5.54885">
        <ele>309.91</ele>
        <time>2022-10-16T10:14:23Z</time>
      </trkpt>
      <trkpt lat="46.64341" lon="5.54884">
        <ele>308.5</ele>
        <time>2022-10-16T10:14:26Z</time>
      </trkpt>
      <trkpt lat="46.64342" lon="5.54884">
        <ele>308.49</ele>
        <time>2022-10-16T10:14:27Z</time>
      </trkpt>
      <trkpt lat="46.64344" lon="5.54884">
        <ele>308.61</ele>
        <time>2022-10-16T10:14:28Z</time>
      </trkpt>
      <trkpt lat="46.64345" lon="5.54884">
        <ele>308.59</ele>
        <time>2022-10-16T10:14:29Z</time>
      </trkpt>
      <trkpt lat="46.64347" lon="5.54884">
        <ele>308.6</ele>
        <time>2022-10-16T10:14:30Z</time>
      </trkpt>
      <trkpt lat="46.64348" lon="5.54884">
        <ele>308.49</ele>
        <time>2022-10-16T10:14:31Z</time>
      </trkpt>
      <trkpt lat="46.64369" lon="5.54885">
        <ele>306.29</ele>
        <time>2022-10-16T10:14:42Z</time>
      </trkpt>
      <trkpt lat="46.64393" lon="5.54877">
        <ele>305.63</ele>
        <time>2022-10-16T10:14:57Z</time>
      </trkpt>
      <trkpt lat="46.64414" lon="5.54873">
        <ele>303</ele>
        <time>2022-10-16T10:15:11Z</time>
      </trkpt>
      <trkpt lat="46.64416" lon="5.54873">
        <ele>303.01</ele>
        <time>2022-10-16T10:15:12Z</time>
      </trkpt>
      <trkpt lat="46.64417" lon="5.54872">
        <ele>303.02</ele>
        <time>2022-10-16T10:15:13Z</time>
      </trkpt>
      <trkpt lat="46.64419" lon="5.54872">
        <ele>303.08</ele>
        <time>2022-10-16T10:15:14Z</time>
      </trkpt>
      <trkpt lat="46.64421" lon="5.54872">
        <ele>303.07</ele>
        <time>2022-10-16T10:15:15Z</time>
      </trkpt>
      <trkpt lat="46.64423" lon="5.54872">
        <ele>303.17</ele>
        <time>2022-10-16T10:15:16Z</time>
      </trkpt>
      <trkpt lat="46.64425" lon="5.54871">
        <ele>303.18</ele>
        <time>2022-10-16T10:15:17Z</time>
      </trkpt>
      <trkpt lat="46.64426" lon="5.5487">
        <ele>302.3</ele>
        <time>2022-10-16T10:15:18Z</time>
      </trkpt>
      <trkpt lat="46.64427" lon="5.5487">
        <ele>302.3</ele>
        <time>2022-10-16T10:15:19Z</time>
      </trkpt>
      <trkpt lat="46.64444" lon="5.54865">
        <ele>299.8</ele>
        <time>2022-10-16T10:15:33Z</time>
      </trkpt>
      <trkpt lat="46.64445" lon="5.54865">
        <ele>299.86</ele>
        <time>2022-10-16T10:15:34Z</time>
      </trkpt>
      <trkpt lat="46.64446" lon="5.54865">
        <ele>299.86</ele>
        <time>2022-10-16T10:15:35Z</time>
      </trkpt>
      <trkpt lat="46.64448" lon="5.54865">
        <ele>299.87</ele>
        <time>2022-10-16T10:15:36Z</time>
      </trkpt>
      <trkpt lat="46.64449" lon="5.54864">
        <ele>299.9</ele>
        <time>2022-10-16T10:15:37Z</time>
      </trkpt>
      <trkpt lat="46.64451" lon="5.54865">
        <ele>299.91</ele>
        <time>2022-10-16T10:15:38Z</time>
      </trkpt>
      <trkpt lat="46.64453" lon="5.54865">
        <ele>298.32</ele>
        <time>2022-10-16T10:15:39Z</time>
      </trkpt>
      <trkpt lat="46.64454" lon="5.54866">
        <ele>298.33</ele>
        <time>2022-10-16T10:15:40Z</time>
      </trkpt>
      <trkpt lat="46.64466" lon="5.54867">
        <ele>295.64</ele>
        <time>2022-10-16T10:15:49Z</time>
      </trkpt>
      <trkpt lat="46.64467" lon="5.54868">
        <ele>295.66</ele>
        <time>2022-10-16T10:15:50Z</time>
      </trkpt>
      <trkpt lat="46.64481" lon="5.54867">
        <ele>293.87</ele>
        <time>2022-10-16T10:16:00Z</time>
      </trkpt>
      <trkpt lat="46.64512" lon="5.54853">
        <ele>291.22</ele>
        <time>2022-10-16T10:16:21Z</time>
      </trkpt>
      <trkpt lat="46.64513" lon="5.54851">
        <ele>291.25</ele>
        <time>2022-10-16T10:16:22Z</time>
      </trkpt>
      <trkpt lat="46.64514" lon="5.5485">
        <ele>291.25</ele>
        <time>2022-10-16T10:16:23Z</time>
      </trkpt>
      <trkpt lat="46.64518" lon="5.54846">
        <ele>289.09</ele>
        <time>2022-10-16T10:16:26Z</time>
      </trkpt>
      <trkpt lat="46.64542" lon="5.54815">
        <ele>286.12</ele>
        <time>2022-10-16T10:16:48Z</time>
      </trkpt>
      <trkpt lat="46.64547" lon="5.54797">
        <ele>284.33</ele>
        <time>2022-10-16T10:16:55Z</time>
      </trkpt>
      <trkpt lat="46.64552" lon="5.54777">
        <ele>282.63</ele>
        <time>2022-10-16T10:17:03Z</time>
      </trkpt>
      <trkpt lat="46.64555" lon="5.5472">
        <ele>280.47</ele>
        <time>2022-10-16T10:17:21Z</time>
      </trkpt>
      <trkpt lat="46.64558" lon="5.54696">
        <ele>278.53</ele>
        <time>2022-10-16T10:17:32Z</time>
      </trkpt>
      <trkpt lat="46.64565" lon="5.54683">
        <ele>275.18</ele>
        <time>2022-10-16T10:17:47Z</time>
      </trkpt>
      <trkpt lat="46.64566" lon="5.54682">
        <ele>275.19</ele>
        <time>2022-10-16T10:17:48Z</time>
      </trkpt>
      <trkpt lat="46.64571" lon="5.54677">
        <ele>273.94</ele>
        <time>2022-10-16T10:17:55Z</time>
      </trkpt>
      <trkpt lat="46.64576" lon="5.54671">
        <ele>272.59</ele>
        <time>2022-10-16T10:18:00Z</time>
      </trkpt>
      <trkpt lat="46.64578" lon="5.54668">
        <ele>272.53</ele>
        <time>2022-10-16T10:18:02Z</time>
      </trkpt>
      <trkpt lat="46.64589" lon="5.54659">
        <ele>268.6</ele>
        <time>2022-10-16T10:18:13Z</time>
      </trkpt>
      <trkpt lat="46.64601" lon="5.54643">
        <ele>266.22</ele>
        <time>2022-10-16T10:18:25Z</time>
      </trkpt>
      <trkpt lat="46.64613" lon="5.54637">
        <ele>264.02</ele>
        <time>2022-10-16T10:18:33Z</time>
      </trkpt>
      <trkpt lat="46.64621" lon="5.54637">
        <ele>262.59</ele>
        <time>2022-10-16T10:18:38Z</time>
      </trkpt>
      <trkpt lat="46.64653" lon="5.5464">
        <ele>259.09</ele>
        <time>2022-10-16T10:18:56Z</time>
      </trkpt>
      <trkpt lat="46.64661" lon="5.54628">
        <ele>258.22</ele>
        <time>2022-10-16T10:19:03Z</time>
      </trkpt>
      <trkpt lat="46.64661" lon="5.54626">
        <ele>258.14</ele>
        <time>2022-10-16T10:19:04Z</time>
      </trkpt>
      <trkpt lat="46.64662" lon="5.54623">
        <ele>258.19</ele>
        <time>2022-10-16T10:19:05Z</time>
      </trkpt>
      <trkpt lat="46.64662" lon="5.54566">
        <ele>255.44</ele>
        <time>2022-10-16T10:19:17Z</time>
      </trkpt>
      <trkpt lat="46.64658" lon="5.54545">
        <ele>251.92</ele>
        <time>2022-10-16T10:19:27Z</time>
      </trkpt>
      <trkpt lat="46.64658" lon="5.54543">
        <ele>251.94</ele>
        <time>2022-10-16T10:19:28Z</time>
      </trkpt>
      <trkpt lat="46.64658" lon="5.54531">
        <ele>253.99</ele>
        <time>2022-10-16T10:19:34Z</time>
      </trkpt>
      <trkpt lat="46.64658" lon="5.54518">
        <ele>249.91</ele>
        <time>2022-10-16T10:19:41Z</time>
      </trkpt>
      <trkpt lat="46.64659" lon="5.54517">
        <ele>249.97</ele>
        <time>2022-10-16T10:19:42Z</time>
      </trkpt>
      <trkpt lat="46.6466" lon="5.54514">
        <ele>252.36</ele>
        <time>2022-10-16T10:19:44Z</time>
      </trkpt>
      <trkpt lat="46.64678" lon="5.54508">
        <ele>250.36</ele>
        <time>2022-10-16T10:20:00Z</time>
      </trkpt>
      <trkpt lat="46.64691" lon="5.54528">
        <ele>249.71</ele>
        <time>2022-10-16T10:20:14Z</time>
      </trkpt>
      <trkpt lat="46.64692" lon="5.54529">
        <ele>249.72</ele>
        <time>2022-10-16T10:20:15Z</time>
      </trkpt>
      <trkpt lat="46.64693" lon="5.54529">
        <ele>249.75</ele>
        <time>2022-10-16T10:20:16Z</time>
      </trkpt>
      <trkpt lat="46.64694" lon="5.54529">
        <ele>249.79</ele>
        <time>2022-10-16T10:20:17Z</time>
      </trkpt>
      <trkpt lat="46.64696" lon="5.54529">
        <ele>249.84</ele>
        <time>2022-10-16T10:20:18Z</time>
      </trkpt>
      <trkpt lat="46.64699" lon="5.54531">
        <ele>249.88</ele>
        <time>2022-10-16T10:20:20Z</time>
      </trkpt>
      <trkpt lat="46.64699" lon="5.54532">
        <ele>249.9</ele>
        <time>2022-10-16T10:20:21Z</time>
      </trkpt>
      <trkpt lat="46.647" lon="5.54534">
        <ele>249.91</ele>
        <time>2022-10-16T10:20:22Z</time>
      </trkpt>
      <trkpt lat="46.64712" lon="5.54562">
        <ele>249.32</ele>
        <time>2022-10-16T10:20:39Z</time>
      </trkpt>
      <trkpt lat="46.64722" lon="5.54595">
        <ele>249.58</ele>
        <time>2022-10-16T10:20:57Z</time>
      </trkpt>
      <trkpt lat="46.64723" lon="5.54596">
        <ele>249.58</ele>
        <time>2022-10-16T10:20:58Z</time>
      </trkpt>
      <trkpt lat="46.64723" lon="5.54598">
        <ele>248.8</ele>
        <time>2022-10-16T10:20:59Z</time>
      </trkpt>
      <trkpt lat="46.64724" lon="5.546">
        <ele>248.83</ele>
        <time>2022-10-16T10:21:01Z</time>
      </trkpt>
      <trkpt lat="46.64725" lon="5.546">
        <ele>248.82</ele>
        <time>2022-10-16T10:21:02Z</time>
      </trkpt>
      <trkpt lat="46.64727" lon="5.546">
        <ele>248.83</ele>
        <time>2022-10-16T10:21:03Z</time>
      </trkpt>
      <trkpt lat="46.64728" lon="5.54599">
        <ele>247.98</ele>
        <time>2022-10-16T10:21:04Z</time>
      </trkpt>
      <trkpt lat="46.6473" lon="5.54598">
        <ele>247.99</ele>
        <time>2022-10-16T10:21:05Z</time>
      </trkpt>
      <trkpt lat="46.64749" lon="5.54574">
        <ele>246.47</ele>
        <time>2022-10-16T10:21:21Z</time>
      </trkpt>
      <trkpt lat="46.64757" lon="5.54542">
        <ele>246.8</ele>
        <time>2022-10-16T10:21:39Z</time>
      </trkpt>
      <trkpt lat="46.64759" lon="5.54531">
        <ele>248.56</ele>
        <time>2022-10-16T10:21:45Z</time>
      </trkpt>
      <trkpt lat="46.64767" lon="5.54506">
        <ele>245.93</ele>
        <time>2022-10-16T10:21:59Z</time>
      </trkpt>
      <trkpt lat="46.64782" lon="5.54494">
        <ele>246.12</ele>
        <time>2022-10-16T10:22:14Z</time>
      </trkpt>
      <trkpt lat="46.64793" lon="5.54468">
        <ele>245.2</ele>
        <time>2022-10-16T10:22:35Z</time>
      </trkpt>
      <trkpt lat="46.648" lon="5.54435">
        <ele>244.56</ele>
        <time>2022-10-16T10:22:55Z</time>
      </trkpt>
      <trkpt lat="46.64805" lon="5.5441">
        <ele>244.49</ele>
        <time>2022-10-16T10:23:10Z</time>
      </trkpt>
      <trkpt lat="46.64814" lon="5.54373">
        <ele>244.28</ele>
        <time>2022-10-16T10:23:35Z</time>
      </trkpt>
      <trkpt lat="46.64823" lon="5.54336">
        <ele>244.09</ele>
        <time>2022-10-16T10:23:56Z</time>
      </trkpt>
      <trkpt lat="46.64831" lon="5.54303">
        <ele>243.97</ele>
        <time>2022-10-16T10:24:15Z</time>
      </trkpt>
      <trkpt lat="46.64831" lon="5.543">
        <ele>243.95</ele>
        <time>2022-10-16T10:24:16Z</time>
      </trkpt>
      <trkpt lat="46.64832" lon="5.54298">
        <ele>243.92</ele>
        <time>2022-10-16T10:24:17Z</time>
      </trkpt>
      <trkpt lat="46.64832" lon="5.54295">
        <ele>243.96</ele>
        <time>2022-10-16T10:24:18Z</time>
      </trkpt>
      <trkpt lat="46.64847" lon="5.54254">
        <ele>242.46</ele>
        <time>2022-10-16T10:24:42Z</time>
      </trkpt>
      <trkpt lat="46.64855" lon="5.54174">
        <ele>241.16</ele>
        <time>2022-10-16T10:25:08Z</time>
      </trkpt>
      <trkpt lat="46.64866" lon="5.5411">
        <ele>239.96</ele>
        <time>2022-10-16T10:25:25Z</time>
      </trkpt>
      <trkpt lat="46.64865" lon="5.541">
        <ele>239.17</ele>
        <time>2022-10-16T10:25:31Z</time>
      </trkpt>
      <trkpt lat="46.64865" lon="5.54099">
        <ele>239.13</ele>
        <time>2022-10-16T10:25:32Z</time>
      </trkpt>
      <trkpt lat="46.64865" lon="5.54098">
        <ele>239.14</ele>
        <time>2022-10-16T10:25:33Z</time>
      </trkpt>
      <trkpt lat="46.64865" lon="5.54074">
        <ele>238.96</ele>
        <time>2022-10-16T10:25:48Z</time>
      </trkpt>
      <trkpt lat="46.64866" lon="5.54066">
        <ele>239</ele>
        <time>2022-10-16T10:25:54Z</time>
      </trkpt>
      <trkpt lat="46.64865" lon="5.54038">
        <ele>238.19</ele>
        <time>2022-10-16T10:26:09Z</time>
      </trkpt>
      <trkpt lat="46.64865" lon="5.54008">
        <ele>237</ele>
        <time>2022-10-16T10:26:23Z</time>
      </trkpt>
      <trkpt lat="46.64864" lon="5.53988">
        <ele>239.47</ele>
        <time>2022-10-16T10:26:32Z</time>
      </trkpt>
      <trkpt lat="46.64862" lon="5.53963">
        <ele>239.47</ele>
        <time>2022-10-16T10:26:48Z</time>
      </trkpt>
      <trkpt lat="46.64864" lon="5.5396">
        <ele>239.39</ele>
        <time>2022-10-16T10:26:51Z</time>
      </trkpt>
      <trkpt lat="46.64878" lon="5.53947">
        <ele>239.38</ele>
        <time>2022-10-16T10:27:05Z</time>
      </trkpt>
      <trkpt lat="46.64885" lon="5.53937">
        <ele>239.43</ele>
        <time>2022-10-16T10:27:13Z</time>
      </trkpt>
      <trkpt lat="46.64902" lon="5.53924">
        <ele>239.41</ele>
        <time>2022-10-16T10:27:30Z</time>
      </trkpt>
      <trkpt lat="46.64915" lon="5.53897">
        <ele>239.47</ele>
        <time>2022-10-16T10:27:50Z</time>
      </trkpt>
      <trkpt lat="46.64919" lon="5.53895">
        <ele>236.87</ele>
        <time>2022-10-16T10:27:53Z</time>
      </trkpt>
      <trkpt lat="46.64923" lon="5.53887">
        <ele>236.89</ele>
        <time>2022-10-16T10:27:58Z</time>
      </trkpt>
      <trkpt lat="46.64926" lon="5.53883">
        <ele>236.89</ele>
        <time>2022-10-16T10:28:02Z</time>
      </trkpt>
      <trkpt lat="46.64937" lon="5.53864">
        <ele>236.98</ele>
        <time>2022-10-16T10:28:17Z</time>
      </trkpt>
      <trkpt lat="46.6494" lon="5.53858">
        <ele>239.55</ele>
        <time>2022-10-16T10:28:21Z</time>
      </trkpt>
      <trkpt lat="46.64948" lon="5.53838">
        <ele>240.52</ele>
        <time>2022-10-16T10:28:35Z</time>
      </trkpt>
      <trkpt lat="46.64967" lon="5.53816">
        <ele>240.61</ele>
        <time>2022-10-16T10:28:53Z</time>
      </trkpt>
      <trkpt lat="46.64974" lon="5.538">
        <ele>238.13</ele>
        <time>2022-10-16T10:29:03Z</time>
      </trkpt>
      <trkpt lat="46.64996" lon="5.53755">
        <ele>236.96</ele>
        <time>2022-10-16T10:29:29Z</time>
      </trkpt>
      <trkpt lat="46.65001" lon="5.53729">
        <ele>236.94</ele>
        <time>2022-10-16T10:29:39Z</time>
      </trkpt>
      <trkpt lat="46.65024" lon="5.53699">
        <ele>236.66</ele>
        <time>2022-10-16T10:30:03Z</time>
      </trkpt>
      <trkpt lat="46.65026" lon="5.53693">
        <ele>236.68</ele>
        <time>2022-10-16T10:30:05Z</time>
      </trkpt>
      <trkpt lat="46.65027" lon="5.53692">
        <ele>236.67</ele>
        <time>2022-10-16T10:30:06Z</time>
      </trkpt>
      <trkpt lat="46.65046" lon="5.53682">
        <ele>236.57</ele>
        <time>2022-10-16T10:30:18Z</time>
      </trkpt>
      <trkpt lat="46.65061" lon="5.53657">
        <ele>236.45</ele>
        <time>2022-10-16T10:30:32Z</time>
      </trkpt>
      <trkpt lat="46.6508" lon="5.53632">
        <ele>236.37</ele>
        <time>2022-10-16T10:30:51Z</time>
      </trkpt>
      <trkpt lat="46.65102" lon="5.53623">
        <ele>235.44</ele>
        <time>2022-10-16T10:31:04Z</time>
      </trkpt>
      <trkpt lat="46.6512" lon="5.53608">
        <ele>234.13</ele>
        <time>2022-10-16T10:31:16Z</time>
      </trkpt>
      <trkpt lat="46.65141" lon="5.53585">
        <ele>234.11</ele>
        <time>2022-10-16T10:31:32Z</time>
      </trkpt>
      <trkpt lat="46.6516" lon="5.53572">
        <ele>233.25</ele>
        <time>2022-10-16T10:31:48Z</time>
      </trkpt>
      <trkpt lat="46.65175" lon="5.53561">
        <ele>233.15</ele>
        <time>2022-10-16T10:32:01Z</time>
      </trkpt>
      <trkpt lat="46.65194" lon="5.53549">
        <ele>233.05</ele>
        <time>2022-10-16T10:32:17Z</time>
      </trkpt>
      <trkpt lat="46.65219" lon="5.53531">
        <ele>231.3</ele>
        <time>2022-10-16T10:32:35Z</time>
      </trkpt>
      <trkpt lat="46.65227" lon="5.53525">
        <ele>233.65</ele>
        <time>2022-10-16T10:32:42Z</time>
      </trkpt>
      <trkpt lat="46.6525" lon="5.53498">
        <ele>233.55</ele>
        <time>2022-10-16T10:32:58Z</time>
      </trkpt>
      <trkpt lat="46.65251" lon="5.53497">
        <ele>233.5</ele>
        <time>2022-10-16T10:32:59Z</time>
      </trkpt>
      <trkpt lat="46.65252" lon="5.53495">
        <ele>233.5</ele>
        <time>2022-10-16T10:33:00Z</time>
      </trkpt>
      <trkpt lat="46.65253" lon="5.53494">
        <ele>233.49</ele>
        <time>2022-10-16T10:33:01Z</time>
      </trkpt>
      <trkpt lat="46.65255" lon="5.53492">
        <ele>233.49</ele>
        <time>2022-10-16T10:33:02Z</time>
      </trkpt>
      <trkpt lat="46.65256" lon="5.53491">
        <ele>233.47</ele>
        <time>2022-10-16T10:33:03Z</time>
      </trkpt>
      <trkpt lat="46.65257" lon="5.53489">
        <ele>233.46</ele>
        <time>2022-10-16T10:33:04Z</time>
      </trkpt>
      <trkpt lat="46.65258" lon="5.53486">
        <ele>233.42</ele>
        <time>2022-10-16T10:33:05Z</time>
      </trkpt>
      <trkpt lat="46.65264" lon="5.53471">
        <ele>233.43</ele>
        <time>2022-10-16T10:33:12Z</time>
      </trkpt>
      <trkpt lat="46.65281" lon="5.53447">
        <ele>230.4</ele>
        <time>2022-10-16T10:33:27Z</time>
      </trkpt>
      <trkpt lat="46.65282" lon="5.53446">
        <ele>230.42</ele>
        <time>2022-10-16T10:33:28Z</time>
      </trkpt>
      <trkpt lat="46.65283" lon="5.53445">
        <ele>230.43</ele>
        <time>2022-10-16T10:33:29Z</time>
      </trkpt>
      <trkpt lat="46.65298" lon="5.53419">
        <ele>230.51</ele>
        <time>2022-10-16T10:33:44Z</time>
      </trkpt>
      <trkpt lat="46.6532" lon="5.53394">
        <ele>230.45</ele>
        <time>2022-10-16T10:34:01Z</time>
      </trkpt>
      <trkpt lat="46.65331" lon="5.53382">
        <ele>232.9</ele>
        <time>2022-10-16T10:34:11Z</time>
      </trkpt>
      <trkpt lat="46.65332" lon="5.5338">
        <ele>232.88</ele>
        <time>2022-10-16T10:34:12Z</time>
      </trkpt>
      <trkpt lat="46.65333" lon="5.53378">
        <ele>232.91</ele>
        <time>2022-10-16T10:34:13Z</time>
      </trkpt>
      <trkpt lat="46.65348" lon="5.53364">
        <ele>232.94</ele>
        <time>2022-10-16T10:34:27Z</time>
      </trkpt>
      <trkpt lat="46.65349" lon="5.53362">
        <ele>232.94</ele>
        <time>2022-10-16T10:34:28Z</time>
      </trkpt>
      <trkpt lat="46.65351" lon="5.53354">
        <ele>234.36</ele>
        <time>2022-10-16T10:34:32Z</time>
      </trkpt>
      <trkpt lat="46.65356" lon="5.53348">
        <ele>231.81</ele>
        <time>2022-10-16T10:34:37Z</time>
      </trkpt>
      <trkpt lat="46.65361" lon="5.53338">
        <ele>231.8</ele>
        <time>2022-10-16T10:34:44Z</time>
      </trkpt>
      <trkpt lat="46.65362" lon="5.53337">
        <ele>231.83</ele>
        <time>2022-10-16T10:34:45Z</time>
      </trkpt>
      <trkpt lat="46.65363" lon="5.53336">
        <ele>231.81</ele>
        <time>2022-10-16T10:34:46Z</time>
      </trkpt>
      <trkpt lat="46.65367" lon="5.5333">
        <ele>231.85</ele>
        <time>2022-10-16T10:34:51Z</time>
      </trkpt>
      <trkpt lat="46.65385" lon="5.53316">
        <ele>231.79</ele>
        <time>2022-10-16T10:35:06Z</time>
      </trkpt>
      <trkpt lat="46.65409" lon="5.53303">
        <ele>229.64</ele>
        <time>2022-10-16T10:35:21Z</time>
      </trkpt>
      <trkpt lat="46.65426" lon="5.5329">
        <ele>228.52</ele>
        <time>2022-10-16T10:35:36Z</time>
      </trkpt>
      <trkpt lat="46.65437" lon="5.53278">
        <ele>228.55</ele>
        <time>2022-10-16T10:35:46Z</time>
      </trkpt>
      <trkpt lat="46.65451" lon="5.53259">
        <ele>228.51</ele>
        <time>2022-10-16T10:36:00Z</time>
      </trkpt>
      <trkpt lat="46.65455" lon="5.53253">
        <ele>228.49</ele>
        <time>2022-10-16T10:36:06Z</time>
      </trkpt>
      <trkpt lat="46.6546" lon="5.53249">
        <ele>228.49</ele>
        <time>2022-10-16T10:36:11Z</time>
      </trkpt>
      <trkpt lat="46.65473" lon="5.53223">
        <ele>230.18</ele>
        <time>2022-10-16T10:36:26Z</time>
      </trkpt>
      <trkpt lat="46.65474" lon="5.53221">
        <ele>230.19</ele>
        <time>2022-10-16T10:36:27Z</time>
      </trkpt>
      <trkpt lat="46.65485" lon="5.53172">
        <ele>230.93</ele>
        <time>2022-10-16T10:36:40Z</time>
      </trkpt>
      <trkpt lat="46.65496" lon="5.53134">
        <ele>228.58</ele>
        <time>2022-10-16T10:36:56Z</time>
      </trkpt>
      <trkpt lat="46.65498" lon="5.53126">
        <ele>229.99</ele>
        <time>2022-10-16T10:36:59Z</time>
      </trkpt>
      <trkpt lat="46.65504" lon="5.53089">
        <ele>230.15</ele>
        <time>2022-10-16T10:37:15Z</time>
      </trkpt>
      <trkpt lat="46.65502" lon="5.53083">
        <ele>230.23</ele>
        <time>2022-10-16T10:37:23Z</time>
      </trkpt>
      <trkpt lat="46.65493" lon="5.53067">
        <ele>227.98</ele>
        <time>2022-10-16T10:37:34Z</time>
      </trkpt>
      <trkpt lat="46.65474" lon="5.53031">
        <ele>222.04</ele>
        <time>2022-10-16T10:37:55Z</time>
      </trkpt>
      <trkpt lat="46.65473" lon="5.53029">
        <ele>226.48</ele>
        <time>2022-10-16T10:37:56Z</time>
      </trkpt>
      <trkpt lat="46.65471" lon="5.53026">
        <ele>227.51</ele>
        <time>2022-10-16T10:37:58Z</time>
      </trkpt>
      <trkpt lat="46.6547" lon="5.53024">
        <ele>223.07</ele>
        <time>2022-10-16T10:37:59Z</time>
      </trkpt>
      <trkpt lat="46.6547" lon="5.53023">
        <ele>226.74</ele>
        <time>2022-10-16T10:38:00Z</time>
      </trkpt>
      <trkpt lat="46.65455" lon="5.52996">
        <ele>226.96</ele>
        <time>2022-10-16T10:38:16Z</time>
      </trkpt>
      <trkpt lat="46.65438" lon="5.52978">
        <ele>222.12</ele>
        <time>2022-10-16T10:38:31Z</time>
      </trkpt>
      <trkpt lat="46.65437" lon="5.52977">
        <ele>224.96</ele>
        <time>2022-10-16T10:38:32Z</time>
      </trkpt>
      <trkpt lat="46.65433" lon="5.52974">
        <ele>225.03</ele>
        <time>2022-10-16T10:38:36Z</time>
      </trkpt>
      <trkpt lat="46.65432" lon="5.52973">
        <ele>225.04</ele>
        <time>2022-10-16T10:38:37Z</time>
      </trkpt>
      <trkpt lat="46.65431" lon="5.52972">
        <ele>225.07</ele>
        <time>2022-10-16T10:38:38Z</time>
      </trkpt>
      <trkpt lat="46.65414" lon="5.52957">
        <ele>225.36</ele>
        <time>2022-10-16T10:38:56Z</time>
      </trkpt>
      <trkpt lat="46.65397" lon="5.52951">
        <ele>225.5</ele>
        <time>2022-10-16T10:39:08Z</time>
      </trkpt>
      <trkpt lat="46.65396" lon="5.5295">
        <ele>225.49</ele>
        <time>2022-10-16T10:39:09Z</time>
      </trkpt>
      <trkpt lat="46.65394" lon="5.5295">
        <ele>225.53</ele>
        <time>2022-10-16T10:39:10Z</time>
      </trkpt>
      <trkpt lat="46.65393" lon="5.5295">
        <ele>225.51</ele>
        <time>2022-10-16T10:39:11Z</time>
      </trkpt>
      <trkpt lat="46.65388" lon="5.52947">
        <ele>225.53</ele>
        <time>2022-10-16T10:39:15Z</time>
      </trkpt>
      <trkpt lat="46.65384" lon="5.52947">
        <ele>226.8</ele>
        <time>2022-10-16T10:39:18Z</time>
      </trkpt>
      <trkpt lat="46.65372" lon="5.52954">
        <ele>224.35</ele>
        <time>2022-10-16T10:39:26Z</time>
      </trkpt>
      <trkpt lat="46.65368" lon="5.52951">
        <ele>223.05</ele>
        <time>2022-10-16T10:39:33Z</time>
      </trkpt>
      <trkpt lat="46.65368" lon="5.52952">
        <ele>198.18</ele>
        <time>2022-10-16T10:39:38Z</time>
      </trkpt>
    </trkseg>
  </trk>
</gpx>